[[{"header":{"parameterUnit":"m.s-1","parameterCategory":1,"la1":30.6,"la2":29.2853,"lo1":-89.7004,"lo2":-87.6739,"dy":0.0162,"dx":0.0183,"nx":112,"ny":82,"refTime":"2025-04-11T12:00:00:Z","depth":0,"parameterNumber":2,"parameterNumberName":"U-component_of_WINDS"},"data":[0.0,0.0,0.0,0.0,0.0,0.0,0.0,0.0,0.0,0.0,0.0,0.0,0.0,0.0,0.0,0.0,0.0,0.0,0.0,0.0,0.0,0.0,0.0,0.0,0.0,0.0,0.0,0.0,0.0,0.0,0.0,0.0,0.0,0.0,0.0,0.0,0.0,0.0,0.0,0.0,0.0,0.0,0.0,0.0,0.0,0.0,0.0,0.0,0.0,0.0,0.0,0.0,0.0,0.0,0.0,0.0,0.0,0.0,0.0,0.0,0.0,0.0,0.0,0.0,0.0,0.0,0.0,0.0,0.0,0.0,0.0,0.0,0.0,0.0,0.0,0.0,0.0,0.0,0.0,0.0,0.0,0.0,0.0,0.0,0.0,0.0,0.0,0.0,0.0,0.0,-2.5175,-2.6071,-2.6468,-2.659,-2.6348,-2.6054,-2.4368,-2.0823,0.0,0.0,0.0,0.0,0.0,0.0,0.0,0.0,0.0,0.0,0.0,0.0,0.0,0.0,0.0,0.0,0.0,0.0,0.0,0.0,0.0,0.0,0.0,0.0,0.0,0.0,0.0,0.0,0.0,0.0,0.0,0.0,0.0,0.0,0.0,0.0,0.0,0.0,0.0,0.0,0.0,0.0,0.0,0.0,0.0,0.0,0.0,0.0,0.0,0.0,0.0,0.0,0.0,0.0,0.0,0.0,0.0,0.0,0.0,0.0,0.0,0.0,0.0,0.0,0.0,0.0,0.0,0.0,0.0,0.0,0.0,0.0,0.0,0.0,0.0,0.0,0.0,0.0,0.0,0.0,0.0,0.0,0.0,0.0,0.0,0.0,0.0,0.0,0.0,0.0,0.0,0.0,0.0,0.0,0.0,0.0,0.0,0.0,0.0,0.0,0.0,0.0,0.0,0.0,-2.4105,-2.6578,-2.6708,-2.6572,-2.6485,-2.5763,-2.4083,-2.1199,0.0,0.0,0.0,0.0,0.0,0.0,0.0,0.0,0.0,0.0,0.0,0.0,0.0,0.0,0.0,0.0,0.0,0.0,0.0,0.0,0.0,0.0,0.0,0.0,0.0,0.0,0.0,0.0,0.0,0.0,0.0,0.0,0.0,0.0,0.0,0.0,0.0,0.0,0.0,0.0,0.0,0.0,0.0,0.0,0.0,0.0,0.0,0.0,0.0,0.0,0.0,0.0,0.0,0.0,0.0,0.0,0.0,0.0,0.0,0.0,0.0,0.0,0.0,0.0,0.0,0.0,0.0,0.0,0.0,0.0,0.0,0.0,0.0,0.0,0.0,0.0,0.0,0.0,0.0,0.0,0.0,0.0,0.0,0.0,0.0,0.0,0.0,0.0,0.0,0.0,0.0,0.0,0.0,0.0,0.0,0.0,0.0,0.0,0.0,0.0,0.0,0.0,0.0,-2.4525,-2.5039,-2.6754,-2.6708,-2.6537,-2.6502,-2.5942,-2.4311,-2.1343,-2.0483,0.0,0.0,0.0,0.0,0.0,0.0,0.0,0.0,0.0,0.0,0.0,0.0,0.0,0.0,0.0,0.0,0.0,0.0,0.0,0.0,0.0,0.0,0.0,0.0,0.0,0.0,0.0,0.0,0.0,0.0,0.0,0.0,0.0,0.0,0.0,0.0,0.0,0.0,0.0,0.0,0.0,0.0,0.0,0.0,0.0,0.0,0.0,0.0,0.0,0.0,0.0,0.0,0.0,0.0,0.0,0.0,0.0,0.0,0.0,0.0,0.0,0.0,0.0,0.0,0.0,0.0,0.0,0.0,0.0,0.0,0.0,0.0,0.0,0.0,0.0,0.0,0.0,0.0,0.0,0.0,0.0,0.0,0.0,0.0,0.0,0.0,0.0,0.0,0.0,0.0,0.0,0.0,0.0,0.0,0.0,0.0,0.0,0.0,0.0,0.0,0.0,0.0,-2.5886,-2.6246,-2.6858,-2.6691,-2.652,-2.6502,-2.5907,-2.4293,-2.1359,-2.0268,0.0,0.0,0.0,0.0,0.0,0.0,0.0,0.0,0.0,0.0,0.0,0.0,0.0,0.0,0.0,0.0,0.0,0.0,0.0,0.0,0.0,0.0,0.0,0.0,0.0,0.0,0.0,0.0,0.0,0.0,0.0,0.0,0.0,0.0,0.0,0.0,0.0,0.0,0.0,0.0,0.0,0.0,0.0,0.0,0.0,0.0,0.0,0.0,0.0,0.0,0.0,0.0,0.0,0.0,0.0,0.0,0.0,0.0,0.0,0.0,0.0,0.0,0.0,0.0,0.0,0.0,0.0,0.0,0.0,0.0,0.0,0.0,0.0,0.0,0.0,0.0,0.0,0.0,0.0,0.0,0.0,0.0,0.0,0.0,0.0,0.0,0.0,0.0,0.0,0.0,0.0,0.0,0.0,0.0,0.0,0.0,0.0,0.0,0.0,0.0,0.0,0.0,-2.5684,-2.694,-2.6991,-2.6809,-2.664,-2.6502,-2.5213,-2.347,-2.1247,-1.9421,0.0,0.0,0.0,0.0,0.0,0.0,0.0,0.0,0.0,0.0,0.0,0.0,0.0,0.0,0.0,0.0,0.0,0.0,0.0,0.0,0.0,0.0,0.0,0.0,0.0,0.0,0.0,0.0,0.0,0.0,0.0,0.0,0.0,0.0,0.0,0.0,0.0,0.0,0.0,0.0,0.0,0.0,0.0,0.0,0.0,0.0,0.0,0.0,0.0,0.0,0.0,0.0,0.0,0.0,0.0,0.0,0.0,0.0,0.0,0.0,0.0,0.0,0.0,0.0,0.0,0.0,0.0,0.0,0.0,0.0,0.0,0.0,0.0,0.0,0.0,0.0,0.0,0.0,0.0,0.0,0.0,0.0,0.0,0.0,0.0,0.0,0.0,0.0,0.0,0.0,0.0,0.0,0.0,0.0,0.0,0.0,0.0,0.0,0.0,0.0,0.0,0.0,-2.53,-2.6495,-2.694,-2.6808,-2.6691,-2.664,-2.5967,-2.4348,-2.1532,0.0,0.0,0.0,0.0,0.0,0.0,0.0,0.0,0.0,0.0,0.0,0.0,0.0,0.0,0.0,0.0,0.0,0.0,0.0,0.0,0.0,0.0,0.0,0.0,0.0,0.0,0.0,0.0,0.0,0.0,0.0,0.0,0.0,0.0,0.0,0.0,0.0,0.0,0.0,0.0,0.0,0.0,0.0,0.0,0.0,0.0,0.0,0.0,0.0,0.0,0.0,0.0,0.0,0.0,0.0,0.0,0.0,0.0,0.0,0.0,0.0,0.0,0.0,0.0,0.0,0.0,0.0,0.0,0.0,0.0,0.0,0.0,0.0,0.0,0.0,0.0,0.0,0.0,0.0,0.0,0.0,0.0,0.0,0.0,0.0,0.0,0.0,0.0,0.0,0.0,0.0,0.0,0.0,0.0,0.0,0.0,0.0,0.0,0.0,0.0,0.0,0.0,-2.3738,-2.5308,-2.649,-2.6956,-2.6859,-2.6742,-2.6674,-2.5748,-2.4116,-2.1593,0.0,0.0,0.0,0.0,0.0,0.0,0.0,0.0,0.0,0.0,0.0,0.0,0.0,0.0,0.0,0.0,0.0,0.0,0.0,0.0,0.0,0.0,0.0,0.0,0.0,0.0,0.0,0.0,0.0,0.0,0.0,0.0,0.0,0.0,0.0,0.0,0.0,0.0,0.0,0.0,0.0,0.0,0.0,0.0,0.0,0.0,0.0,0.0,0.0,0.0,0.0,0.0,0.0,0.0,0.0,0.0,0.0,0.0,0.0,0.0,0.0,0.0,0.0,0.0,0.0,0.0,0.0,0.0,0.0,0.0,0.0,0.0,0.0,0.0,0.0,0.0,0.0,0.0,0.0,0.0,0.0,0.0,0.0,0.0,0.0,0.0,0.0,0.0,0.0,0.0,0.0,0.0,0.0,0.0,0.0,0.0,0.0,0.0,0.0,0.0,0.0,0.0,-2.3821,-2.5828,-2.7151,-2.7007,-2.6942,-2.6809,-2.6606,-2.4281,-2.2373,0.0,0.0,0.0,0.0,0.0,0.0,0.0,0.0,0.0,0.0,0.0,0.0,0.0,0.0,0.0,0.0,0.0,0.0,0.0,0.0,0.0,0.0,0.0,0.0,0.0,0.0,0.0,0.0,0.0,0.0,0.0,0.0,0.0,0.0,0.0,0.0,0.0,0.0,0.0,0.0,0.0,0.0,0.0,0.0,0.0,0.0,0.0,0.0,0.0,0.0,0.0,0.0,0.0,0.0,0.0,0.0,0.0,0.0,0.0,0.0,0.0,0.0,0.0,0.0,0.0,0.0,0.0,0.0,0.0,0.0,0.0,0.0,0.0,0.0,0.0,0.0,0.0,0.0,0.0,0.0,0.0,0.0,0.0,0.0,0.0,0.0,0.0,0.0,0.0,0.0,0.0,0.0,0.0,0.0,0.0,0.0,0.0,0.0,0.0,0.0,0.0,0.0,0.0,-2.3045,-2.552,-2.7201,-2.7007,-2.6725,-2.6469,-2.6262,-2.4835,-2.3037,-2.0941,0.0,0.0,0.0,0.0,0.0,0.0,0.0,0.0,0.0,0.0,0.0,0.0,0.0,0.0,0.0,0.0,0.0,0.0,0.0,0.0,0.0,0.0,0.0,0.0,0.0,0.0,0.0,0.0,0.0,0.0,0.0,0.0,0.0,0.0,0.0,0.0,0.0,0.0,0.0,0.0,0.0,0.0,0.0,0.0,0.0,0.0,0.0,0.0,0.0,0.0,0.0,0.0,0.0,0.0,0.0,0.0,0.0,0.0,0.0,0.0,0.0,0.0,0.0,0.0,0.0,0.0,0.0,0.0,0.0,0.0,0.0,0.0,0.0,0.0,0.0,0.0,0.0,0.0,0.0,0.0,0.0,0.0,0.0,0.0,0.0,0.0,0.0,0.0,0.0,0.0,0.0,0.0,0.0,0.0,0.0,0.0,0.0,0.0,0.0,0.0,0.0,0.0,-2.276,-2.5196,-2.6935,-2.7021,-2.6657,-2.6349,-2.6191,-2.4718,-2.292,-2.0808,0.0,0.0,0.0,0.0,0.0,0.0,0.0,0.0,0.0,0.0,0.0,0.0,0.0,0.0,0.0,0.0,0.0,0.0,0.0,0.0,0.0,0.0,0.0,0.0,0.0,0.0,0.0,0.0,0.0,0.0,0.0,0.0,0.0,0.0,0.0,0.0,0.0,0.0,0.0,0.0,0.0,0.0,0.0,0.0,0.0,0.0,0.0,0.0,0.0,0.0,0.0,0.0,0.0,0.0,0.0,0.0,0.0,0.0,0.0,0.0,0.0,0.0,0.0,0.0,0.0,0.0,0.0,0.0,0.0,0.0,0.0,0.0,0.0,0.0,0.0,0.0,0.0,0.0,0.0,0.0,0.0,0.0,0.0,0.0,0.0,0.0,0.0,0.0,0.0,0.0,0.0,0.0,0.0,0.0,0.0,0.0,0.0,0.0,0.0,0.0,0.0,0.0,-2.2811,-2.4893,-2.6504,-2.7049,-2.6691,-2.6349,-2.626,-2.4236,-2.2362,-2.0839,0.0,0.0,0.0,0.0,0.0,0.0,0.0,0.0,0.0,0.0,0.0,0.0,0.0,0.0,0.0,0.0,0.0,0.0,0.0,0.0,0.0,0.0,0.0,0.0,0.0,0.0,0.0,0.0,0.0,0.0,0.0,0.0,0.0,0.0,0.0,0.0,0.0,0.0,0.0,0.0,0.0,0.0,0.0,0.0,0.0,0.0,0.0,0.0,0.0,0.0,0.0,0.0,0.0,0.0,0.0,0.0,0.0,0.0,0.0,0.0,-2.5909,0.0,0.0,0.0,0.0,0.0,0.0,0.0,0.0,0.0,0.0,0.0,0.0,0.0,0.0,0.0,0.0,0.0,0.0,0.0,0.0,0.0,0.0,0.0,0.0,0.0,0.0,0.0,0.0,0.0,0.0,0.0,0.0,0.0,0.0,0.0,0.0,0.0,0.0,0.0,0.0,0.0,-2.2742,-2.4809,-2.6446,-2.7049,-2.6691,-2.6243,-2.5866,-2.4521,-2.2739,-2.0478,-1.9401,0.0,0.0,0.0,0.0,0.0,0.0,0.0,0.0,0.0,0.0,0.0,0.0,0.0,0.0,0.0,0.0,0.0,0.0,0.0,0.0,0.0,0.0,0.0,0.0,0.0,0.0,0.0,0.0,0.0,0.0,0.0,0.0,0.0,0.0,0.0,0.0,0.0,0.0,0.0,0.0,0.0,0.0,0.0,0.0,0.0,0.0,0.0,0.0,0.0,0.0,0.0,0.0,0.0,0.0,0.0,0.0,0.0,0.0,0.0,0.0,-2.6697,0.0,0.0,0.0,0.0,0.0,0.0,0.0,0.0,0.0,0.0,0.0,0.0,0.0,0.0,0.0,0.0,0.0,0.0,0.0,0.0,0.0,0.0,0.0,0.0,0.0,0.0,0.0,0.0,0.0,0.0,0.0,0.0,0.0,0.0,0.0,0.0,0.0,0.0,0.0,0.0,-2.266,-2.4511,-2.6018,-2.682,-2.6487,-2.6031,-2.5591,-2.442,-2.3008,-2.1417,-1.9924,0.0,0.0,0.0,0.0,0.0,0.0,0.0,0.0,0.0,0.0,0.0,0.0,0.0,0.0,0.0,0.0,0.0,0.0,0.0,0.0,0.0,0.0,0.0,0.0,0.0,0.0,0.0,0.0,0.0,0.0,0.0,0.0,0.0,0.0,0.0,0.0,0.0,0.0,0.0,0.0,0.0,0.0,0.0,0.0,0.0,0.0,0.0,0.0,0.0,0.0,0.0,0.0,0.0,-2.9346,-2.9292,-2.902,-2.9156,-2.9114,-2.8908,-2.867,-2.869,-2.8744,-2.7179,0.0,0.0,0.0,0.0,0.0,0.0,0.0,0.0,0.0,0.0,0.0,0.0,0.0,0.0,0.0,0.0,0.0,0.0,0.0,0.0,0.0,0.0,0.0,0.0,-2.5533,-2.4974,0.0,0.0,0.0,0.0,0.0,0.0,0.0,0.0,0.0,0.0,0.0,0.0,-2.2747,-2.4313,-2.5635,-2.6505,-2.6244,-2.585,-2.5424,-2.4413,-2.3375,-2.2381,-2.0657,-1.9034,0.0,0.0,0.0,0.0,0.0,0.0,0.0,0.0,0.0,0.0,0.0,0.0,0.0,0.0,0.0,0.0,0.0,0.0,0.0,0.0,0.0,0.0,0.0,0.0,0.0,0.0,0.0,0.0,0.0,0.0,0.0,0.0,-3.0041,-2.9401,0.0,0.0,0.0,0.0,0.0,0.0,0.0,0.0,0.0,0.0,0.0,0.0,0.0,-3.0338,-3.0457,-3.264,-3.3378,-3.2659,-3.4157,-3.4079,-3.2633,-3.3392,-3.3334,-3.2555,-3.1672,0.0,-2.7948,-2.7644,0.0,0.0,0.0,0.0,0.0,0.0,0.0,0.0,0.0,0.0,0.0,0.0,0.0,0.0,0.0,0.0,0.0,0.0,0.0,0.0,0.0,0.0,-2.7163,-2.6565,-2.6437,-2.6345,0.0,-2.4273,-2.2726,-2.2526,-2.1847,0.0,0.0,0.0,0.0,0.0,0.0,0.0,-2.326,-2.4752,-2.5841,-2.6162,-2.6067,-2.583,-2.5424,-2.515,-2.3989,-2.1683,-2.1864,-2.1146,-1.9085,-1.7761,0.0,0.0,0.0,0.0,0.0,0.0,0.0,0.0,0.0,0.0,0.0,0.0,0.0,0.0,0.0,0.0,0.0,0.0,0.0,0.0,0.0,0.0,0.0,0.0,0.0,0.0,0.0,0.0,0.0,-3.02,-3.1388,-3.1018,-3.1295,-3.0995,0.0,0.0,0.0,0.0,0.0,0.0,0.0,0.0,0.0,-3.1044,-3.1807,-3.2457,-3.2996,-3.3587,-3.3704,-3.3362,-3.4094,-3.4048,-3.3307,-3.3695,-3.3668,-3.3262,-3.2787,-3.1609,-2.996,-2.8848,-2.8427,-2.8368,0.0,0.0,0.0,0.0,-2.6193,-2.6631,-2.7444,-2.7514,0.0,-2.7049,0.0,0.0,0.0,0.0,0.0,0.0,0.0,0.0,0.0,0.0,0.0,-2.7923,-2.7959,-2.7959,-2.7959,-2.6651,-2.5105,0.0,-2.3397,-2.2627,-2.0382,0.0,0.0,0.0,0.0,-2.3072,-2.4289,-2.5478,-2.6182,-2.6163,-2.6122,-2.5868,-2.5227,-2.5048,-2.4319,-2.2752,-2.2149,-2.1272,-1.9919,-1.8916,-1.8007,0.0,0.0,0.0,0.0,0.0,0.0,0.0,0.0,0.0,0.0,0.0,0.0,0.0,0.0,0.0,0.0,0.0,0.0,0.0,0.0,0.0,0.0,0.0,0.0,0.0,0.0,0.0,0.0,-3.1193,-3.2423,-3.2423,-3.2628,-3.2175,0.0,0.0,0.0,0.0,0.0,0.0,-3.0459,-3.1102,-3.2036,-3.3284,-3.3752,-3.4326,-3.5022,-3.4774,-3.4579,-3.4396,-3.4579,-3.4417,-3.4006,-3.422,-3.4198,-3.3955,-3.3644,-3.2975,-3.2009,-3.0302,-2.9704,-2.9759,-2.8504,-2.7886,-2.7701,-2.7701,-2.7829,-2.8096,-2.8681,-2.8891,-2.8834,-2.8466,0.0,-2.6772,-2.5312,0.0,0.0,0.0,0.0,-2.7109,-2.7662,-2.7952,-2.8264,-2.8858,-2.9005,-2.8994,-2.8982,-2.8406,-2.7314,0.0,-2.5096,-2.4381,-2.1703,0.0,0.0,0.0,0.0,-2.4112,-2.5229,-2.6144,-2.6497,-2.6109,-2.607,-2.5779,-2.5064,-2.4729,-2.4237,-2.3455,-2.235,-2.1388,-2.0667,-2.0156,-1.9321,-1.8069,0.0,0.0,0.0,0.0,0.0,0.0,0.0,0.0,0.0,0.0,0.0,0.0,0.0,0.0,0.0,0.0,0.0,0.0,0.0,0.0,0.0,0.0,0.0,0.0,0.0,0.0,0.0,0.0,0.0,-3.3339,-3.407,0.0,0.0,0.0,0.0,-3.3142,-3.3131,-3.3161,-3.32,-3.3258,-3.3317,-3.3395,-3.4995,-3.5893,-3.5932,-3.7534,-3.7926,-3.7105,-3.7946,-3.7476,-3.5893,-3.6713,-3.6607,-3.5726,-3.4752,-3.3835,-3.2952,-3.1895,-3.0513,-2.9047,-2.8893,-2.8363,-2.7701,-2.7701,-2.8172,-2.8853,-2.8891,-2.8891,-2.9032,-2.9822,-2.9478,-2.8758,-2.8649,-2.7987,0.0,0.0,-2.7494,-2.7999,-2.7834,-2.8374,-2.895,-2.8987,-2.9005,-2.8975,-2.8917,-2.8809,-2.8488,0.0,-2.672,-2.5825,-2.4825,0.0,-2.4468,-2.4335,-2.4874,-2.5422,-2.5809,-2.6569,-2.6707,-2.5813,-2.5738,-2.5532,-2.5045,-2.4349,-2.3629,-2.2878,-2.2718,-2.2303,-2.157,-2.1494,-2.112,-2.0353,-1.8453,0.0,0.0,0.0,0.0,0.0,0.0,0.0,0.0,0.0,0.0,0.0,0.0,0.0,0.0,0.0,0.0,0.0,0.0,0.0,0.0,0.0,0.0,0.0,0.0,0.0,0.0,0.0,0.0,-3.4934,-3.5785,0.0,-3.438,-3.4234,-3.4004,-3.3446,-3.34,-3.363,-3.4217,-3.4763,-3.5329,-3.5896,-3.6501,-3.7106,-3.7672,-3.7731,-3.7614,-3.7301,-3.7614,-3.7145,-3.6012,-3.6324,-3.6282,-3.5944,-3.5589,-3.4912,-3.4024,-3.3583,-3.1987,-2.989,-3.0432,-3.0087,-2.9314,-2.9314,-2.9492,-2.9746,-2.9747,-2.974,-2.9707,-2.9433,-2.9091,-2.8752,-2.8711,-2.8403,-2.8116,-2.8428,-2.8685,-2.8843,-2.8614,-2.8785,-2.9005,-2.9005,-2.9005,-2.8982,-2.8917,-2.8846,-2.8694,-2.8367,-2.7586,-2.6531,-2.5143,-2.5189,-2.5383,-2.5293,-2.5791,-2.6381,-2.6984,-2.7317,-2.7195,-2.6436,-2.6228,-2.5707,-2.4588,-2.4125,-2.3377,-2.2169,-2.2057,-2.1708,-2.0916,-2.1354,-2.1042,-1.9871,-1.9576,-1.8269,0.0,0.0,0.0,0.0,0.0,0.0,0.0,0.0,0.0,0.0,0.0,0.0,0.0,0.0,0.0,0.0,0.0,0.0,0.0,0.0,0.0,0.0,0.0,0.0,0.0,-3.3738,-3.5223,-3.5791,-3.689,-3.7043,-3.5658,-3.5808,-3.5741,-3.5166,-3.5126,-3.5376,-3.5975,-3.656,-3.7145,-3.7711,-3.7458,-3.7711,-3.8591,-3.7731,-3.7301,-3.7301,-3.7301,-3.6833,-3.5992,-3.5992,-3.5992,-3.5992,-3.5981,-3.5455,-3.4606,-3.4777,-3.3262,-3.089,-3.1399,-3.1046,-3.0227,-3.0227,-3.024,-3.0226,-3.0227,-3.024,-3.015,-2.9569,-2.9291,-2.9193,-2.9152,-2.9075,-2.9087,-2.9401,-2.9436,-2.9355,-2.916,-2.9055,-2.9005,-2.9005,-2.9005,-2.8982,-2.8881,-2.8834,-2.8773,-2.8669,-2.8202,-2.7447,-2.6339,-2.644,-2.6647,-2.6548,-2.6847,-2.7214,-2.7663,-2.7701,-2.7474,-2.6907,-2.6641,-2.5911,-2.4461,-2.3927,-2.3122,-2.186,-2.1324,-2.0819,-2.0282,-2.072,-2.0439,-1.9249,-1.9575,-1.8561,-1.6143,0.0,0.0,0.0,0.0,0.0,0.0,0.0,0.0,0.0,0.0,0.0,0.0,0.0,0.0,0.0,0.0,0.0,0.0,0.0,0.0,0.0,0.0,0.0,-3.1996,-3.4252,-3.586,-3.5903,-3.743,-3.8141,-3.7266,-3.8,-3.8531,-3.8495,-3.8495,-3.8531,-3.8594,-3.8591,-3.8591,-3.8591,-3.777,-3.775,-3.863,-3.7809,-3.7379,-3.734,-3.734,-3.6872,-3.5992,-3.5992,-3.5992,-3.5991,-3.5934,-3.5427,-3.4706,-3.541,-3.4229,-3.1922,-3.1727,-3.1092,-3.0318,-3.0292,-3.0292,-3.0292,-3.0292,-3.0292,-3.0292,-3.0292,-3.0266,-3.0195,-3.0188,-3.0194,-3.0157,-2.9964,-2.9751,-2.957,-2.9355,-2.916,-2.9017,-2.9005,-2.9005,-2.897,-2.8822,-2.8798,-2.8761,-2.8625,-2.86,-2.86,-2.86,-2.8484,-2.8353,-2.8214,-2.8081,0.0,-2.773,-2.7701,-2.7552,-2.7133,-2.6858,-2.6117,-2.4681,-2.3731,-2.2793,-2.1886,-2.0557,-1.9815,-1.9815,-1.9815,-1.9451,-1.8741,-1.8469,-1.7823,-1.6804,0.0,0.0,0.0,0.0,0.0,0.0,0.0,0.0,0.0,0.0,0.0,0.0,0.0,0.0,0.0,0.0,0.0,0.0,0.0,0.0,0.0,-3.2596,-3.4395,-3.4651,-3.5824,-3.7138,-3.8412,-3.9531,-3.9887,-3.9071,-3.9212,-3.9125,-3.8531,-3.8496,-3.8514,-3.8531,-3.856,-3.8591,-3.8591,-3.8376,-3.865,-3.9468,-3.9234,-3.8824,-3.824,-3.824,-3.7458,-3.5992,-3.5992,-3.5992,-3.5992,-3.5983,-3.5843,-3.5627,-3.5772,-3.4697,-3.29,-3.2759,-3.1777,-3.0428,-3.0348,-3.0292,-3.0305,-3.0299,-3.0305,-3.0305,-3.0299,-3.0286,-3.0266,-3.0221,-3.0207,-3.0159,-2.9953,-2.9864,-2.9734,-2.9395,-2.9251,-2.9174,-2.9033,-2.9005,-2.897,-2.8822,-2.8798,-2.8761,-2.8625,-2.86,-2.86,-2.86,-2.8484,-2.8353,-2.8214,-2.8081,0.0,-2.773,-2.7701,-2.7537,-2.7086,-2.6708,-2.578,-2.4096,-2.3351,-2.2275,-2.0623,-2.0067,-1.9815,-1.9815,-1.9815,-1.9688,-1.9499,-1.9233,-1.8392,0.0,0.0,0.0,0.0,0.0,0.0,0.0,0.0,0.0,0.0,0.0,0.0,0.0,0.0,0.0,0.0,0.0,0.0,0.0,0.0,0.0,0.0,-3.4793,-3.645,-3.7179,-3.7732,-3.8421,-3.9441,-4.0339,-4.067,-4.0206,-4.0186,-4.0013,-3.9544,-3.9506,-3.9518,-3.9505,-3.957,-3.9605,-3.9605,-3.9282,-3.9507,-4.0346,-3.9644,-3.906,-3.8591,-3.824,-3.7321,-3.5992,-3.5992,-3.5992,0.0,-3.5992,-3.5992,-3.5971,-3.5561,-3.4597,0.0,0.0,0.0,0.0,0.0,-3.0342,-3.0342,-3.0336,-3.0343,-3.0342,-3.0336,-3.0324,-3.0292,-3.0248,-3.0247,-3.0214,-3.006,-2.9958,-2.9853,-2.9607,-2.9494,-2.9375,-2.9163,-2.9127,-2.9071,-2.8893,-2.8822,-2.8761,-2.8662,-2.8625,0.0,-2.86,-2.8536,-2.8432,-2.83,-2.8178,-2.8025,-2.785,-2.7745,-2.7567,-2.7198,-2.6874,-2.6017,-2.4464,-2.3609,0.0,0.0,0.0,-1.978,-1.9554,-1.9493,0.0,0.0,0.0,0.0,0.0,0.0,0.0,0.0,-1.7238,-1.7091,0.0,0.0,0.0,0.0,0.0,0.0,0.0,0.0,0.0,0.0,0.0,0.0,0.0,0.0,0.0,0.0,-3.6922,-3.7723,-3.9288,-3.9578,-3.9655,-3.9655,-4.0322,-4.0801,-4.0807,-4.0854,-4.0891,-4.0894,-4.0905,-4.0893,-4.0894,0.0,0.0,0.0,0.0,-4.0274,-4.0955,-3.9492,-3.8652,-3.8436,-3.7674,-3.6833,-3.5992,-3.5992,-3.5992,-3.5992,-3.5992,-3.5934,-3.5797,-3.5018,-3.4139,-3.3235,-3.3008,-3.193,-3.0487,-3.0428,-3.0416,-3.0404,-3.0404,0.0,0.0,-3.0404,-3.0367,-3.031,-3.031,-3.0305,-3.0286,-3.0227,-3.0085,-2.992,-2.9921,-2.9769,-2.9589,-2.9385,-2.9334,-2.9262,-2.8991,-2.8893,-2.8822,-2.8737,-2.8662,-2.8612,-2.8612,-2.86,-2.8549,-2.8406,-2.83,-2.8178,-2.8011,-2.785,-2.7659,-2.7419,0.0,0.0,-2.533,-2.4246,-2.3219,-2.2309,-2.091,-1.9882,-1.9348,-1.9267,-1.9483,-2.0013,-1.9704,-1.9791,-2.0337,-1.9904,-1.9644,-1.9503,-1.7961,-1.7632,0.0,0.0,0.0,0.0,0.0,0.0,0.0,0.0,0.0,0.0,0.0,0.0,0.0,0.0,0.0,-3.6504,-3.7861,-3.8993,-3.943,-4.012,-4.0545,-4.0545,-4.0712,-4.0794,-4.0801,-4.0818,-4.0849,-4.0906,-4.0902,-4.0896,-4.0906,-4.0916,-4.0932,-4.0991,-4.0857,-4.0566,-4.0148,-3.9816,-3.8935,-3.7543,0.0,0.0,-3.5992,-3.5992,-3.5992,-3.5992,-3.5992,-3.5602,-3.494,-3.4764,-3.3768,-3.2263,-3.1497,-3.0895,-3.0496,-3.0496,-3.0449,-3.0404,-3.0404,-3.0404,-3.0404,-3.0404,-3.0398,-3.0373,-3.0316,-3.0304,0.0,-3.0292,-3.0214,-3.0099,-2.9946,-2.9878,-2.9777,-2.9598,-2.9551,-2.9474,-2.9198,-2.9123,-2.9052,-2.8834,-2.8761,-2.8749,-2.87,-2.8637,-2.8549,-2.8406,-2.8367,-2.8273,-2.8025,-2.7968,-2.781,-2.7434,-2.7005,-2.6404,-2.5513,-2.474,-2.3825,-2.2671,-2.152,-2.0652,-2.0108,-2.0474,-2.054,-2.0258,-2.0684,-2.0591,-1.9909,-2.0607,-2.0569,-1.9811,-1.9046,-1.8792,0.0,0.0,0.0,0.0,0.0,0.0,0.0,0.0,0.0,0.0,0.0,-3.4308,-3.5155,0.0,-3.7633,-3.8155,-3.915,-3.9884,-3.9984,-4.0449,-4.0797,-4.0797,-4.0797,-4.0809,-4.08,-4.08,-4.0818,-4.0846,-4.0849,-4.0854,-4.0854,-4.0844,-4.0688,-4.0306,-4.0352,-4.0017,-3.9219,-3.8805,-3.8157,-3.7295,-3.6866,-3.6416,-3.6003,-3.6003,-3.6003,-3.6003,-3.6003,-3.5515,-3.4636,-3.3758,-3.2645,-3.1453,-3.0989,-3.0723,-3.0586,-3.0518,-3.0487,-3.0449,-3.0408,-3.0404,-3.0404,-3.0404,-3.0404,-3.0379,-3.0367,-3.0348,-3.0342,-3.0311,-3.0286,-3.0228,-3.0121,-3.0082,-2.9988,-2.9801,-2.9741,-2.9689,-2.9446,-2.9285,-2.9155,-2.903,-2.8887,-2.8785,-2.8761,-2.87,-2.8625,-2.851,-2.8432,-2.834,-2.8205,-2.8081,-2.7868,-2.7539,-2.7101,-2.6639,-2.6101,-2.519,-2.4239,-2.326,-2.2704,-2.2329,-2.2161,-2.2313,-2.2118,-2.1513,-2.1729,-2.1423,-2.0541,-2.1063,-2.1073,-2.0592,-2.0347,-1.9884,0.0,0.0,0.0,0.0,0.0,0.0,0.0,-3.2302,-3.32,-3.4701,-3.5668,-3.6665,-3.8008,-3.85,-3.8961,-3.9724,-4.0082,-4.0292,-4.0372,-4.0559,-4.072,-4.0726,-4.0778,-4.0797,-4.0797,-4.0797,-4.0797,-4.0797,-4.0797,-4.0797,-4.0797,-4.0639,-4.0261,-3.9617,-3.9548,-3.9103,-3.8232,-3.7597,-3.7206,-3.7029,-3.6325,-3.5992,-3.5991,-3.5991,-3.5991,-3.5972,-3.564,-3.5092,-3.4311,-3.2573,-3.148,-3.0894,-3.0891,-3.0837,-3.072,-3.0598,-3.0518,-3.0496,-3.0439,-3.0402,-3.0404,-3.0404,-3.0404,-3.0404,-3.0404,-3.0404,-3.0398,-3.0342,-3.031,-3.0298,-3.0311,-3.0254,-3.0174,-3.0015,-2.9981,-2.9921,-2.9697,-2.9465,-2.9264,-2.923,-2.9007,-2.8834,-2.8822,-2.8767,-2.8706,-2.8637,-2.851,-2.8437,-2.8393,-2.8205,-2.7979,-2.7745,-2.7307,-2.6891,-2.6537,-2.5624,-2.4772,-2.4015,-2.3949,-2.3934,-2.4,-2.3819,-2.3457,-2.2964,-2.2785,-2.2427,-2.1825,-2.1799,-2.1711,-2.1585,-2.1628,-2.0976,-3.2513,-3.1433,-3.0546,-3.1651,-3.2002,-3.2596,0.0,-3.5064,-3.5368,-3.6291,-3.7212,-3.7904,-3.8085,-3.8833,-3.9467,-3.9698,-3.9754,-3.9821,-3.9947,-4.0201,-4.0386,-4.0438,-4.066,-4.0797,-4.0797,-4.0797,-4.0797,-4.0797,-4.0797,-4.0797,-4.0797,-4.008,-3.9633,-3.9596,-3.8863,-3.8075,-3.7255,-3.7237,-3.6823,-3.6067,-3.6016,-3.5993,-3.5991,-3.5991,-3.5991,-3.5913,-3.437,-3.3647,-3.3413,-3.1734,-3.0972,-3.0894,-3.0894,-3.0892,-3.0868,-3.072,-3.061,-3.049,-3.0496,-3.0455,-3.0404,-3.0404,-3.0404,-3.0404,-3.0404,-3.0404,-3.0404,-3.0398,-3.0342,-3.0304,-3.0304,-3.0292,-3.0279,-3.0266,-3.026,-3.0187,-2.992,-2.9693,-2.9495,-2.9316,-2.9127,-2.897,-2.8905,-2.8893,-2.8827,-2.8724,-2.8625,-2.8536,-2.8424,-2.8367,-2.83,-2.8146,-2.7567,-2.6924,-2.6292,-2.612,-2.5737,-2.4993,-2.479,-2.446,-2.4017,-2.3819,-2.3736,-2.3852,-2.3835,-2.377,-2.3687,-2.3583,-2.3214,-2.2632,-2.258,-2.2057,-3.2943,-3.2447,-3.2167,-3.3054,-3.3628,-3.4352,-3.5855,-3.6569,-3.6983,-3.7318,-3.8077,-3.8675,-3.8675,-3.9008,-3.9305,-3.9452,-3.9524,-3.9679,-3.9974,-4.0184,-4.0178,-3.9865,-3.9919,-4.0192,-4.0752,-4.0797,-4.0797,-4.0797,-4.0797,-4.0797,-4.0797,-4.0448,-3.9795,-3.8819,-3.8471,-3.7642,-3.63,-3.6345,-3.6198,-3.5832,-3.5903,-3.5933,-3.5934,-3.5976,-3.5995,-3.5898,-3.4159,-3.3397,-3.3261,-3.1581,-3.0898,-3.0897,-3.0897,-3.0897,-3.0877,-3.0749,-3.0667,-3.0606,-3.0577,-3.0539,-3.0511,-3.0462,-3.0465,-3.0455,-3.0416,-3.0396,-3.0408,-3.041,-3.0379,-3.0367,-3.0367,-3.0329,-3.0305,-3.0305,-3.0305,-3.0273,-3.0154,-2.9943,-2.9729,-2.9561,-2.9334,-2.9138,-2.8987,-2.8929,-2.8893,-2.8815,-2.8737,-2.865,-2.8587,-2.8471,-2.8286,-2.7989,-2.7657,-2.718,-2.6607,-2.6486,-2.6229,-2.5773,-2.5653,-2.552,-2.5292,-2.5189,-2.4991,-2.4646,-2.4646,-2.4431,-2.4,-2.3859,-2.3664,-2.3377,-2.3269,-2.3014,-3.2883,-3.2928,-3.325,-3.3746,-3.4731,-3.5775,-3.6653,-3.7539,-3.8201,-3.8228,-3.8692,-3.9101,-3.9101,-3.9101,-3.9142,-3.9232,-3.9326,-3.9488,-3.9772,-4.0023,-4.0018,-3.9596,-3.9656,-3.9907,-4.0378,-4.0398,-4.0501,-4.0759,-4.0752,-4.0752,-4.0778,-4.0539,-3.9741,-3.8227,-3.7984,-3.7172,-3.5698,-3.5714,-3.5752,-3.5778,-3.5836,-3.5878,-3.5862,-3.5948,-3.5974,-3.5877,-3.414,-3.3398,-3.3262,-3.1582,-3.0898,-3.0898,-3.0898,-3.0898,-3.0898,-3.0788,-3.0734,-3.068,-3.0645,-3.0614,-3.0582,-3.0531,-3.0516,-3.0493,-3.0444,-3.0431,-3.0422,-3.0408,-3.0402,-3.0427,-3.041,-3.0359,-3.0328,-3.0342,-3.0336,-3.0318,-3.0305,-3.0095,-2.9904,-2.9792,-2.957,-2.9355,-2.9188,-2.9075,-2.9014,-2.9014,-2.8863,-2.8731,-2.8694,-2.8562,-2.8295,-2.7904,-2.7757,-2.7519,-2.702,-2.6791,-2.659,-2.6417,-2.6311,-2.6274,-2.6274,-2.6274,-2.6008,-2.5443,-2.5426,-2.516,-2.4613,-2.4424,-2.4258,-2.4141,-2.3943,-2.3788,-3.2529,-3.2897,-3.3547,-3.3754,-3.5283,-3.6817,-3.7116,-3.8111,-3.8984,-3.905,-3.9082,-3.9101,-3.9101,-3.9101,-3.9101,-3.9115,-3.9115,-3.9129,-3.9142,-3.9531,-3.984,-3.9874,-4.0292,-4.0282,0.0,-3.9437,-3.9798,-4.0642,-4.0635,-4.0628,-4.07,-3.9888,-3.9025,-3.8125,-3.7289,-3.6446,-3.5604,-3.5605,-3.5645,-3.5711,-3.5778,-3.58,-3.5816,-3.5871,-3.5908,-3.5819,-3.4136,-3.3398,-3.3262,-3.1582,-3.0898,-3.0898,-3.0898,-3.0898,-3.0898,-3.0898,-3.0815,-3.0693,-3.0703,-3.0653,-3.0606,-3.0606,-3.0544,-3.0504,-3.0499,-3.0499,-3.0474,-3.0422,-3.0458,-3.0488,-3.0421,-3.0408,-3.0406,-3.039,-3.0404,-3.0373,-3.031,-3.0131,-3.0011,-2.9992,-2.9836,-2.9672,-2.9587,-2.9427,-2.9283,-2.9283,-2.9064,-2.8858,-2.8706,-2.865,-2.844,-2.8041,-2.7982,-2.7826,-2.7426,-2.7082,-2.6888,-2.6888,-2.6624,-2.6485,-2.6485,-2.6485,-2.6434,-2.6262,-2.6262,-2.6209,-2.6119,-2.5797,-2.5427,-2.504,-2.4588,-2.4235,-3.2666,-3.3086,-3.365,-3.5049,-3.59,-3.6611,-3.7369,-3.8059,-3.8548,-3.856,-3.8401,-3.8405,-3.8943,-3.8632,-3.8469,-3.9008,-3.9101,-3.9151,-3.935,-3.9508,-3.946,-3.9077,-3.929,-3.9133,-3.8298,0.0,0.0,-3.9817,-3.983,-4.0054,-4.0609,-4.0363,-3.9546,-3.8144,-3.781,-3.7,-3.5617,-3.5601,-3.5604,-3.5635,-3.5664,-3.5687,-3.5723,-3.5758,-3.5827,-3.5839,-3.4695,-3.3891,-3.3318,-3.2167,-3.1386,-3.0898,-3.0898,-3.0898,-3.0898,-3.0898,-3.0879,-3.0837,-3.0836,-3.0798,-3.0735,-3.0689,-3.0626,-3.0567,-3.0572,-3.0545,-3.05,-3.0474,-3.0474,-3.0499,-3.0477,-3.0477,-3.0458,-3.0406,-3.04,-3.0389,-3.0379,-3.0279,-3.0163,-3.0032,-2.9954,-2.9859,-2.9686,-2.9616,-2.9523,-2.9394,-2.9086,-2.887,-2.8773,-2.8712,-2.8619,-2.8474,-2.8362,-2.8142,-2.7808,-2.7409,-2.7098,-2.6904,-2.664,-2.6502,-2.6502,-2.6502,-2.6485,-2.6434,-2.6434,-2.6416,-2.6398,-2.5957,-2.5703,-2.5554,-2.4847,-2.4482,-3.2796,-3.351,-3.4229,-3.553,-3.6158,-3.6626,-3.7309,-3.7754,-3.8023,-3.7913,-3.7708,-3.7657,-3.8044,-3.7711,-3.7659,-3.8461,-3.8591,-3.8767,-3.9261,-3.9401,-3.9332,-3.8961,-3.9093,-3.8928,-3.8144,-3.8476,-3.8799,-3.8934,-3.946,-3.9885,-4.0123,-4.0135,-3.9492,-3.8104,-3.7757,-3.6948,-3.5579,-3.556,-3.5566,-3.556,-3.559,-3.5611,-3.5657,-3.5659,-3.5702,-3.5752,-3.4906,-3.4088,-3.3305,-3.2429,-3.1595,-3.0896,-3.0896,-3.0897,-3.0898,-3.0897,-3.0897,-3.0898,-3.0898,-3.0856,-3.0781,-3.0757,-3.0681,-3.0649,-3.0642,-3.0587,-3.0543,-3.054,-3.0535,-3.0525,-3.0509,-3.0509,-3.049,-3.0458,-3.0433,-3.0447,-3.0444,-3.0377,-3.0297,-3.0164,-3.011,-3.0066,-2.9943,-2.9807,-2.9625,-2.9424,-2.916,-2.894,-2.8846,-2.8785,-2.8737,-2.8694,-2.8569,-2.8427,-2.8219,-2.7823,-2.7467,-2.7192,-2.6907,-2.6708,-2.6589,-2.6572,-2.6555,-2.6537,-2.6537,-2.652,-2.6502,-2.6225,-2.5941,-2.5649,-2.5137,-2.4744,-3.2971,-3.4076,-3.5197,-3.5249,-3.6075,-3.688,-3.696,-3.725,-3.7416,-3.7112,-3.6989,-3.6857,-3.6533,-3.6473,-3.675,-3.7581,-3.7728,-3.8038,-3.8886,-3.921,-3.9401,-3.9464,-3.9648,-3.9528,-3.8909,-3.8164,-3.7791,-3.8043,0.0,-4.0088,-3.9406,-3.9319,-3.8892,-3.8027,-3.7161,-3.6308,-3.5519,-3.55,-3.5501,-3.5509,-3.556,-3.5591,-3.5598,-3.5582,-3.5596,-3.5548,-3.4757,-3.3981,-3.3228,-3.235,-3.1555,-3.0893,-3.0894,-3.0894,-3.0894,-3.0894,-3.0894,-3.0895,-3.0898,-3.0856,-3.0804,-3.0804,-3.0765,-3.0713,-3.0713,-3.0656,-3.0616,-3.0614,-3.0606,-3.0583,-3.051,-3.051,-3.0501,-3.049,-3.0504,-3.0504,-3.0504,-3.0458,-3.0417,-3.0417,-3.0352,-3.031,-3.031,-2.9973,-2.9634,-2.9444,-2.9235,-2.9055,-2.8929,-2.8846,-2.8785,-2.8706,-2.8706,-2.8687,-2.8612,-2.8295,-2.7992,-2.7745,-2.74,-2.7053,-2.6725,-2.6725,-2.6674,-2.6623,-2.6623,-2.6589,-2.652,-2.6589,-2.6225,-2.5481,-2.5462,-2.5075,-3.4008,-3.4826,-3.5318,-3.587,-3.6229,-3.6451,-3.6474,-3.6363,-3.6232,-3.6148,-3.545,-3.511,-3.5918,-3.6095,-3.6472,-3.752,-3.8208,-3.867,-3.8888,-3.8979,-3.9031,-3.9045,-3.9266,-3.912,-3.8312,-3.8743,-3.8684,0.0,-3.825,-3.9092,-4.0138,-3.9631,-3.8892,-3.8027,-3.7161,-3.6308,-3.5519,-3.55,-3.5507,-3.5501,-3.5527,-3.5534,-3.5534,-3.5541,-3.5552,-3.5551,-3.47,-3.3917,-3.3164,-3.2348,-3.1514,-3.0765,-3.0864,-3.0892,-3.0894,-3.0891,-3.0892,-3.0895,-3.0896,-3.0897,-3.0879,-3.0879,-3.0836,-3.076,-3.076,-3.0734,-3.0669,-3.0664,-3.0675,-3.0652,-3.0587,-3.0572,-3.0552,-3.0511,-3.0505,-3.05,-3.0509,-3.0499,-3.0474,-3.0474,-3.0422,-3.0375,-3.0375,-3.0032,-2.9767,-2.9706,-2.9404,-2.9141,-2.8987,-2.8917,-2.887,-2.8839,-2.881,-2.8761,-2.8749,-2.8438,-2.8125,-2.7855,-2.7532,-2.7211,-2.6925,-2.6908,-2.6925,-2.6892,-2.6892,-2.6893,-2.6859,-2.6893,-2.6792,-2.6573,-2.6279,-2.587,-3.4634,-3.5297,-3.5759,-3.6176,-3.6301,-3.6215,-3.5887,-3.5677,-3.539,-3.4861,-3.4235,-3.3958,-3.4454,-3.4978,-3.5669,-3.667,-3.7647,-3.8416,-3.8796,-3.8866,-3.8881,-3.891,-3.9031,-3.8984,-3.8605,-3.8758,-3.8757,-3.8445,-3.8726,-3.9232,-3.9931,-3.9154,-3.8466,-3.7966,-3.6767,-3.5928,-3.55,-3.55,-3.55,-3.55,-3.55,-3.55,-3.5481,-3.5096,-3.4957,-3.4934,0.0,-3.3276,-3.2546,-3.213,-3.1456,-3.0702,-3.0816,-3.0866,-3.0869,-3.0866,-3.0866,-3.0869,-3.0869,-3.0869,-3.085,-3.0893,-3.0878,-3.0839,-3.0839,-3.0791,-3.0749,-3.0749,-3.0718,-3.0694,-3.0655,-3.0636,-3.0635,-3.0552,-3.054,-3.053,-3.054,-3.0515,-3.0495,-3.0504,-3.0469,-3.0439,-3.0439,-3.017,-2.9969,-2.9946,-2.9652,-2.9395,-2.9198,-2.9071,-2.8964,-2.8917,-2.887,-2.8834,-2.8798,-2.8626,-2.8347,-2.7926,-2.7722,-2.7444,-2.7007,-2.6991,-2.6991,-2.6991,-2.6991,-2.6991,-2.6991,-2.6991,-2.6909,-2.6742,-2.6314,-2.5906,-3.5073,-3.5629,-3.6187,-3.6276,-3.628,-3.6069,-3.5352,-3.5111,-3.4708,-3.3576,-3.3264,-3.309,-3.2792,-3.3629,-3.4656,-3.5561,-3.659,-3.7624,-3.8648,-3.87,-3.8678,-3.8848,-3.8881,-3.8964,-3.9192,-3.854,-3.8452,-3.931,-3.9637,-3.9643,-3.9234,-3.837,-3.7786,-3.7556,-3.6128,-3.5412,-3.5467,-3.5467,-3.5467,-3.5467,-3.5467,-3.5429,-3.5294,-3.4532,-3.4115,-3.3962,-3.309,0.0,-3.1772,-3.1715,-3.129,-3.0672,-3.076,-3.0794,-3.0794,-3.0798,-3.0799,-3.0799,-3.0799,-3.08,-3.0803,-3.0871,-3.0893,-3.0894,-3.0894,-3.0859,-3.0818,-3.0818,-3.077,-3.0726,-3.0721,-3.07,-3.0697,-3.0622,-3.0602,-3.06,-3.06,-3.0559,-3.0515,-3.0505,-3.0514,-3.0509,-3.0509,-3.0328,-3.0182,-3.0129,-2.9943,-2.9722,-2.9447,-2.9251,-2.91,-2.8952,-2.8929,-2.8905,-2.8822,-2.8822,-2.8594,-2.8024,-2.7996,-2.7742,-2.712,-2.7104,-2.7087,-2.7072,-2.7056,-2.704,-2.704,-2.704,-2.6859,-2.6504,-2.6156,-2.5779,-3.5487,-3.583,-3.6062,-3.6187,-3.6127,-3.59,-3.5328,-3.4636,-3.3911,-3.3133,-3.2497,-3.214,-3.2353,-3.3088,-3.4122,-3.5483,-3.5877,-3.6638,-3.8453,-3.8132,-3.7966,-3.8646,-3.8719,-3.875,-3.881,-3.8681,-3.8459,-3.8208,-3.8247,-3.8437,-3.8795,-3.8231,-3.7241,-3.5802,-3.5476,-3.5323,-3.533,-3.533,-3.533,-3.533,-3.533,-3.4985,-3.434,-3.4187,-3.3714,-3.3011,-3.2179,0.0,-3.1591,-3.0923,-3.0603,-3.0557,-3.0664,-3.0723,-3.0728,-3.0785,-3.0794,-3.0794,-3.0794,-3.0798,-3.0801,-3.0804,-3.0847,-3.0909,-3.0909,-3.0894,-3.0877,-3.0877,-3.0878,-3.0859,-3.0793,-3.0732,-3.0698,-3.0681,-3.0633,-3.0597,-3.0604,-3.0592,-3.0578,-3.0577,-3.0545,-3.051,-3.051,-3.0333,-3.0203,-3.0177,-3.0066,-2.9875,-2.9598,-2.9446,-2.9275,-2.9089,-2.9074,-2.9051,-2.897,-2.897,-2.8834,-2.8513,-2.8525,-2.8286,-2.7686,-2.7713,-2.7639,-2.7419,-2.736,-2.7329,-2.7329,-2.7266,-2.7202,-2.7154,-2.7072,-2.6825,-3.5591,-3.5839,-3.5927,-3.6058,-3.5767,-3.527,-3.4644,-3.3905,-3.3149,-3.2471,-3.2041,-3.1838,-3.2002,-3.2844,-3.3723,-3.4437,-3.5211,-3.6204,-3.7617,-3.7625,-3.7804,-3.8597,-3.8707,-3.8707,-3.8707,-3.8707,-3.8416,-3.7734,-3.7811,-3.7916,-3.7921,-3.7347,-3.6373,-3.4982,-3.5041,-3.5119,-3.5144,-3.5144,-3.4993,-3.4683,-3.4683,-3.4242,-3.3405,-3.2983,-3.2562,-3.2127,-3.1296,0.0,-3.09,-3.0546,-3.0413,-3.0457,-3.056,-3.0607,-3.0617,-3.0716,-3.0754,-3.0756,-3.0799,-3.0807,-3.0791,-3.0791,-3.0817,-3.0845,-3.0845,-3.0847,-3.0849,-3.0849,-3.0849,-3.0833,-3.0801,-3.0777,-3.0747,-3.0755,-3.07,-3.0632,-3.0606,-3.0604,-3.06,-3.0589,-3.0572,-3.0554,-3.0554,-3.0462,-3.0403,-3.0403,-3.0328,-3.0182,-2.995,-2.9788,-2.957,-2.92,-2.9145,-2.9134,-2.9119,-2.9089,-2.898,-2.8676,-2.8676,-2.8451,-2.7886,-2.7883,-2.7771,-2.7511,-2.7483,-2.7452,-2.7452,-2.7421,-2.7405,-2.739,-2.7182,-2.6906,-3.5343,-3.5654,-3.5744,-3.5727,-3.5249,-3.4605,-3.3805,-3.3174,-3.2539,-3.1862,-3.1763,-3.1746,-3.1746,-3.2524,-3.3213,-3.3459,-3.417,-3.5169,-3.654,-3.665,-3.6996,-3.805,-3.8193,-3.8193,-3.8193,-3.8193,-3.7845,-3.7019,-3.6976,-3.6969,-3.6901,-3.6232,-3.5446,-3.462,-3.4735,-3.4766,-3.4641,-3.4678,-3.4374,-3.3735,-3.3784,-3.3339,-3.2502,-3.1851,-3.1461,-3.1257,-3.0579,0.0,0.0,-3.0346,-3.0353,-3.037,-3.0443,-3.0479,-3.0492,-3.0613,-3.0656,-3.0665,-3.0745,-3.0782,-3.0786,-3.0796,-3.0807,-3.0796,-3.0796,-3.0796,-3.0796,-3.0796,-3.0796,-3.0801,-3.0798,-3.08,-3.08,-3.0807,-3.0749,-3.0692,-3.0621,-3.0607,-3.0606,-3.061,-3.061,-3.0606,-3.0606,-3.0595,-3.0592,-3.0592,-3.0559,-3.0449,-3.024,-3.0136,-2.9891,-2.9384,-2.9267,-2.9243,-2.9214,-2.9222,-2.9115,-2.8855,-2.8819,-2.8603,-2.8093,-2.8065,-2.7897,-2.7617,-2.7557,-2.7526,-2.7526,-2.7511,-2.7496,-2.7496,-2.718,-2.6921,-3.4595,-3.5098,-3.5475,-3.495,-3.4686,-3.4219,-3.2997,-3.2636,-3.2341,-3.1671,-3.1595,-3.1617,-3.1617,-3.1797,-3.2313,-3.3336,-3.2335,-3.2463,-3.541,-3.4598,-3.4393,-3.6292,-3.6523,-3.6523,-3.6523,-3.6523,-3.6142,-3.5209,-3.449,-3.4633,-3.5852,-3.5114,-3.4615,-3.4518,-3.4529,-3.4193,-3.3462,-3.3639,-3.3324,-3.2562,-3.274,-3.2409,-3.1613,-3.1472,-3.1014,-3.0314,-3.0237,0.0,0.0,-3.0213,-3.0214,-3.0228,-3.0369,-3.0414,-3.0411,-3.0481,-3.0516,-3.0548,-3.0662,-3.0716,-3.072,-3.0786,-3.0799,-3.0801,-3.0801,-3.0801,-3.0801,-3.0801,-3.0801,-3.0804,-3.0795,-3.0792,-3.0801,-3.0808,-3.0749,-3.0708,-3.0691,-3.0642,-3.061,-3.0673,-3.0641,-3.0606,-3.0606,-3.0602,-3.0597,-3.0597,-3.0585,-3.0516,-3.0321,-3.0284,-3.0136,-2.9784,-2.9523,-2.9372,-2.9312,-2.9286,-2.9291,-2.9251,-2.9238,-2.9068,-2.8626,-2.8565,-2.836,-2.7954,-2.7721,-2.7587,-2.7587,-2.7526,-2.7496,-2.7496,-2.7465,-2.7417,-3.4252,-3.4709,-3.4883,-3.4638,-3.421,-3.3618,-3.2743,-3.2131,-3.1723,-3.1547,-3.1519,-3.1538,-3.1538,-3.1576,-3.1773,0.0,0.0,-3.2214,-3.395,-3.344,-3.3607,-3.5577,-3.5439,-3.5405,-3.6065,-3.6117,-3.5754,-3.4899,-3.4099,-3.3881,-3.4441,-3.4333,-3.3973,-3.3315,-3.3459,-3.3149,-3.234,-3.2451,-3.2162,-3.1496,-3.1701,-3.1339,-3.054,-3.0638,-3.0476,-3.015,-3.015,0.0,0.0,-3.0142,-3.0138,-3.0159,-3.0241,-3.0273,-3.0292,-3.0353,-3.0378,-3.0393,-3.0537,-3.0548,-3.0544,-3.0633,-3.0686,-3.0689,-3.0784,-3.0798,-3.0798,-3.0798,-3.0798,-3.0799,-3.0803,-3.0794,-3.0808,-3.0801,-3.0775,-3.0753,-3.0704,-3.067,-3.0662,-3.0691,-3.0687,-3.0653,-3.0655,-3.0653,-3.0665,-3.0665,-3.0629,-3.0561,-3.0482,-3.0359,-3.0248,-3.0115,-2.979,-2.9542,-2.9424,-2.9412,-2.9421,-2.9421,-2.9423,-2.922,-2.8791,-2.873,-2.854,-2.8136,-2.8025,-2.795,-2.795,-2.7936,-2.7922,-2.7922,-2.7922,-2.7836,-3.358,-3.3998,-3.4117,-3.3897,-3.3457,-3.2903,-3.2272,-3.1681,-3.131,-3.1385,-3.1423,-3.1443,-3.1443,-3.1462,-3.1498,0.0,0.0,-3.1704,-3.2422,-3.2055,-3.2267,-3.3779,-3.3501,-3.3607,-3.4676,-3.5078,-3.5016,-3.4466,-3.3887,-3.3468,-3.3231,-3.344,-3.323,-3.2496,-3.2641,-3.2244,-3.1216,-3.1302,-3.1019,-3.0373,-3.0574,-3.0344,-2.976,-2.9894,-2.9965,-2.9973,-2.9973,0.0,0.0,-3.0098,-3.0094,-3.0094,-3.0142,-3.0176,-3.019,-3.0228,-3.0241,-3.026,-3.037,-3.0378,-3.0369,-3.0507,-3.0548,-3.0556,-3.0652,-3.0743,-3.0808,-3.0808,-3.079,-3.0794,-3.0794,-3.0796,-3.0804,-3.0806,-3.0798,-3.08,-3.0744,-3.0718,-3.0711,-3.0738,-3.072,-3.0728,-3.0734,-3.0727,-3.072,-3.072,-3.0676,-3.0634,-3.0622,-3.052,-3.0395,-3.0331,-3.007,-2.9804,-2.9636,-2.9617,-2.9608,-2.9608,-2.9608,-2.9435,-2.9045,-2.8963,-2.8773,-2.8417,-2.8304,-2.8242,-2.8214,-2.8214,-2.8214,-2.8201,-2.8201,-2.8063,-3.2327,-3.2848,-3.3237,-3.2513,-3.2327,-3.2124,-3.1376,-3.1207,-3.119,-3.119,-3.1271,-3.1295,-3.1295,-3.1406,-3.1498,-3.1498,0.0,0.0,-3.0855,-3.0177,-2.9804,-3.0297,-3.0343,-3.0766,-3.1833,-3.2904,-3.3528,-3.3509,-3.3509,0.0,-3.236,-3.2324,-3.2333,-3.2397,-3.2397,-3.1631,-3.0026,-3.0232,-2.9905,-2.9115,-2.9318,-2.9418,-2.9399,-2.9399,-2.9514,0.0,0.0,0.0,0.0,-3.0095,-3.0095,-3.0095,-3.0102,-3.0102,-3.0102,-3.0102,-3.0102,-3.0106,-3.0189,-3.0196,-3.0216,-3.037,-3.0407,-3.0407,-3.0407,-3.0595,-3.0801,-3.0801,-3.0791,-3.0802,-3.0802,-3.081,-3.0798,-3.0799,-3.0803,-3.0797,-3.0797,-3.0742,-3.0715,-3.0796,-3.0792,-3.0803,-3.0808,-3.0799,-3.0799,-3.0799,-3.0745,-3.0701,-3.0697,-3.0691,-3.0614,-3.0424,-3.0334,-3.0196,-2.9921,-2.9901,-2.9904,-2.9904,-2.9904,-2.9798,-2.9608,-2.9345,-2.9104,-2.8888,-2.857,-2.8362,-2.83,-2.83,-2.8255,-2.8201,-2.8201,-2.8063,-3.1671,-3.2236,-3.2598,-3.2361,-3.2293,-3.2107,-3.136,-3.119,-3.119,-3.119,-3.0804,-3.0467,-3.0467,-3.0099,-2.9948,-3.0474,0.0,0.0,-3.0336,-2.9688,-2.9522,-3.0403,-3.1195,-3.1898,-3.2465,-3.2827,-3.3144,-3.3408,-3.2929,-3.2512,-3.2258,-3.1714,-3.1179,-3.0714,-3.0696,-3.0186,-2.9131,-2.9223,-2.9155,-2.891,-2.9104,-2.9193,-2.9204,-2.9329,-2.9409,0.0,0.0,0.0,0.0,-2.9948,-3.003,-3.003,-3.0087,-3.0095,-3.0095,-3.0095,-3.0095,-3.0102,-3.0116,-3.0109,-3.0097,-3.0228,-3.0266,-3.0272,-3.0375,-3.0463,-3.0535,-3.0579,-3.0662,-3.0733,-3.0733,-3.0736,-3.0722,-3.0722,-3.0738,-3.0737,-3.0721,-3.0712,-3.072,-3.08,-3.0759,-3.0756,-3.0799,-3.0806,-3.0792,-3.0804,-3.0789,-3.0764,-3.0769,-3.07,-3.0603,-3.0536,-3.0438,-3.0277,-3.0053,-2.9956,-2.9899,-2.9899,-2.9899,-2.9822,-2.9672,-2.9589,-2.9387,-2.9042,-2.8929,-2.8803,-2.865,-2.865,-2.8637,-2.8625,-2.8625,-2.8556,-3.0614,-3.1135,-3.1362,-3.1362,-3.1362,-3.1245,-3.0775,-3.0818,-3.0871,-3.0566,-3.0297,-3.0004,-2.9736,-2.9314,-2.9162,-2.96,-2.9922,-2.9886,-2.9311,-2.9093,-2.9134,-2.9486,-3.0803,-3.1741,-3.1961,-3.2109,-3.2305,-3.2545,-3.193,-3.1427,-3.112,-3.0763,-3.0196,-2.9424,-2.9709,-2.9473,-2.8675,-2.87,-2.8724,-2.8724,-2.8857,-2.892,-2.892,-2.9031,-2.9129,0.0,0.0,0.0,0.0,-2.9761,-2.9847,-2.9855,-2.9991,-3.0022,-3.0022,-3.0022,-3.0022,-3.0022,-3.0022,-3.0007,-2.998,-3.0071,-3.0092,-3.0099,-3.0196,-3.0294,-3.0418,-3.0448,-3.0531,-3.0622,-3.0622,-3.0656,-3.0694,-3.0694,-3.0698,-3.0692,-3.0709,-3.07,-3.0714,-3.0744,-3.0729,-3.0716,-3.0781,-3.0797,-3.0809,-3.0825,-3.0813,-3.0808,-3.0808,-3.0733,-3.0677,-3.0689,-3.0577,-3.0457,-3.0308,-3.0135,-3.0057,-3.0057,-3.0057,-3.0007,-2.9937,-2.9853,-2.9706,-2.9429,-2.9289,-2.9129,-2.8989,-2.8887,-2.8834,-2.8834,-2.881,-2.8798,0.0,-2.9604,-2.9648,-2.9648,-2.9648,-2.9648,-2.9648,-2.9976,0.0,-2.9426,-2.9574,-2.9661,-2.9056,-2.8872,-2.8855,-2.9061,-2.96,-2.9514,-2.806,-2.85,-2.8703,-2.7958,-2.9485,-3.0609,-3.0593,-3.094,-3.1141,-3.1121,-3.065,-3.0065,-2.9315,-2.9526,-2.9329,-2.8605,-2.9306,-2.9342,-2.8618,-2.86,-2.86,-2.86,-2.86,-2.86,-2.86,-2.86,-2.8718,0.0,0.0,0.0,0.0,-2.9494,-2.9561,-2.9598,-2.9786,-2.9864,-2.9864,-2.9872,-2.9899,-2.9899,-2.988,-2.988,-2.9899,-2.9899,-2.9899,-2.9899,-2.9899,-3.0122,-3.0381,-3.0381,-3.0424,-3.0481,-3.0481,-3.0575,-3.068,-3.068,-3.0683,-3.0687,-3.0687,-3.0687,-3.0681,-3.0695,-3.07,-3.0709,-3.0789,-3.0795,-3.0818,-3.0877,-3.085,-3.0803,-3.0803,-3.0803,-3.0817,-3.0804,-3.0732,-3.0675,-3.0618,-3.043,-3.0305,-3.0292,-3.0292,-3.0292,-3.0292,-3.0126,-3.0007,-3.0,-2.9606,-2.9359,-2.9289,-2.9034,-2.8929,-2.8929,-2.8858,-2.8822,-2.7072,0.0,-2.8273,-2.8273,-2.8273,-2.8273,0.0,-2.8359,-2.8392,-2.8208,-2.7758,-2.7652,-2.8391,-2.7579,-2.7453,-2.9512,-2.9424,-2.8981,-2.8627,-2.8673,-2.8705,-2.8501,-2.9873,-3.0743,-3.0536,-3.061,-3.0577,-3.0366,-2.9589,-2.915,-2.9215,-2.8671,-2.8375,-2.8432,-2.8625,-2.8696,-2.86,-2.86,-2.86,-2.86,-2.86,-2.86,-2.86,-2.86,-2.8612,0.0,0.0,0.0,-2.8941,-2.9191,-2.9324,-2.9385,-2.9532,-2.958,-2.9608,-2.971,-2.9756,-2.9746,-2.9808,-2.979,-2.9756,-2.9756,-2.9756,-2.9756,-2.9756,-2.9956,-3.0181,-3.0181,-3.0254,-3.0354,-3.0354,-3.0403,-3.0467,-3.0467,-3.0554,-3.0623,-3.0614,-3.0617,-3.064,-3.0697,-3.0667,-3.0639,-3.0709,-3.0765,-3.0807,-3.0818,-3.0858,-3.0872,-3.0872,-3.0872,-3.0871,-3.0889,-3.0773,-3.0696,-3.0671,-3.049,-3.034,-3.0298,-3.0305,-3.0292,-3.0292,-3.0241,-3.0154,-3.0,-2.9606,-2.9328,-2.9225,-2.9167,-2.9134,-2.9134,-2.9112,-2.91,-2.5426,-2.6504,-2.7618,-2.7618,-2.7618,-2.7618,-2.7618,-2.7556,-2.7371,-2.6992,-2.6763,-2.6779,-2.7326,-2.6961,-2.6998,-2.8358,-2.8676,-2.8736,-2.8736,-2.8734,-2.8697,-2.8697,-2.9702,-3.0222,0.0,-2.9374,-2.9107,-2.8955,-2.8278,-2.7938,-2.8126,-2.7847,-2.7754,-2.7929,-2.7943,-2.8128,-2.8497,-2.8497,-2.8497,-2.8497,-2.8497,-2.8497,-2.8497,-2.8497,-2.8484,0.0,0.0,0.0,-2.8633,-2.886,-2.8986,-2.9042,-2.9251,-2.9314,-2.9343,-2.9394,-2.9482,-2.9569,-2.9598,-2.9655,-2.9701,-2.9701,-2.9701,-2.9701,-2.9701,-2.979,-2.9926,-2.9926,-2.9984,-3.0075,-3.0075,-3.0142,-3.0222,-3.0222,-3.0309,-3.0414,-3.0422,-3.0491,-3.0564,-3.0608,-3.0576,-3.0578,-3.0643,-3.0678,-3.073,-3.0746,-3.0789,-3.0817,-3.0818,-3.0859,-3.0898,-3.0897,-3.0833,-3.0778,-3.0741,-3.0611,-3.0502,-3.0406,-3.0396,-3.0385,-3.0385,-3.0385,-3.0273,-3.0,-2.9799,-2.9551,-2.9349,-2.9318,-2.9278,-2.9278,-2.9257,-2.9246,-2.4425,-2.5804,-2.7188,-2.7103,-2.7165,-2.7242,-2.7218,-2.7088,-2.6761,-2.6062,-2.6227,-2.6523,-2.6518,-2.6713,-2.6934,-2.7147,-2.8061,-2.8715,-2.8696,-2.8753,-2.8758,-2.8676,-2.9293,0.0,-2.8594,-2.7942,-2.7541,-2.7442,-2.7046,-2.6839,-2.6888,-2.7145,-2.7319,-2.7365,-2.7365,-2.7636,-2.8201,-2.8246,-2.8268,-2.8327,-2.8327,-2.8353,-2.8411,-2.8411,-2.838,-2.838,0.0,0.0,-2.8393,-2.8565,-2.864,-2.8682,-2.8936,-2.9027,-2.9027,-2.9049,-2.9166,-2.9301,-2.9351,-2.9463,-2.9626,-2.9655,-2.9645,-2.9645,-2.9645,-2.9645,-2.9645,-2.9645,-2.9718,-2.9775,-2.9775,-2.9875,-2.9969,-2.9969,-3.0102,-3.019,-3.019,-3.0358,-3.0509,-3.0505,-3.0491,-3.0525,-3.0572,-3.0583,-3.0621,-3.0681,-3.0687,-3.0675,-3.0684,-3.0787,-3.0876,-3.0878,-3.0898,-3.0878,-3.0806,-3.0742,-3.067,-3.0535,-3.0515,-3.05,-3.0504,-3.0504,-3.034,-3.0037,-3.003,-2.9867,-2.9522,-2.9474,-2.9453,-2.9412,-2.9363,-2.9334,-2.4989,-2.576,-2.6267,-2.5736,-2.6087,-2.6511,-2.6405,-2.6358,-2.6273,-2.6024,-2.6053,-2.6387,-2.7317,-2.6581,-2.6525,-2.866,-2.8934,-2.8833,-2.8709,-2.9033,-2.9075,-2.8497,-2.9062,-2.8982,-2.7729,-2.7496,-2.7216,-2.6703,-2.6502,-2.6521,-2.6808,-2.6808,-2.6939,-2.7228,-2.7244,-2.7291,-2.7384,-2.7487,-2.7695,-2.7986,-2.7986,-2.8128,-2.8411,-2.8411,-2.8367,-2.8313,0.0,-2.8313,-2.8313,-2.8349,-2.8401,-2.8453,-2.8607,-2.8682,-2.8694,-2.8797,-2.8868,-2.8915,-2.91,-2.9203,-2.9301,-2.9409,-2.9448,-2.9448,-2.9448,-2.9448,-2.9448,-2.9448,-2.9578,-2.9719,-2.9719,-2.977,-2.9834,-2.9834,-3.0018,-3.019,-3.019,-3.0358,-3.0504,-3.0509,-3.0509,-3.0495,-3.0515,-3.0563,-3.0595,-3.0611,-3.0617,-3.062,-3.0623,-3.0687,-3.0731,-3.0732,-3.0829,-3.0879,-3.0816,-3.0795,-3.0753,-3.0662,-3.0626,-3.0554,-3.0509,-3.0504,-3.04,-3.0164,-3.0157,-2.9991,-2.9661,-2.9652,-2.9608,-2.9482,-2.9472,-2.9503,-2.4575,-2.5114,-2.5567,-2.5657,-2.6207,-2.6703,-2.6641,-2.6367,-2.6085,-2.6016,-2.5993,-2.6153,-2.6597,-2.6632,-2.707,-2.8421,-2.8184,-2.8035,-2.8634,-2.8893,-2.8874,-2.8437,0.0,-2.8293,-2.6887,-2.6738,-2.664,-2.6361,-2.6276,0.0,-2.6469,-2.6452,-2.6503,-2.6657,-2.6657,-2.6657,-2.6657,-2.6708,-2.7004,-2.7517,-2.7517,-2.7698,-2.8035,-2.8035,-2.8105,-2.825,0.0,-2.825,-2.825,-2.825,-2.8264,-2.8304,-2.8371,-2.8367,-2.8393,-2.8569,-2.8644,-2.8669,-2.8863,-2.8968,-2.8978,-2.906,-2.9145,-2.924,-2.924,-2.924,-2.9229,-2.9097,-2.9299,-2.9548,-2.9548,-2.956,-2.958,-2.958,-2.9732,-2.988,-2.988,-3.0102,-3.0279,-3.0322,-3.0394,-3.0463,-3.0479,-3.051,-3.0492,-3.0492,-3.0527,-3.0556,-3.0607,-3.0662,-3.0721,-3.0801,-3.0851,-3.0896,-3.0859,-3.0859,-3.0811,-3.0712,-3.0633,-3.0589,-3.0564,-3.0544,-3.0477,-3.0306,-3.03,-3.0177,-2.9926,-2.9926,-2.9845,-2.9717,-2.9717,-2.9735,-2.4131,-2.4417,-2.4739,-2.5295,-2.5975,-2.6645,-2.7091,-2.6561,-2.6023,-2.6317,-2.6354,-2.6285,-2.6025,-2.6717,-2.7327,-2.7408,-2.7311,-2.7536,-2.8477,-2.8587,-2.8445,-2.8109,-2.7919,-2.7367,-2.614,-2.6043,-2.6079,-2.6185,-2.6202,0.0,-2.6202,-2.6202,-2.6202,-2.6202,-2.6202,-2.6202,-2.6202,-2.6202,-2.6486,-2.7085,-2.7085,-2.726,-2.758,-2.758,-2.7716,-2.7968,-2.7968,-2.7968,-2.7968,-2.8039,-2.8081,-2.8081,-2.8168,-2.8196,-2.8209,-2.8367,-2.8432,-2.8471,-2.8669,-2.8743,-2.8725,-2.8737,-2.8833,-2.8938,-2.8915,-2.8904,-2.888,-2.873,-2.8902,-2.916,-2.9243,-2.9315,-2.9386,-2.9396,-2.9492,-2.957,-2.957,-2.9807,-3.0018,-3.0073,-3.019,-3.0309,-3.0377,-3.0383,-3.0383,-3.0383,-3.0419,-3.0463,-3.0521,-3.0594,-3.068,-3.0828,-3.0839,-3.0864,-3.0889,-3.0873,-3.0839,-3.0735,-3.0652,-3.0626,-3.0606,-3.0606,-3.0552,-3.0443,-3.0443,-3.0353,-3.0181,-3.0154,-3.0075,-2.9956,-2.9921,-2.9921,-2.4191,-2.3913,-2.3464,-2.364,-2.4414,-2.5599,-2.7357,-2.6729,-2.6118,-2.7245,-2.7475,-2.7295,-2.6656,-2.6606,-2.6465,-2.5873,-2.7122,-2.8237,-2.8307,-2.8222,-2.7888,-2.7174,-2.6544,-2.6023,-2.5584,-2.554,-2.5721,-2.6168,-2.6202,0.0,-2.6202,-2.6202,-2.6202,-2.6202,-2.6202,-2.6202,-2.6202,-2.6202,-2.6381,-2.6741,-2.6741,-2.6907,-2.7228,-2.7228,-2.7244,-2.7276,-2.7276,-2.7276,-2.7291,-2.7612,-2.773,-2.776,-2.8067,-2.8196,-2.8196,-2.8227,-2.8223,-2.825,-2.8458,-2.8518,-2.8531,-2.8522,-2.8529,-2.8516,-2.8402,-2.835,-2.835,-2.8337,-2.8363,-2.8453,-2.8766,-2.9075,-2.9323,-2.9386,-2.9454,-2.9514,-2.9514,-2.9615,-2.9731,-2.9739,-2.9888,-3.003,-3.003,-3.0181,-3.0299,-3.0299,-3.0305,-3.0318,-3.033,-3.0384,-3.0477,-3.0607,-3.0678,-3.0738,-3.0799,-3.0807,-3.08,-3.0798,-3.0722,-3.0665,-3.061,-3.0606,-3.0602,-3.0597,-3.0597,-3.053,-3.0381,-3.0315,-3.0221,-3.0087,-3.0019,-3.0019,-2.2951,-2.2828,-2.2658,-2.3126,-2.3464,-2.4004,-2.5216,-2.6272,-2.7126,-2.7574,-2.8281,-2.8513,-2.742,-2.6881,-2.6512,-2.6258,-2.7133,-2.7817,-2.7711,-2.7628,-2.7295,-2.6483,-2.6161,-2.5778,-2.5182,-2.5137,-2.5195,-2.5381,0.0,0.0,-2.5758,-2.6043,-2.6202,-2.6202,-2.6202,-2.6202,-2.6202,-2.6115,-2.6187,-2.6399,-2.6399,-2.6555,-2.6891,-2.6891,-2.7005,-2.7197,-2.7197,-2.7197,-2.7213,-2.7338,-2.74,-2.7415,-2.7659,-2.7882,-2.8071,-2.7954,-2.7893,-2.7908,-2.7975,-2.8003,-2.8,-2.801,-2.8088,-2.8183,-2.8129,-2.8102,-2.8088,-2.801,-2.8024,-2.8129,-2.8415,-2.8706,-2.8925,-2.8959,-2.9144,-2.9312,-2.9312,-2.9426,-2.9505,-2.9505,-2.9687,-2.9815,-2.9815,-2.9977,-3.0099,-3.0099,-3.0214,-3.0324,-3.0364,-3.0375,-3.0448,-3.0524,-3.0642,-3.0712,-3.0733,-3.0778,-3.0807,-3.08,-3.0782,-3.0747,-3.0733,-3.0713,-3.0713,-3.0713,-3.0713,-3.0665,-3.0529,-3.0505,-3.0414,-3.0284,-3.026,-3.0235,-2.1883,-2.1742,-2.1767,-2.2228,-2.2391,-2.2656,-2.3385,-2.5226,-2.689,-2.7305,-2.7735,-2.7898,-2.7373,-2.6569,-2.604,-2.6201,-2.6777,-2.7095,-2.6714,-2.6488,-2.6115,-2.5524,-2.5278,-2.4994,-2.463,-2.4567,-2.4648,-2.4808,0.0,0.0,0.0,-2.5717,-2.5881,-2.5735,-2.5826,-2.5881,-2.5881,-2.5791,-2.5881,-2.6114,-2.6114,-2.624,-2.647,-2.6453,-2.6573,-2.6791,-2.6808,-2.6808,-2.6808,-2.6923,-2.7036,-2.7116,-2.726,-2.7461,-2.7642,-2.7504,-2.7441,-2.7441,-2.7441,-2.7441,-2.7441,-2.7489,-2.7609,-2.771,-2.7774,-2.7789,-2.776,-2.7674,-2.7689,-2.7742,-2.794,-2.8259,-2.8554,-2.8578,-2.8808,-2.9026,-2.9026,-2.9155,-2.9275,-2.9275,-2.9437,-2.957,-2.957,-2.9739,-2.9875,-2.9875,-3.0034,-3.0188,-3.0247,-3.0296,-3.0365,-3.0438,-3.0568,-3.0632,-3.0632,-3.0698,-3.0747,-3.078,-3.0781,-3.0807,-3.0802,-3.08,-3.0793,-3.0801,-3.0801,-3.075,-3.0664,-3.0613,-3.0559,-3.0452,-3.0458,-3.0447,-2.1132,-2.0699,-2.0699,-2.0699,-2.1093,-2.1681,-2.2283,-2.3622,-2.5089,-2.6442,-2.5645,-2.5108,-2.6369,-2.5561,-2.4878,-2.5301,-2.5946,-2.6115,-2.5372,-2.4714,-2.4315,-2.43,-2.3695,-2.3458,-2.3858,-2.39,-2.4116,-2.4652,0.0,0.0,0.0,-2.5208,-2.5173,-2.4712,-2.502,-2.5192,-2.5192,-2.5192,-2.5438,-2.5897,-2.5881,-2.5917,-2.6008,-2.5917,-2.5897,-2.5899,-2.5972,-2.5954,-2.5917,-2.6333,-2.664,-2.6905,-2.6888,-2.6905,-2.6905,-2.6905,-2.6905,-2.6905,-2.6905,-2.6905,-2.6921,-2.7036,-2.7085,-2.7119,-2.725,-2.7299,-2.7299,-2.7299,-2.7299,-2.7299,-2.7299,-2.7745,-2.821,-2.8272,-2.8489,-2.8694,-2.8694,-2.8858,-2.8994,-2.8994,-2.9171,-2.9293,-2.9293,-2.9465,-2.9598,-2.9598,-2.9779,-2.9888,-2.9897,-3.0064,-3.0221,-3.029,-3.0413,-3.0496,-3.0496,-3.0564,-3.0636,-3.0684,-3.0753,-3.0796,-3.0796,-3.0794,-3.0799,-3.0804,-3.0801,-3.0801,-3.0801,-3.0667,-3.0607,-3.0604,-3.0605,-3.0603,-1.981,-1.9949,-2.0485,-2.0485,-2.1741,-2.3129,-2.3666,-2.4922,-2.6415,-2.7983,-2.7324,-2.6438,-2.6329,-2.5645,-2.5009,-2.4677,-2.5199,-2.5405,-2.4684,-2.4433,-2.4138,-2.3651,-2.3415,-2.3363,-2.3458,-2.348,-2.353,-2.3687,0.0,0.0,0.0,-2.4603,-2.4764,-2.4628,-2.4744,-2.4784,-2.4784,-2.4688,-2.4748,-2.4997,-2.5134,-2.5457,-2.5917,-2.5899,-2.5897,-2.5897,-2.5917,-2.5917,-2.5899,-2.6028,-2.6262,-2.6539,-2.6436,-2.6539,-2.6741,-2.6607,-2.6556,-2.6556,-2.6556,-2.6556,-2.6556,-2.659,-2.6607,-2.6657,-2.6891,-2.6957,-2.6989,-2.7234,-2.7299,-2.7299,-2.7299,-2.7355,-2.7502,-2.7811,-2.8093,-2.8281,-2.8281,-2.8507,-2.8718,-2.8718,-2.8868,-2.9026,-2.9026,-2.9155,-2.9256,-2.9306,-2.9494,-2.9688,-2.9872,-2.9902,-2.9981,-3.0135,-3.0235,-3.0302,-3.0302,-3.0443,-3.054,-3.0556,-3.0678,-3.0745,-3.0801,-3.0801,-3.08,-3.0799,-3.0793,-3.0808,-3.0808,-3.077,-3.0728,-3.0662,-3.0675,-3.0653,-1.989,-2.0023,-2.0437,-2.0875,-2.1964,-2.3173,-2.4121,-2.5182,-2.6299,-2.7305,-2.6371,-2.5396,-2.5493,-2.464,-2.3847,-2.3649,-2.3967,-2.4057,-2.3531,-2.3467,-2.3391,-2.3178,-2.3142,-2.3142,-2.3142,-2.3142,-2.3157,0.0,0.0,0.0,0.0,-2.4063,-2.4209,-2.4021,-2.4131,-2.4194,-2.4194,-2.4116,-2.4214,-2.4477,-2.4599,-2.4859,-2.5282,-2.5419,-2.5495,-2.5513,-2.5696,-2.5805,-2.5826,-2.5787,-2.5899,-2.6064,-2.599,-2.6099,-2.626,-2.6136,-2.6082,-2.6082,-2.6082,-2.6082,-2.61,-2.6207,-2.6226,-2.6296,-2.6573,-2.6641,-2.6691,-2.6892,-2.6875,-2.6825,-2.6825,-2.6808,-2.694,-2.7369,-2.7651,-2.7819,-2.7819,-2.8093,-2.8326,-2.8326,-2.8507,-2.8658,-2.8658,-2.8838,-2.8989,-2.9041,-2.9212,-2.9437,-2.9671,-2.968,-2.9713,-2.9926,-2.9973,-3.004,-3.0148,-3.0294,-3.0374,-3.0374,-3.0522,-3.0633,-3.0681,-3.0726,-3.076,-3.0767,-3.0799,-3.0801,-3.0801,-3.0834,-3.0822,-3.0771,-3.0771,-3.0735,-2.072,-2.0527,-2.0514,-2.1615,-2.1997,-2.2439,-2.3728,-2.4587,-2.5147,-2.5218,-2.3849,-2.3,-2.4147,-2.2936,-2.1923,-2.2417,-2.2501,-2.2404,-2.2161,-2.2123,-2.2301,-2.2775,-2.2843,-2.2843,-2.2888,-2.2888,-2.2947,0.0,0.0,0.0,0.0,-2.356,-2.3516,-2.3105,-2.3385,-2.3545,-2.3545,-2.3545,-2.376,-2.4177,-2.4219,-2.4219,-2.4198,-2.4639,-2.4843,-2.4863,-2.5298,-2.5527,-2.557,-2.5508,-2.5486,-2.5502,-2.5524,-2.5524,-2.5524,-2.5578,-2.5578,-2.5524,-2.5597,-2.5578,-2.5581,-2.5881,-2.5956,-2.601,-2.6279,-2.6349,-2.6349,-2.6366,-2.6244,-2.607,-2.607,-2.6192,-2.6453,-2.6874,-2.718,-2.7365,-2.7365,-2.7619,-2.7855,-2.7855,-2.8057,-2.8259,-2.8259,-2.8507,-2.8724,-2.8749,-2.8932,-2.914,-2.9339,-2.9359,-2.9438,-2.9633,-2.967,-2.9758,-3.0007,-3.0114,-3.0157,-3.0157,-3.0353,-3.0476,-3.0476,-3.0626,-3.0699,-3.0693,-3.0764,-3.0793,-3.0793,-3.0859,-3.0896,-3.0896,-3.0895,-3.0867,-1.9171,-1.9826,-2.0827,-2.1564,-2.2631,-2.3417,-2.2828,-2.316,-2.3833,-2.4728,-2.389,-2.3089,-2.3357,-2.236,-2.1511,-2.1641,-2.1661,-2.1653,-2.1589,-2.1575,-2.1779,-2.2301,-2.2347,-2.2486,-2.2865,-2.2888,-2.2925,0.0,0.0,0.0,-2.2978,-2.3045,-2.3045,-2.2947,-2.3,-2.3045,-2.3045,-2.3045,-2.3112,0.0,-2.3566,-2.3545,-2.3246,-2.4057,-2.4426,-2.4431,-2.4549,-2.4589,-2.4594,-2.4589,-2.4569,-2.4609,-2.4934,-2.5036,-2.5111,-2.5467,-2.5375,-2.5111,-2.5467,-2.5355,-2.5114,-2.5546,-2.5675,-2.5731,-2.5992,-2.5992,-2.5886,-2.6104,-2.6016,-2.5873,-2.5873,-2.587,-2.5885,-2.5977,-2.6573,-2.7087,-2.7087,-2.7305,-2.75,-2.75,-2.7722,-2.7908,-2.7908,-2.7911,-2.8027,-2.8281,-2.862,-2.8938,-2.9129,-2.9118,-2.9153,-2.9369,-2.9378,-2.9407,-2.9474,-2.9741,-2.9899,-2.9899,-3.0176,-3.0348,-3.0348,-3.0574,-3.0695,-3.0707,-3.0716,-3.0717,-3.0717,-3.0789,-3.0818,-3.0816,-3.0879,-3.0897,-1.9394,-2.0129,-2.101,-2.2106,-2.2778,-2.3037,-2.2447,-2.2506,-2.2807,-2.3163,-2.2548,-2.1945,-2.1945,-2.1221,-2.0617,-2.0617,-2.0641,-2.0708,-2.0979,-2.1017,-2.1213,-2.1742,-2.1827,-2.2016,-2.2509,-2.2555,-2.2661,0.0,0.0,-2.2888,-2.2888,-2.2888,-2.2888,-2.2888,-2.2888,-2.2888,-2.2888,-2.2888,-2.2888,-2.2888,-2.3142,-2.3142,-2.291,-2.3646,-2.3973,-2.3973,-2.4198,-2.4302,-2.4302,-2.4302,-2.4302,-2.4323,-2.4533,-2.4599,-2.4655,-2.489,-2.4831,-2.4655,-2.489,-2.4831,-2.4675,-2.5013,-2.5111,-2.513,-2.5214,-2.516,-2.5121,-2.5259,-2.5128,-2.5028,-2.5179,-2.5272,-2.5326,-2.5326,-2.5815,-2.6332,-2.6539,-2.6674,-2.6822,-2.7035,-2.7303,-2.7502,-2.7502,-2.7609,-2.7757,-2.7926,-2.8242,-2.8502,-2.8615,-2.8737,-2.8897,-2.9126,-2.9155,-2.9206,-2.9293,-2.9456,-2.9607,-2.9697,-2.9875,-3.0026,-3.0157,-3.0284,-3.0423,-3.0543,-3.0609,-3.0655,-3.0655,-3.0744,-3.0806,-3.0804,-3.0877,-3.0879,-1.9472,-2.0327,-2.1094,-2.2694,-2.2694,-2.2284,-2.2184,-2.2096,-2.187,-2.1305,-2.0943,-2.0691,-2.0691,-2.0214,-1.9798,-1.9798,-1.9798,-1.9952,-2.0409,-2.0459,-2.0646,-2.1199,-2.1248,-2.1479,-2.2006,-2.2053,0.0,0.0,0.0,-2.2646,-2.2646,-2.2646,-2.2646,-2.2646,-2.2646,-2.2646,-2.2646,-2.2646,-2.2646,-2.2646,-2.2729,-2.282,-2.291,-2.3304,-2.348,-2.3501,-2.3903,-2.4051,-2.4051,-2.4051,-2.4051,-2.4073,-2.4156,-2.4177,-2.4198,-2.4261,-2.424,-2.4156,-2.424,-2.4198,-2.4141,-2.44,-2.4482,-2.4461,-2.4364,-2.4287,-2.4266,-2.4266,-2.4131,-2.4036,-2.4307,-2.4497,-2.4623,-2.4623,-2.4926,-2.5354,-2.589,-2.6015,-2.6122,-2.6522,-2.6891,-2.7085,-2.702,-2.7352,-2.7609,-2.7609,-2.7855,-2.8034,-2.8034,-2.8313,-2.8607,-2.8821,-2.891,-2.9003,-2.9166,-2.922,-2.9334,-2.9542,-2.957,-2.9696,-2.9948,-2.9958,-3.0073,-3.0291,-3.0458,-3.0548,-3.0583,-3.0714,-3.0771,-3.0773,-3.0823,-3.0837,-1.6795,-1.8832,-2.1094,-2.2694,-2.2694,-2.2184,-2.1707,-2.1257,-2.0754,-2.015,-2.0402,-2.0691,-2.0691,-2.0214,-1.9798,-1.9798,-1.9798,-1.9824,-1.9901,-1.9901,-2.0105,-2.0635,-2.0709,-2.0919,-2.1441,-2.1503,0.0,0.0,-2.1585,-2.1585,-2.1585,-2.1585,-2.1585,-2.1585,-2.1585,-2.1585,-2.1585,-2.1585,-2.1585,-2.1623,-2.2077,-2.2509,-2.2888,-2.2955,-2.3,-2.3,-2.3068,-2.309,-2.309,-2.309,-2.309,-2.3135,-2.3523,-2.3681,-2.3739,-2.4156,-2.3973,-2.358,-2.3979,-2.3773,-2.3428,-2.3858,-2.3985,-2.3985,-2.3985,-2.3837,-2.3724,-2.3724,-2.3551,-2.3429,-2.3458,-2.3501,-2.3523,-2.3523,-2.3767,-2.4318,-2.537,-2.5577,-2.5707,-2.6104,-2.6505,-2.6674,-2.6315,-2.6807,-2.726,-2.726,-2.7535,-2.7742,-2.7742,-2.7996,-2.8183,-2.8224,-2.8487,-2.8662,-2.8682,-2.891,-2.913,-2.9324,-2.9454,-2.9617,-2.9825,-2.982,-2.9851,-2.9891,-3.0137,-3.0337,-3.0515,-3.0582,-3.0626,-3.063,-3.0691,-3.0729,-1.7854,-1.953,-2.1122,-2.271,-2.292,-2.2594,-2.2071,-2.1518,-2.0993,-2.0427,-2.0264,-2.0214,-2.0214,-1.9974,-1.9798,-1.9798,-1.9798,-1.9798,-1.9798,-1.9798,-1.9901,-2.0131,-2.0156,-2.0359,-2.0894,-2.0944,0.0,0.0,-2.1393,-2.1393,-2.1393,-2.1118,-2.0955,-2.0955,-2.0624,-2.0424,-2.0401,-2.0681,-2.0948,-2.1175,-2.1407,-2.1684,-2.1945,-2.1945,-2.231,-2.2888,-2.2888,-2.2888,-2.2888,-2.2888,-2.2888,-2.2925,-2.3105,-2.3135,-2.3157,-2.3297,-2.3172,-2.2994,-2.3194,-2.3105,-2.2912,-2.3246,-2.3341,-2.3319,-2.3253,-2.3165,-2.3113,-2.3113,-2.3024,-2.3016,-2.3253,-2.3297,-2.3297,-2.3297,-2.3414,-2.3674,-2.4158,-2.4732,-2.5275,-2.5689,-2.5908,-2.5962,-2.5799,-2.6035,-2.6317,-2.6556,-2.6872,-2.7161,-2.7382,-2.7698,-2.7855,-2.7759,-2.789,-2.7964,-2.7926,-2.8215,-2.8466,-2.8669,-2.8872,-2.9141,-2.9445,-2.9425,-2.9504,-2.968,-3.0032,-3.0241,-3.0321,-3.0506,-3.0589,-3.0593,-3.062,-3.0639,-1.7835,-1.8917,-1.9842,-2.1704,-2.2214,-2.2167,-2.1972,-2.1654,-2.1191,-2.0494,-2.0101,-1.9818,-1.9512,-1.9643,-1.9798,-1.9798,-1.9798,-1.9798,-1.9798,-1.9798,-1.9861,-1.9999,-2.0024,-2.018,-2.0591,-2.0642,0.0,0.0,-2.0871,-2.0791,-2.0791,-2.0281,-1.9987,-1.9987,-1.9533,-1.9234,-1.9189,-1.9681,-2.0239,-2.0795,-2.0795,-2.0906,-2.1151,-2.1151,-2.1623,-2.2402,-2.2449,-2.2486,-2.2486,-2.2426,-2.2402,-2.2402,-2.2361,-2.2352,-2.2315,-2.2217,-2.2263,-2.2347,-2.2347,-2.2417,-2.2509,-2.2503,-2.2618,-2.2686,-2.2443,-2.2443,-2.2572,-2.2572,-2.2572,-2.264,-2.2949,-2.3016,-2.3016,-2.3016,-2.3098,-2.3194,-2.3385,-2.4131,-2.4847,-2.5141,-2.5351,-2.5465,-2.5332,-2.5408,-2.5559,-2.5835,-2.6072,-2.6352,-2.6657,-2.6985,-2.7189,-2.7186,-2.7263,-2.7326,-2.7394,-2.7619,-2.7858,-2.8058,-2.8246,-2.854,-2.8979,-2.8932,-2.9079,-2.9465,-2.9794,-3.0028,-3.0117,-3.0319,-3.0446,-3.0477,-3.0498,-3.0525,-1.4395,-1.5165,-1.617,-1.8988,-1.9794,-2.0052,-2.073,-2.0964,-2.0702,-1.9602,-1.9799,-1.9848,-1.878,-1.924,-1.9798,-1.9798,-1.9798,-1.9798,-1.9798,-1.9798,-2.0012,-2.0578,-2.0641,-2.0641,-2.0695,-2.0695,0.0,0.0,-1.9422,-1.9107,-1.9107,-1.8615,-1.8313,-1.8313,-1.8168,-1.8095,-1.8072,-1.8474,-1.9208,-2.0232,-2.0232,-2.0509,-2.1017,-2.1017,-2.1042,-2.1115,-2.1224,-2.1286,-2.1286,-2.1151,-2.1091,-2.1091,-2.1091,-2.1091,-2.1091,-2.1091,-2.1323,-2.1664,-2.1664,-2.1902,-2.2137,-2.164,-2.1817,-2.2147,-2.1626,-2.1817,-2.2231,-2.2231,-2.2231,-2.2217,-2.224,-2.2254,-2.2254,-2.2254,-2.2518,-2.292,-2.361,-2.4131,-2.4405,-2.4369,-2.4981,-2.5351,-2.4899,-2.5153,-2.5368,-2.5259,-2.5259,-2.5281,-2.53,-2.5605,-2.5951,-2.6319,-2.6655,-2.6996,-2.7363,-2.7426,-2.7507,-2.7717,-2.7677,-2.7893,-2.8413,-2.8379,-2.8584,-2.9112,-2.9258,-2.9532,-2.9918,-2.9934,-3.0,-3.0136,-3.0182,-3.032,-1.4165,-1.5107,-1.6122,-1.7809,-1.8904,-1.9628,-1.9792,-2.0047,-2.0123,-1.97,-1.9481,-1.9252,-1.8839,-1.9464,-2.0058,-2.0058,-2.0058,-2.0058,-2.0058,-1.9828,-1.9894,-2.0494,-2.0312,-2.0401,-2.1157,-2.0566,0.0,0.0,0.0,-1.8845,-1.8494,-1.7895,-1.756,-1.756,-1.7086,-1.6971,-1.7223,-1.7618,-1.8202,-1.893,-1.9275,-1.9578,-1.9837,-1.9837,-1.9888,-1.9952,-1.9939,-2.0359,-2.1066,-2.1017,-2.0993,-2.0993,-2.0919,-2.087,-2.087,-2.0771,-2.0833,-2.0957,-2.0957,-2.1055,-2.1153,-2.0932,-2.1006,-2.1129,-2.0932,-2.1006,-2.1177,-2.1177,-2.1434,-2.1688,-2.1688,-2.1949,-2.2208,-2.2208,-2.203,-2.2025,-2.2694,-2.315,-2.3435,-2.3421,-2.3507,-2.3627,-2.3743,-2.3891,-2.4184,-2.4728,-2.4808,-2.4906,-2.5163,-2.5284,-2.5398,-2.5454,-2.557,-2.579,-2.6144,-2.6386,-2.6656,-2.703,-2.7239,-2.7482,-2.7809,-2.7798,-2.8039,-2.859,-2.8634,-2.899,-2.9716,-2.9836,-2.9962,-3.0109,-3.0125,-3.024,-1.3315,-1.4127,-1.508,-1.638,-1.7343,-1.8148,-1.8846,-1.9229,-1.9412,-1.9197,-1.9085,-1.8909,-1.8533,-1.9254,-1.9838,-1.9594,-1.9563,-1.9503,-1.9352,-1.9272,-1.9434,-2.0061,-2.0167,-2.0428,-2.1016,-2.054,0.0,0.0,0.0,0.0,-1.7836,-1.7206,-1.6851,-1.6794,-1.6372,-1.6335,-1.6722,-1.699,-1.7387,-1.7941,-1.847,-1.8787,-1.8863,-1.9059,-1.9184,-1.9263,-1.9158,-1.9617,-2.0396,-2.0346,-2.0346,-2.0321,-2.022,-2.0207,-2.0169,-2.0105,-2.0182,-2.0334,-2.0334,-2.0459,-2.056,-2.0384,-2.0459,-2.056,-2.0384,-2.0459,-2.061,-2.061,-2.0871,-2.1142,-2.1142,-2.141,-2.166,-2.1599,-2.131,-2.1164,-2.1524,-2.2175,-2.2694,-2.2777,-2.2626,-2.2566,-2.286,-2.2905,-2.3091,-2.3664,-2.377,-2.3861,-2.4122,-2.4322,-2.4399,-2.4282,-2.4404,-2.4641,-2.5031,-2.5268,-2.5605,-2.607,-2.6299,-2.6539,-2.6769,-2.6785,-2.7101,-2.777,-2.7798,-2.8185,-2.8993,-2.936,-2.9633,-2.9834,-2.9834,-3.0003,0.0,0.0,0.0,-1.456,-1.494,-1.5444,-1.7739,-1.8497,-1.8501,-1.7883,-1.8541,-1.8868,-1.7802,-1.8479,-1.9017,-1.8338,-1.828,-1.8141,-1.769,-1.8093,-1.8709,-1.9317,-2.0282,-2.0713,-2.0263,-2.0643,0.0,0.0,-1.8093,-1.7564,-1.7011,-1.6483,-1.6144,-1.5988,-1.5988,-1.6154,-1.6548,-1.6595,-1.6859,-1.7375,-1.7916,-1.818,-1.8192,-1.872,-1.896,-1.896,-1.896,-1.9025,-1.9117,-1.9052,-1.8987,-1.8987,-1.8987,-1.8987,-1.8987,-1.8987,-1.9317,-1.9773,-1.9773,-2.0131,-2.0459,-1.9952,-2.0131,-2.0459,-1.9927,-2.0131,-2.056,-2.056,-2.056,-2.0585,-2.0585,-2.0585,-2.0535,-2.0421,-2.037,-2.0345,-2.0207,-2.1245,-2.2267,-2.2397,-2.2406,-2.2397,-2.2267,-2.2282,-2.2221,-2.2128,-2.2105,-2.2105,-2.2081,-2.2558,-2.2838,-2.2765,-2.3186,-2.364,-2.4132,-2.4153,-2.4353,-2.4843,-2.4863,-2.5012,-2.5317,-2.5336,-2.5763,-2.6715,-2.6731,-2.7063,-2.7759,-2.844,-2.8959,-2.9272,-2.9292,-2.9578,-1.2182,0.0,0.0,0.0,0.0,0.0,-1.4794,-1.5457,-1.6132,-1.6845,-1.6989,-1.7092,-1.739,-1.7448,-1.7264,-1.6799,-1.7765,-1.8544,-1.8412,-1.8002,-1.8036,-1.892,-1.8748,-1.9139,-2.064,0.0,0.0,0.0,-1.8314,-1.7405,-1.647,-1.6174,-1.5979,-1.5859,-1.5859,-1.5741,-1.5521,-1.6253,-1.6503,-1.6313,-1.7148,-1.7554,-1.7577,-1.8115,-1.812,-1.7727,-1.8147,-1.812,-1.782,-1.8655,-1.8987,-1.8987,-1.8987,-1.8987,-1.8987,-1.8987,-1.9093,-1.9225,-1.9225,-1.9317,-1.9422,-1.9265,-1.9317,-1.9422,-1.9277,-1.9317,-1.9448,-1.9448,-1.9721,-2.0105,-2.0383,-2.0169,-1.9927,-2.0181,-1.9953,-1.9722,-1.9863,-2.022,-2.0509,-2.0534,-2.062,-2.0794,-2.1151,-2.1455,-2.1756,-2.2058,-2.2105,-2.1997,-2.1687,-2.2044,-2.2207,-2.1885,-2.2248,-2.2682,-2.3142,-2.3186,-2.3367,-2.3791,-2.3812,-2.3802,-2.3813,-2.3798,-2.4182,-2.4989,-2.4989,-2.554,-2.6653,-2.7713,-2.835,-2.8589,-2.9076,-2.9354,0.0,0.0,0.0,0.0,0.0,0.0,-1.4215,-1.4412,-1.4674,-1.5918,-1.5977,-1.6036,-1.6741,-1.6475,-1.6152,-1.6105,-1.6778,-1.7401,-1.76,-1.7384,-1.7513,-1.8276,-1.8338,-1.8744,-1.9837,-1.9107,-1.846,-1.8175,-1.7404,-1.6502,-1.5471,-1.5333,-1.5243,-1.5187,-1.5164,-1.5051,-1.4777,-1.536,-1.5509,-1.5239,-1.6204,-1.6665,-1.6688,-1.7411,-1.7534,-1.723,-1.7562,-1.7534,-1.7257,-1.7957,-1.8267,-1.8267,-1.8267,-1.8267,-1.8267,-1.8267,-1.8267,-1.8267,-1.8267,-1.8267,-1.8267,-1.8267,-1.8267,-1.8267,-1.8267,-1.8429,-1.8575,-1.8321,-1.8432,-1.8661,-1.8826,-1.8626,-1.8447,-1.8611,-1.8596,-1.8593,-1.8688,-1.8715,-1.8912,-1.9526,-1.9708,-1.985,-2.0156,-2.0409,-2.066,-2.0917,-2.0966,-2.0892,-2.0657,-2.0988,-2.1086,-2.0682,-2.1013,-2.1387,-2.1655,-2.1679,-2.1932,-2.2581,-2.2603,-2.2566,-2.2499,-2.2372,-2.2643,-2.3332,-2.3202,-2.3871,-2.5327,-2.6618,-2.7502,-2.8022,-2.8552,-2.8839,0.0,0.0,0.0,0.0,0.0,0.0,-1.4668,-1.4337,-1.3935,-1.4961,-1.5127,-1.5234,-1.584,-1.5527,-1.5342,-1.5801,-1.5566,-1.5527,-1.6095,-1.6598,-1.7081,-1.7533,-1.8438,-1.8877,-1.8511,-1.846,-1.789,-1.6586,-1.5953,-1.5247,-1.4348,-1.4305,-1.4305,-1.4305,-1.4305,-1.4303,-1.4287,-1.4303,-1.4325,-1.4374,-1.5278,-1.5712,-1.5788,-1.6678,-1.7062,-1.7006,-1.7062,-1.7062,-1.7006,-1.7006,-1.709,-1.7202,-1.7202,-1.7202,-1.7202,-1.7202,-1.7202,-1.7202,-1.7202,-1.7202,-1.7202,-1.7202,-1.7202,-1.7202,-1.7174,-1.7534,-1.7875,-1.7313,-1.7073,-1.6916,-1.6715,-1.6687,-1.6631,-1.651,-1.6877,-1.724,-1.7118,-1.709,-1.7506,-1.8804,-1.9146,-1.9225,-1.9225,-1.9342,-1.9394,-1.9303,-1.9303,-1.9316,-1.9316,-1.9619,-1.9697,-1.9356,-1.9696,-1.9965,-2.0016,-2.0016,-2.037,-2.117,-2.1218,-2.1194,-2.1156,-2.0924,-2.1054,-2.1647,-2.146,-2.2136,-2.3688,-2.5273,-2.6505,-2.7417,-2.7747,-2.8052,0.0,0.0,0.0,0.0,0.0,0.0,-1.224,-1.2659,-1.3343,-1.3786,-1.3305,-1.3276,-1.4766,-1.4404,-1.4023,-1.4416,-1.4736,-1.5303,-1.6445,-1.6412,-1.6573,-1.7352,-1.73,-1.7548,-1.8343,-1.7413,-1.6828,-1.7026,-1.5527,-1.4501,-1.4305,-1.4305,-1.4305,-1.4305,-1.4305,-1.4266,-1.4212,-1.4277,-1.4446,-1.4784,-1.4987,-1.5258,-1.5579,-1.6203,-1.6226,-1.5777,-1.6244,-1.6197,-1.5748,-1.5748,-1.633,-1.7202,-1.7202,-1.7202,-1.7202,-1.7202,-1.7202,-1.7202,-1.7202,-1.7202,-1.7202,-1.7202,-1.7202,-1.7174,-1.7084,-1.7112,-1.7168,-1.6884,-1.6771,-1.6726,-1.6595,-1.6539,-1.651,-1.6368,-1.6425,-1.651,-1.6472,-1.6472,-1.6557,-1.6866,-1.7605,-1.819,-1.819,-1.8857,-1.9251,-1.8741,-1.8676,-1.8727,-1.8893,-1.8436,-1.829,-1.8866,-1.8859,-1.902,-1.95,-1.9526,-1.9526,-1.9475,-1.9475,-1.9333,-1.8943,-1.8864,-1.9063,-1.9506,-2.0176,-2.07,-2.1047,-2.3758,-2.5427,-2.6161,-2.6454,-2.6797,0.0,0.0,0.0,-1.3592,0.0,0.0,0.0,-1.2554,-1.2347,-1.3106,-1.2524,-1.2295,-1.3619,-1.3311,-1.3051,-1.3695,-1.418,-1.4766,-1.5635,-1.5968,-1.6339,-1.6982,-1.6833,-1.6902,-1.7502,-1.6729,-1.6058,-1.568,-1.4376,-1.3597,-1.3597,-1.3597,-1.3597,-1.3597,-1.3814,-1.3883,-1.3841,-1.4083,-1.4307,-1.4503,-1.475,-1.4971,-1.5164,-1.5634,-1.569,-1.541,-1.5719,-1.569,-1.541,-1.541,-1.5748,-1.6312,-1.6312,-1.6312,-1.6312,-1.6312,-1.6312,-1.6312,-1.6312,-1.6312,-1.6283,-1.6208,-1.6208,-1.6179,-1.6046,-1.5989,-1.595,-1.5737,-1.5438,-1.5099,-1.4621,-1.4748,-1.5002,-1.4904,-1.5129,-1.5352,-1.5352,-1.5352,-1.5352,-1.5342,-1.5793,-1.6363,-1.6996,-1.7523,-1.7743,-1.7446,-1.739,-1.7429,-1.7545,-1.7219,-1.7096,-1.7518,-1.7468,-1.7512,-1.7743,-1.7743,-1.7611,-1.7291,-1.7263,-1.7142,-1.6909,-1.6742,-1.6854,-1.7346,-1.8366,-1.8894,-1.892,-2.0894,-2.26,-2.4055,-2.4197,-2.4735,0.0,0.0,0.0,0.0,0.0,-1.3144,0.0,0.0,0.0,-1.2576,-1.2083,-1.1795,-1.2729,-1.2451,-1.2359,-1.3252,0.0,0.0,0.0,-1.5098,0.0,-1.6375,-1.6443,0.0,-1.657,-1.6055,-1.5225,-1.4065,-1.3232,-1.2793,-1.2905,-1.2905,-1.2944,-1.2998,-1.333,-1.3584,-1.375,-1.3977,-1.4138,-1.4194,-1.4454,-1.46,-1.4573,-1.4907,-1.5021,-1.5021,-1.5021,-1.5021,-1.5021,-1.5021,-1.5021,-1.5059,-1.5177,-1.5235,-1.5206,-1.5089,-1.5021,-1.5021,-1.5021,-1.5021,-1.503,-1.4902,-1.4813,-1.4754,-1.4636,-1.4567,-1.4469,-1.4275,-1.3837,-1.3312,-1.2665,-1.2917,-1.3321,-1.3321,-1.3687,-1.4019,-1.4019,-1.4019,-1.4019,-1.4022,-1.404,-1.4405,-1.5525,-1.5852,-1.5881,-1.5766,-1.5737,-1.5766,-1.5909,-1.5708,-1.5651,-1.5881,-1.5823,-1.5737,-1.5766,-1.5756,-1.5592,-1.5158,-1.5013,-1.4955,-1.5003,-1.4742,-1.479,-1.5235,-1.6012,-1.6503,-1.6618,-1.7267,-1.9017,-2.1789,-2.1872,-2.2439,0.0,0.0,0.0,0.0,-1.4542,0.0,0.0,0.0,-1.2475,-1.1955,0.0,-1.1506,-1.267,0.0,0.0,0.0,0.0,0.0,-1.2954,-1.3435,-1.4238,-1.542,-1.5566,0.0,0.0,-1.5059,-1.4114,-1.3613,-1.2759,-1.2447,-1.2886,-1.2905,-1.3047,-1.3418,-1.3486,-1.3877,-1.4629,-1.4307,-1.4209,-1.4449,-1.4106,-1.3816,-1.3652,-1.3696,-1.3722,-1.3722,-1.3722,-1.3722,-1.3722,-1.3722,-1.3722,-1.3773,-1.438,-1.4588,-1.4529,-1.3923,-1.3722,-1.3722,-1.3722,-1.3722,-1.3713,-1.3692,-1.3502,-1.3252,-1.3221,-1.3031,-1.2787,-1.2749,-1.2687,-1.2634,-1.2512,-1.2573,-1.2604,-1.2604,-1.2657,-1.2718,-1.2718,-1.2718,-1.2718,-1.2718,-1.2718,-1.2923,-1.3601,-1.4162,-1.4359,-1.3802,-1.3721,-1.3912,-1.4468,-1.3584,-1.3322,-1.4418,-1.4052,-1.3942,-1.4545,-1.4536,-1.4321,-1.3847,-1.325,-1.301,-1.3176,-1.3154,-1.3184,-1.3215,-1.2778,-1.283,-1.3429,-1.2934,-1.5188,-1.9909,-2.0319,-2.0285,0.0,0.0,0.0,0.0,0.0,0.0,-1.2397,0.0,-1.1898,0.0,0.0,0.0,0.0,0.0,0.0,0.0,-1.1876,0.0,0.0,0.0,-1.2533,0.0,0.0,0.0,0.0,0.0,0.0,0.0,-1.2222,-1.1788,-1.1916,-1.1909,-1.2074,-1.2446,-1.2707,-1.3123,-1.3693,-1.3728,-1.381,-1.3932,-1.3735,-1.3586,-1.3511,-1.3511,-1.3511,-1.3511,-1.3511,-1.3511,-1.3511,-1.3511,-1.3511,-1.3472,-1.3373,-1.3584,-1.3902,-1.3601,-1.3511,-1.3511,-1.3511,-1.3511,-1.3472,-1.326,-1.2978,-1.2696,-1.2696,-1.2604,-1.242,-1.2027,-1.1903,-1.1849,-1.1476,-1.1663,-1.1903,-1.1903,-1.1903,-1.181,-1.1423,-1.1648,-1.1686,-1.0923,-1.108,-1.1291,-1.1152,-1.1989,-1.2722,-1.2854,-1.2541,-1.2395,-1.2645,-1.2242,-1.1905,-1.1913,-1.2035,-1.2005,-1.1706,-1.2004,-1.1744,-1.0653,-1.0327,-1.0209,-1.0297,-1.0673,-1.0854,-1.0854,-1.059,-1.039,-1.0307,-1.0274,-1.1179,-1.2943,-1.5381,-1.6732,-1.8522,0.0,0.0,0.0,0.0,0.0,0.0,0.0,0.0,0.0,0.0,0.0,0.0,0.0,0.0,0.0,0.0,-1.1061,0.0,-1.0668,0.0,0.0,0.0,0.0,0.0,0.0,0.0,0.0,0.0,-1.1259,-1.1473,-1.1472,-1.1676,-1.2132,-1.2467,-1.2828,-1.3203,-1.3498,-1.3492,-1.323,-1.323,-1.3139,-1.2995,-1.2995,-1.2995,-1.2995,-1.2995,-1.2995,-1.2995,-1.2995,-1.3022,-1.3034,-1.2467,-1.2614,-1.3096,-1.2997,-1.2995,-1.2964,-1.2926,-1.2864,-1.2803,-1.2558,-1.2274,-1.202,-1.202,-1.202,-1.1872,-1.1389,-1.124,-1.1146,-1.0713,-1.0933,-1.1202,-1.1007,-1.0944,-1.0787,-1.011,-1.0332,-1.0401,-0.9422,-0.9608,-0.9793,-0.9326,-1.0028,-1.0833,-1.1346,-1.0996,-1.0669,-1.0669,-1.0638,-1.0349,-0.9711,-1.0065,-1.0027,-0.9281,-0.9509,-0.9,-0.7437,-0.7469,-0.7469,-0.7279,-0.7906,-0.8281,-0.8281,-0.8094,-0.7859,-0.755,-0.7718,-0.7528,-0.7113,-1.0727,-1.2687,0.0,0.0,0.0,-1.6272,0.0,0.0,0.0,0.0,-1.2931,0.0,0.0,0.0,0.0,0.0,0.0,0.0,0.0,0.0,0.0,0.0,0.0,0.0,0.0,0.0,0.0,0.0,0.0,0.0,0.0,0.0,-1.2115,-1.2183,-1.2493,-1.3223,-1.3257,-1.3503,-1.3979,-1.3987,-1.3489,-1.2543,-1.2543,-1.222,-1.1654,-1.1654,-1.1654,-1.1654,-1.1654,-1.1654,-1.1654,-1.1654,-1.1806,-1.2024,-1.174,-1.1806,-1.2017,-1.1772,-1.1654,-1.1622,-1.1428,-1.1279,-1.1185,-1.1153,-1.1028,-1.0863,-1.0863,-1.0776,-1.0649,-1.0618,-1.0624,-1.0624,-1.0624,-1.0624,-1.046,-0.9741,-0.955,-0.939,-0.871,-0.8581,-0.8581,-0.8554,-0.8549,-0.8554,-0.8522,-0.8581,-0.8613,-0.8613,-0.8613,-0.8581,-0.8581,-0.8425,-0.8296,-0.8264,-0.8161,-0.8091,-0.8054,-0.7414,-0.6322,-0.4725,-0.5114,-0.5117,-0.4469,-0.5084,-0.5436,-0.5436,-0.4794,-0.4758,-0.5403,-0.4758,-0.4521,-0.4692,-0.7523,-0.8305,0.0,0.0,-1.9965,-1.8029,0.0,0.0,0.0,0.0,0.0,0.0,0.0,0.0,0.0,0.0,0.0,0.0,0.0,0.0,0.0,0.0,0.0,0.0,0.0,-1.1531,0.0,0.0,0.0,0.0,-1.0667,0.0,0.0,-1.1357,-1.1696,-1.2158,-1.2358,-1.2635,-1.3006,-1.2783,-1.2517,-1.218,-1.1993,-1.1883,-1.1875,-1.1875,-1.1992,-1.2197,-1.2197,-1.2197,-1.2197,-1.2197,-1.2131,-1.1989,-1.1886,-1.145,-1.0923,-1.1276,-1.1404,-1.1373,-1.1216,-1.1059,-1.0839,-1.0383,-1.0098,-0.9869,-0.9422,-0.9262,-0.9198,-0.9198,-0.9198,-0.9198,-0.9198,-0.9198,-0.9134,-0.8909,-0.8844,-0.8651,-0.7977,-0.8199,-0.8361,-0.7907,-0.7847,-0.7847,-0.7847,-0.7153,-0.7018,-0.8296,-0.7994,-0.7637,-0.7637,-0.7479,-0.712,-0.6531,-0.6424,-0.6187,-0.5602,-0.4866,-0.4234,-0.3675,-0.3808,-0.3808,-0.358,-0.3438,-0.3367,-0.3367,-0.2802,-0.2368,-0.2132,-0.1903,-0.1569,-0.12,-0.1679,-0.2812,-2.119,-2.0999,0.0,-1.8809,-1.788,0.0,-1.5028,0.0,0.0,0.0,0.0,0.0,0.0,0.0,0.0,0.0,0.0,0.0,0.0,-0.8509,0.0,0.0,0.0,-1.0623,-1.0672,-1.0442,-1.0307,-1.0293,-1.0148,0.0,0.0,0.0,-1.1567,-1.1929,-1.2211,-1.2448,-1.2694,-1.2448,-1.2288,-1.2171,-1.1999,-1.2014,-1.2178,-1.2178,-1.2288,-1.2485,-1.2282,-1.218,-1.2173,-1.1969,-1.1674,-1.1389,-1.1279,-1.0751,-1.0091,-1.0701,-1.0692,-1.037,-1.0281,-1.0123,-0.9901,-0.9486,-0.9262,-0.9069,-0.8619,-0.849,-0.849,-0.849,-0.849,-0.849,-0.849,-0.849,-0.8425,-0.8199,-0.7999,-0.767,-0.6961,-0.7153,-0.7279,-0.6662,-0.6699,-0.6765,-0.6564,-0.5873,-0.5774,-0.7083,-0.6654,-0.6125,-0.599,-0.5796,-0.547,-0.4915,-0.4776,-0.4408,-0.3582,-0.3082,-0.2614,-0.2211,-0.2178,-0.2078,-0.1876,-0.154,-0.1238,-0.097,-0.0635,-0.01,0.0635,0.0635,0.097,0.1574,0.2107,0.1525]},{"header":{"parameterUnit":"m.s-1","parameterCategory":1,"la1":30.6,"la2":29.2853,"lo1":-89.7004,"lo2":-87.6739,"dy":0.0162,"dx":0.0183,"nx":112,"ny":82,"refTime":"2025-04-11T12:00:00:Z","depth":0,"parameterNumber":3,"parameterNumberName":"V-component_of_WINDS"},"data":[0.0,0.0,0.0,0.0,0.0,0.0,0.0,0.0,0.0,0.0,0.0,0.0,0.0,0.0,0.0,0.0,0.0,0.0,0.0,0.0,0.0,0.0,0.0,0.0,0.0,0.0,0.0,0.0,0.0,0.0,0.0,0.0,0.0,0.0,0.0,0.0,0.0,0.0,0.0,0.0,0.0,0.0,0.0,0.0,0.0,0.0,0.0,0.0,0.0,0.0,0.0,0.0,0.0,0.0,0.0,0.0,0.0,0.0,0.0,0.0,0.0,0.0,0.0,0.0,0.0,0.0,0.0,0.0,0.0,0.0,0.0,0.0,0.0,0.0,0.0,0.0,0.0,0.0,0.0,0.0,0.0,0.0,0.0,0.0,0.0,0.0,0.0,0.0,0.0,0.0,-1.314,-1.4119,-1.4975,-1.5623,-1.6028,-1.628,-1.6052,-1.5234,0.0,0.0,0.0,0.0,0.0,0.0,0.0,0.0,0.0,0.0,0.0,0.0,0.0,0.0,0.0,0.0,0.0,0.0,0.0,0.0,0.0,0.0,0.0,0.0,0.0,0.0,0.0,0.0,0.0,0.0,0.0,0.0,0.0,0.0,0.0,0.0,0.0,0.0,0.0,0.0,0.0,0.0,0.0,0.0,0.0,0.0,0.0,0.0,0.0,0.0,0.0,0.0,0.0,0.0,0.0,0.0,0.0,0.0,0.0,0.0,0.0,0.0,0.0,0.0,0.0,0.0,0.0,0.0,0.0,0.0,0.0,0.0,0.0,0.0,0.0,0.0,0.0,0.0,0.0,0.0,0.0,0.0,0.0,0.0,0.0,0.0,0.0,0.0,0.0,0.0,0.0,0.0,0.0,0.0,0.0,0.0,0.0,0.0,0.0,0.0,0.0,0.0,0.0,0.0,-1.2783,-1.4657,-1.5342,-1.573,-1.5914,-1.5711,-1.5342,-1.4741,0.0,0.0,0.0,0.0,0.0,0.0,0.0,0.0,0.0,0.0,0.0,0.0,0.0,0.0,0.0,0.0,0.0,0.0,0.0,0.0,0.0,0.0,0.0,0.0,0.0,0.0,0.0,0.0,0.0,0.0,0.0,0.0,0.0,0.0,0.0,0.0,0.0,0.0,0.0,0.0,0.0,0.0,0.0,0.0,0.0,0.0,0.0,0.0,0.0,0.0,0.0,0.0,0.0,0.0,0.0,0.0,0.0,0.0,0.0,0.0,0.0,0.0,0.0,0.0,0.0,0.0,0.0,0.0,0.0,0.0,0.0,0.0,0.0,0.0,0.0,0.0,0.0,0.0,0.0,0.0,0.0,0.0,0.0,0.0,0.0,0.0,0.0,0.0,0.0,0.0,0.0,0.0,0.0,0.0,0.0,0.0,0.0,0.0,0.0,0.0,0.0,0.0,0.0,-1.3075,-1.3808,-1.4983,-1.5537,-1.5827,-1.5885,-1.6054,-1.5675,-1.4566,-1.5365,0.0,0.0,0.0,0.0,0.0,0.0,0.0,0.0,0.0,0.0,0.0,0.0,0.0,0.0,0.0,0.0,0.0,0.0,0.0,0.0,0.0,0.0,0.0,0.0,0.0,0.0,0.0,0.0,0.0,0.0,0.0,0.0,0.0,0.0,0.0,0.0,0.0,0.0,0.0,0.0,0.0,0.0,0.0,0.0,0.0,0.0,0.0,0.0,0.0,0.0,0.0,0.0,0.0,0.0,0.0,0.0,0.0,0.0,0.0,0.0,0.0,0.0,0.0,0.0,0.0,0.0,0.0,0.0,0.0,0.0,0.0,0.0,0.0,0.0,0.0,0.0,0.0,0.0,0.0,0.0,0.0,0.0,0.0,0.0,0.0,0.0,0.0,0.0,0.0,0.0,0.0,0.0,0.0,0.0,0.0,0.0,0.0,0.0,0.0,0.0,0.0,0.0,-1.4091,-1.4811,-1.5118,-1.5527,-1.5817,-1.5885,-1.611,-1.5738,-1.4508,-1.5032,0.0,0.0,0.0,0.0,0.0,0.0,0.0,0.0,0.0,0.0,0.0,0.0,0.0,0.0,0.0,0.0,0.0,0.0,0.0,0.0,0.0,0.0,0.0,0.0,0.0,0.0,0.0,0.0,0.0,0.0,0.0,0.0,0.0,0.0,0.0,0.0,0.0,0.0,0.0,0.0,0.0,0.0,0.0,0.0,0.0,0.0,0.0,0.0,0.0,0.0,0.0,0.0,0.0,0.0,0.0,0.0,0.0,0.0,0.0,0.0,0.0,0.0,0.0,0.0,0.0,0.0,0.0,0.0,0.0,0.0,0.0,0.0,0.0,0.0,0.0,0.0,0.0,0.0,0.0,0.0,0.0,0.0,0.0,0.0,0.0,0.0,0.0,0.0,0.0,0.0,0.0,0.0,0.0,0.0,0.0,0.0,0.0,0.0,0.0,0.0,0.0,0.0,-1.4054,-1.4971,-1.5,-1.5284,-1.5575,-1.5885,-1.5149,-1.463,-1.4603,-1.4305,0.0,0.0,0.0,0.0,0.0,0.0,0.0,0.0,0.0,0.0,0.0,0.0,0.0,0.0,0.0,0.0,0.0,0.0,0.0,0.0,0.0,0.0,0.0,0.0,0.0,0.0,0.0,0.0,0.0,0.0,0.0,0.0,0.0,0.0,0.0,0.0,0.0,0.0,0.0,0.0,0.0,0.0,0.0,0.0,0.0,0.0,0.0,0.0,0.0,0.0,0.0,0.0,0.0,0.0,0.0,0.0,0.0,0.0,0.0,0.0,0.0,0.0,0.0,0.0,0.0,0.0,0.0,0.0,0.0,0.0,0.0,0.0,0.0,0.0,0.0,0.0,0.0,0.0,0.0,0.0,0.0,0.0,0.0,0.0,0.0,0.0,0.0,0.0,0.0,0.0,0.0,0.0,0.0,0.0,0.0,0.0,0.0,0.0,0.0,0.0,0.0,0.0,-1.3737,-1.4686,-1.4971,-1.5245,-1.5449,-1.5575,-1.5525,-1.5141,-1.4285,0.0,0.0,0.0,0.0,0.0,0.0,0.0,0.0,0.0,0.0,0.0,0.0,0.0,0.0,0.0,0.0,0.0,0.0,0.0,0.0,0.0,0.0,0.0,0.0,0.0,0.0,0.0,0.0,0.0,0.0,0.0,0.0,0.0,0.0,0.0,0.0,0.0,0.0,0.0,0.0,0.0,0.0,0.0,0.0,0.0,0.0,0.0,0.0,0.0,0.0,0.0,0.0,0.0,0.0,0.0,0.0,0.0,0.0,0.0,0.0,0.0,0.0,0.0,0.0,0.0,0.0,0.0,0.0,0.0,0.0,0.0,0.0,0.0,0.0,0.0,0.0,0.0,0.0,0.0,0.0,0.0,0.0,0.0,0.0,0.0,0.0,0.0,0.0,0.0,0.0,0.0,0.0,0.0,0.0,0.0,0.0,0.0,0.0,0.0,0.0,0.0,0.0,-1.239,-1.3599,-1.4533,-1.4942,-1.5196,-1.5362,-1.5478,-1.5548,-1.5143,-1.4157,0.0,0.0,0.0,0.0,0.0,0.0,0.0,0.0,0.0,0.0,0.0,0.0,0.0,0.0,0.0,0.0,0.0,0.0,0.0,0.0,0.0,0.0,0.0,0.0,0.0,0.0,0.0,0.0,0.0,0.0,0.0,0.0,0.0,0.0,0.0,0.0,0.0,0.0,0.0,0.0,0.0,0.0,0.0,0.0,0.0,0.0,0.0,0.0,0.0,0.0,0.0,0.0,0.0,0.0,0.0,0.0,0.0,0.0,0.0,0.0,0.0,0.0,0.0,0.0,0.0,0.0,0.0,0.0,0.0,0.0,0.0,0.0,0.0,0.0,0.0,0.0,0.0,0.0,0.0,0.0,0.0,0.0,0.0,0.0,0.0,0.0,0.0,0.0,0.0,0.0,0.0,0.0,0.0,0.0,0.0,0.0,0.0,0.0,0.0,0.0,0.0,0.0,-1.24,-1.3661,-1.4627,-1.497,-1.5127,-1.5323,-1.5672,-1.4916,-1.4391,0.0,0.0,0.0,0.0,0.0,0.0,0.0,0.0,0.0,0.0,0.0,0.0,0.0,0.0,0.0,0.0,0.0,0.0,0.0,0.0,0.0,0.0,0.0,0.0,0.0,0.0,0.0,0.0,0.0,0.0,0.0,0.0,0.0,0.0,0.0,0.0,0.0,0.0,0.0,0.0,0.0,0.0,0.0,0.0,0.0,0.0,0.0,0.0,0.0,0.0,0.0,0.0,0.0,0.0,0.0,0.0,0.0,0.0,0.0,0.0,0.0,0.0,0.0,0.0,0.0,0.0,0.0,0.0,0.0,0.0,0.0,0.0,0.0,0.0,0.0,0.0,0.0,0.0,0.0,0.0,0.0,0.0,0.0,0.0,0.0,0.0,0.0,0.0,0.0,0.0,0.0,0.0,0.0,0.0,0.0,0.0,0.0,0.0,0.0,0.0,0.0,0.0,0.0,-1.2157,-1.3534,-1.4616,-1.497,-1.543,-1.5826,-1.6093,-1.6051,-1.5722,-1.4971,0.0,0.0,0.0,0.0,0.0,0.0,0.0,0.0,0.0,0.0,0.0,0.0,0.0,0.0,0.0,0.0,0.0,0.0,0.0,0.0,0.0,0.0,0.0,0.0,0.0,0.0,0.0,0.0,0.0,0.0,0.0,0.0,0.0,0.0,0.0,0.0,0.0,0.0,0.0,0.0,0.0,0.0,0.0,0.0,0.0,0.0,0.0,0.0,0.0,0.0,0.0,0.0,0.0,0.0,0.0,0.0,0.0,0.0,0.0,0.0,0.0,0.0,0.0,0.0,0.0,0.0,0.0,0.0,0.0,0.0,0.0,0.0,0.0,0.0,0.0,0.0,0.0,0.0,0.0,0.0,0.0,0.0,0.0,0.0,0.0,0.0,0.0,0.0,0.0,0.0,0.0,0.0,0.0,0.0,0.0,0.0,0.0,0.0,0.0,0.0,0.0,0.0,-1.1943,-1.3186,-1.4284,-1.4824,-1.5507,-1.5989,-1.6208,-1.6477,-1.6198,-1.5222,0.0,0.0,0.0,0.0,0.0,0.0,0.0,0.0,0.0,0.0,0.0,0.0,0.0,0.0,0.0,0.0,0.0,0.0,0.0,0.0,0.0,0.0,0.0,0.0,0.0,0.0,0.0,0.0,0.0,0.0,0.0,0.0,0.0,0.0,0.0,0.0,0.0,0.0,0.0,0.0,0.0,0.0,0.0,0.0,0.0,0.0,0.0,0.0,0.0,0.0,0.0,0.0,0.0,0.0,0.0,0.0,0.0,0.0,0.0,0.0,0.0,0.0,0.0,0.0,0.0,0.0,0.0,0.0,0.0,0.0,0.0,0.0,0.0,0.0,0.0,0.0,0.0,0.0,0.0,0.0,0.0,0.0,0.0,0.0,0.0,0.0,0.0,0.0,0.0,0.0,0.0,0.0,0.0,0.0,0.0,0.0,0.0,0.0,0.0,0.0,0.0,0.0,-1.1717,-1.2752,-1.376,-1.461,-1.541,-1.5989,-1.6171,-1.6425,-1.6173,-1.5245,0.0,0.0,0.0,0.0,0.0,0.0,0.0,0.0,0.0,0.0,0.0,0.0,0.0,0.0,0.0,0.0,0.0,0.0,0.0,0.0,0.0,0.0,0.0,0.0,0.0,0.0,0.0,0.0,0.0,0.0,0.0,0.0,0.0,0.0,0.0,0.0,0.0,0.0,0.0,0.0,0.0,0.0,0.0,0.0,0.0,0.0,0.0,0.0,0.0,0.0,0.0,0.0,0.0,0.0,0.0,0.0,0.0,0.0,0.0,0.0,-0.4336,0.0,0.0,0.0,0.0,0.0,0.0,0.0,0.0,0.0,0.0,0.0,0.0,0.0,0.0,0.0,0.0,0.0,0.0,0.0,0.0,0.0,0.0,0.0,0.0,0.0,0.0,0.0,0.0,0.0,0.0,0.0,0.0,0.0,0.0,0.0,0.0,0.0,0.0,0.0,0.0,0.0,-1.1807,-1.2915,-1.3914,-1.461,-1.541,-1.6161,-1.6758,-1.7011,-1.6749,-1.5855,-1.5329,0.0,0.0,0.0,0.0,0.0,0.0,0.0,0.0,0.0,0.0,0.0,0.0,0.0,0.0,0.0,0.0,0.0,0.0,0.0,0.0,0.0,0.0,0.0,0.0,0.0,0.0,0.0,0.0,0.0,0.0,0.0,0.0,0.0,0.0,0.0,0.0,0.0,0.0,0.0,0.0,0.0,0.0,0.0,0.0,0.0,0.0,0.0,0.0,0.0,0.0,0.0,0.0,0.0,0.0,0.0,0.0,0.0,0.0,0.0,0.0,-0.5038,0.0,0.0,0.0,0.0,0.0,0.0,0.0,0.0,0.0,0.0,0.0,0.0,0.0,0.0,0.0,0.0,0.0,0.0,0.0,0.0,0.0,0.0,0.0,0.0,0.0,0.0,0.0,0.0,0.0,0.0,0.0,0.0,0.0,0.0,0.0,0.0,0.0,0.0,0.0,0.0,-1.1796,-1.2725,-1.3761,-1.4905,-1.5719,-1.6464,-1.714,-1.7459,-1.7337,-1.662,-1.5707,0.0,0.0,0.0,0.0,0.0,0.0,0.0,0.0,0.0,0.0,0.0,0.0,0.0,0.0,0.0,0.0,0.0,0.0,0.0,0.0,0.0,0.0,0.0,0.0,0.0,0.0,0.0,0.0,0.0,0.0,0.0,0.0,0.0,0.0,0.0,0.0,0.0,0.0,0.0,0.0,0.0,0.0,0.0,0.0,0.0,0.0,0.0,0.0,0.0,0.0,0.0,0.0,0.0,-0.2729,-0.2885,-0.2858,-0.2872,-0.3092,-0.3517,-0.4125,-0.464,-0.5133,-0.5808,0.0,0.0,0.0,0.0,0.0,0.0,0.0,0.0,0.0,0.0,0.0,0.0,0.0,0.0,0.0,0.0,0.0,0.0,0.0,0.0,0.0,0.0,0.0,0.0,-0.9451,-0.9275,0.0,0.0,0.0,0.0,0.0,0.0,0.0,0.0,0.0,0.0,0.0,0.0,-1.1968,-1.2724,-1.3774,-1.538,-1.6122,-1.6747,-1.7352,-1.7737,-1.7694,-1.7096,-1.6102,-1.5039,0.0,0.0,0.0,0.0,0.0,0.0,0.0,0.0,0.0,0.0,0.0,0.0,0.0,0.0,0.0,0.0,0.0,0.0,0.0,0.0,0.0,0.0,0.0,0.0,0.0,0.0,0.0,0.0,0.0,0.0,0.0,0.0,0.2134,0.2056,0.0,0.0,0.0,0.0,0.0,0.0,0.0,0.0,0.0,0.0,0.0,0.0,0.0,-0.2088,-0.2063,-0.2211,-0.2297,-0.2212,-0.2351,-0.2346,-0.2318,-0.2372,-0.2623,-0.3027,-0.3924,0.0,-0.5148,-0.5687,0.0,0.0,0.0,0.0,0.0,0.0,0.0,0.0,0.0,0.0,0.0,0.0,0.0,0.0,0.0,0.0,0.0,0.0,0.0,0.0,0.0,0.0,-0.9886,-0.9702,-0.9655,-0.9621,0.0,-0.9196,-0.8866,-0.8788,-0.891,0.0,0.0,0.0,0.0,0.0,0.0,0.0,-1.2827,-1.372,-1.4694,-1.6032,-1.6407,-1.6814,-1.7352,-1.7611,-1.7389,-1.6563,-1.6777,-1.63,-1.4878,-1.3908,0.0,0.0,0.0,0.0,0.0,0.0,0.0,0.0,0.0,0.0,0.0,0.0,0.0,0.0,0.0,0.0,0.0,0.0,0.0,0.0,0.0,0.0,0.0,0.0,0.0,0.0,0.0,0.0,0.0,0.2112,0.2195,0.2169,0.212,0.193,0.0,0.0,0.0,0.0,0.0,0.0,0.0,0.0,0.0,-0.2069,-0.2085,-0.2021,-0.1838,-0.2091,-0.2098,-0.1931,-0.2123,-0.2232,-0.2183,-0.2245,-0.2354,-0.2545,-0.3265,-0.3951,-0.4611,-0.564,-0.614,-0.6224,0.0,0.0,0.0,0.0,-0.5927,-0.6026,-0.6241,-0.6194,0.0,-0.6214,0.0,0.0,0.0,0.0,0.0,0.0,0.0,0.0,0.0,0.0,0.0,-1.0198,-1.0211,-1.0211,-1.0211,-1.0031,-0.97,0.0,-0.9453,-0.9576,-0.8915,0.0,0.0,0.0,0.0,-1.1504,-1.2813,-1.3405,-1.4364,-1.5993,-1.6283,-1.6719,-1.7705,-1.7991,-1.7832,-1.7223,-1.6919,-1.636,-1.5492,-1.4746,-1.4069,0.0,0.0,0.0,0.0,0.0,0.0,0.0,0.0,0.0,0.0,0.0,0.0,0.0,0.0,0.0,0.0,0.0,0.0,0.0,0.0,0.0,0.0,0.0,0.0,0.0,0.0,0.0,0.0,0.2181,0.2232,0.2232,0.2103,0.1827,0.0,0.0,0.0,0.0,0.0,0.0,-0.173,-0.1766,-0.1854,-0.1926,-0.1954,-0.1836,-0.1606,-0.186,-0.185,-0.1615,-0.185,-0.1954,-0.1968,-0.1981,-0.2017,-0.2151,-0.2907,-0.3539,-0.4214,-0.5411,-0.6043,-0.6258,-0.6059,-0.5959,-0.5888,-0.5888,-0.5947,-0.6004,-0.6162,-0.6207,-0.6195,-0.6051,0.0,-0.5843,-0.634,0.0,0.0,0.0,0.0,-0.9633,-1.0,-1.0174,-1.0287,-1.0539,-1.0593,-1.0624,-1.0656,-1.0691,-1.0485,0.0,-1.0044,-1.0193,-0.9353,0.0,0.0,0.0,0.0,-1.1956,-1.2994,-1.3393,-1.4275,-1.6118,-1.633,-1.6821,-1.8002,-1.8132,-1.7976,-1.7555,-1.688,-1.6338,-1.593,-1.5536,-1.4893,-1.4022,0.0,0.0,0.0,0.0,0.0,0.0,0.0,0.0,0.0,0.0,0.0,0.0,0.0,0.0,0.0,0.0,0.0,0.0,0.0,0.0,0.0,0.0,0.0,0.0,0.0,0.0,0.0,0.0,0.0,0.2295,0.186,0.0,0.0,0.0,0.0,-0.0434,-0.094,-0.123,-0.1232,-0.1234,-0.1236,-0.1239,-0.1299,-0.1332,-0.1333,-0.1352,-0.1324,-0.1336,-0.1325,-0.135,-0.1332,-0.1362,-0.1558,-0.199,-0.3232,-0.393,-0.4229,-0.4874,-0.5449,-0.5943,-0.6108,-0.6061,-0.5888,-0.5888,-0.602,-0.6199,-0.6207,-0.6207,-0.6204,-0.6339,-0.6266,-0.6178,-0.622,-0.6493,0.0,0.0,-0.8471,-0.9266,-0.9925,-1.0327,-1.0573,-1.0586,-1.0593,-1.0618,-1.0776,-1.0951,-1.0971,0.0,-1.0559,-1.0533,-1.0346,0.0,-1.0926,-1.1219,-1.1864,-1.2744,-1.3904,-1.4388,-1.5226,-1.6803,-1.6955,-1.7262,-1.803,-1.7691,-1.7286,-1.689,-1.6811,-1.6617,-1.6291,-1.6197,-1.5915,-1.5407,-1.3905,0.0,0.0,0.0,0.0,0.0,0.0,0.0,0.0,0.0,0.0,0.0,0.0,0.0,0.0,0.0,0.0,0.0,0.0,0.0,0.0,0.0,0.0,0.0,0.0,0.0,0.0,0.0,0.0,0.2443,0.2306,0.0,0.1013,0.056,-0.0037,-0.0839,-0.1093,-0.1211,-0.1195,-0.1252,-0.1272,-0.1254,-0.1275,-0.1296,-0.1316,-0.1318,-0.1313,-0.1303,-0.1313,-0.1297,-0.1297,-0.1308,-0.1386,-0.153,-0.1982,-0.248,-0.3051,-0.3901,-0.4923,-0.5912,-0.6088,-0.6121,-0.6097,-0.6097,-0.6201,-0.6323,-0.6221,-0.6254,-0.6314,-0.629,-0.6483,-0.6737,-0.6827,-0.7181,-0.7731,-0.8623,-0.9113,-0.9511,-1.0238,-1.0512,-1.0593,-1.0593,-1.0593,-1.0656,-1.0776,-1.0965,-1.1087,-1.1067,-1.0971,-1.082,-1.0447,-1.0887,-1.1368,-1.166,-1.2301,-1.3009,-1.3638,-1.3844,-1.446,-1.5806,-1.6112,-1.6536,-1.7256,-1.7368,-1.7102,-1.6404,-1.6358,-1.6173,-1.5797,-1.6091,-1.5856,-1.5008,-1.4751,-1.4114,0.0,0.0,0.0,0.0,0.0,0.0,0.0,0.0,0.0,0.0,0.0,0.0,0.0,0.0,0.0,0.0,0.0,0.0,0.0,0.0,0.0,0.0,0.0,0.0,0.0,0.3174,0.3237,0.3013,0.2741,0.2225,0.1362,0.0938,0.0273,-0.0806,-0.0881,-0.1004,-0.1217,-0.1277,-0.1297,-0.1317,-0.1308,-0.1317,-0.1305,-0.1318,-0.1303,-0.1303,-0.1303,-0.1286,-0.1296,-0.1296,-0.1296,-0.1296,-0.1571,-0.1936,-0.2382,-0.3387,-0.4268,-0.51,-0.5819,-0.6105,-0.6115,-0.6115,-0.6152,-0.6218,-0.6115,-0.6152,-0.6203,-0.6117,-0.6393,-0.674,-0.6831,-0.7148,-0.7658,-0.857,-0.9,-0.9326,-1.004,-1.0396,-1.0593,-1.0593,-1.0593,-1.0656,-1.087,-1.0996,-1.1153,-1.1365,-1.1323,-1.1159,-1.0876,-1.1291,-1.1794,-1.2064,-1.2626,-1.3127,-1.3455,-1.3511,-1.3923,-1.503,-1.5459,-1.5956,-1.6616,-1.6871,-1.6722,-1.6065,-1.5707,-1.5405,-1.5145,-1.5472,-1.5228,-1.4341,-1.4785,-1.4502,-1.3426,0.0,0.0,0.0,0.0,0.0,0.0,0.0,0.0,0.0,0.0,0.0,0.0,0.0,0.0,0.0,0.0,0.0,0.0,0.0,0.0,0.0,0.0,0.0,0.3504,0.3713,0.3927,0.3892,0.311,0.25,0.2402,0.1451,0.0546,-0.021,-0.0294,-0.0588,-0.1221,-0.1305,-0.1305,-0.1305,-0.1319,-0.1318,-0.1307,-0.132,-0.1305,-0.1304,-0.1304,-0.1288,-0.1296,-0.1296,-0.1296,-0.1335,-0.2119,-0.24,-0.2351,-0.3332,-0.356,-0.3461,-0.5309,-0.5973,-0.5859,-0.5888,-0.5888,-0.5888,-0.5888,-0.5888,-0.5888,-0.5888,-0.602,-0.6178,-0.621,-0.628,-0.6548,-0.7297,-0.7972,-0.8619,-0.9326,-1.004,-1.0561,-1.0593,-1.0593,-1.0688,-1.1028,-1.109,-1.1185,-1.1529,-1.1591,-1.1591,-1.1591,-1.1872,-1.2182,-1.2451,-1.2797,0.0,-1.345,-1.3511,-1.3812,-1.4617,-1.5118,-1.5615,-1.6143,-1.6196,-1.6108,-1.5865,-1.4936,-1.4396,-1.4396,-1.4396,-1.4165,-1.3647,-1.3949,-1.405,-1.3883,0.0,0.0,0.0,0.0,0.0,0.0,0.0,0.0,0.0,0.0,0.0,0.0,0.0,0.0,0.0,0.0,0.0,0.0,0.0,0.0,0.0,0.4944,0.4643,0.4178,0.424,0.4272,0.4122,0.3937,0.349,0.2646,0.227,0.1665,0.0588,0.0,-0.0378,-0.0546,-0.1052,-0.1305,-0.1305,-0.1298,-0.1307,-0.1378,-0.137,-0.1356,-0.1294,-0.1294,-0.1308,-0.1296,-0.1296,-0.1296,-0.1296,-0.1532,-0.1604,-0.1633,-0.2501,-0.2731,-0.2662,-0.4349,-0.4998,-0.5024,-0.5488,-0.5683,-0.5719,-0.5855,-0.5822,-0.5719,-0.5855,-0.5921,-0.602,-0.6148,-0.6214,-0.6445,-0.726,-0.7619,-0.8037,-0.9198,-0.9646,-0.9939,-1.046,-1.0593,-1.0688,-1.1028,-1.109,-1.1185,-1.1529,-1.1591,-1.1591,-1.1591,-1.1872,-1.2182,-1.2451,-1.2797,0.0,-1.345,-1.3511,-1.3842,-1.4745,-1.5342,-1.5682,-1.5611,-1.6162,-1.5926,-1.4609,-1.4446,-1.4396,-1.4396,-1.4396,-1.4337,-1.4167,-1.446,-1.4337,0.0,0.0,0.0,0.0,0.0,0.0,0.0,0.0,0.0,0.0,0.0,0.0,0.0,0.0,0.0,0.0,0.0,0.0,0.0,0.0,0.0,0.0,0.5433,0.5042,0.4895,0.4884,0.4888,0.4755,0.4641,0.4319,0.365,0.3427,0.2886,0.1899,0.1423,0.1035,0.0733,-0.0129,-0.0605,-0.0605,-0.1072,-0.138,-0.1409,-0.1384,-0.1321,-0.1305,-0.1294,-0.1303,-0.1296,-0.1296,-0.1296,0.0,-0.1296,-0.1296,-0.1335,-0.1786,-0.1889,0.0,0.0,0.0,0.0,0.0,-0.5521,-0.5521,-0.5657,-0.5624,-0.5521,-0.5657,-0.5723,-0.5785,-0.5914,-0.6017,-0.6181,-0.6802,-0.7158,-0.7582,-0.842,-0.8877,-0.9262,-0.997,-1.0136,-1.0295,-1.0839,-1.1028,-1.1185,-1.1435,-1.1529,0.0,-1.1591,-1.1747,-1.1996,-1.2305,-1.2582,-1.292,-1.3246,-1.342,-1.3782,-1.4538,-1.5089,-1.5402,-1.5361,-1.5887,0.0,0.0,0.0,-1.4076,-1.3787,-1.384,0.0,0.0,0.0,0.0,0.0,0.0,0.0,0.0,-1.559,-1.549,0.0,0.0,0.0,0.0,0.0,0.0,0.0,0.0,0.0,0.0,0.0,0.0,0.0,0.0,0.0,0.0,0.6096,0.5386,0.5478,0.5518,0.5529,0.5529,0.5264,0.5055,0.501,0.461,0.4072,0.3398,0.3264,0.2904,0.2277,0.0,0.0,0.0,0.0,-0.123,-0.1341,-0.125,-0.1223,-0.1258,-0.1274,-0.1286,-0.1296,-0.1296,-0.1296,-0.1296,-0.1296,-0.1294,-0.1289,-0.1223,-0.1192,-0.1342,-0.2779,-0.3744,-0.4386,-0.5024,-0.5329,-0.5395,-0.5395,0.0,0.0,-0.5395,-0.5491,-0.5583,-0.5583,-0.5719,-0.5921,-0.6115,-0.6601,-0.7149,-0.7391,-0.7907,-0.8554,-0.923,-0.939,-0.9614,-1.0516,-1.0839,-1.1028,-1.1247,-1.1435,-1.156,-1.156,-1.1591,-1.1716,-1.2058,-1.2305,-1.2582,-1.295,-1.3246,-1.364,-1.416,0.0,0.0,-1.5257,-1.5595,-1.5662,-1.5333,-1.454,-1.3761,-1.3019,-1.3242,-1.3548,-1.3948,-1.4547,-1.505,-1.5429,-1.6262,-1.6667,-1.6621,-1.6101,-1.6086,0.0,0.0,0.0,0.0,0.0,0.0,0.0,0.0,0.0,0.0,0.0,0.0,0.0,0.0,0.0,0.7096,0.6633,0.6132,0.5585,0.5594,0.5653,0.5653,0.5586,0.5416,0.5055,0.4921,0.4654,0.4119,0.3534,0.3129,0.2995,0.2234,0.1429,0.0671,0.0401,-0.0089,-0.0832,-0.0825,-0.0892,-0.1065,0.0,0.0,-0.1296,-0.1296,-0.1296,-0.1296,-0.1296,-0.1282,-0.122,-0.1214,-0.1179,-0.1197,-0.203,-0.3145,-0.432,-0.4456,-0.4891,-0.5395,-0.5395,-0.5395,-0.5395,-0.5395,-0.5428,-0.5458,-0.555,-0.5617,0.0,-0.5888,-0.6181,-0.6535,-0.712,-0.7484,-0.7874,-0.8522,-0.8683,-0.8941,-0.9805,-1.0028,-1.0288,-1.0996,-1.1185,-1.1216,-1.1341,-1.1498,-1.1716,-1.2058,-1.2151,-1.2367,-1.292,-1.3042,-1.3376,-1.413,-1.4854,-1.5244,-1.5066,-1.5837,-1.5882,-1.4828,-1.4653,-1.4227,-1.3499,-1.4072,-1.4183,-1.3696,-1.4215,-1.4451,-1.4399,-1.5848,-1.6435,-1.6222,-1.6703,-1.6958,0.0,0.0,0.0,0.0,0.0,0.0,0.0,0.0,0.0,0.0,0.0,0.9595,0.9832,0.0,0.8905,0.8371,0.761,0.6853,0.6243,0.591,0.5688,0.5688,0.5688,0.5599,0.5371,0.5371,0.5238,0.5015,0.4654,0.4429,0.4429,0.3528,0.2756,0.2289,0.1233,0.0437,-0.0086,-0.0508,-0.0749,-0.0854,-0.0804,-0.0834,-0.0943,-0.0943,-0.0943,-0.0943,-0.0943,-0.093,-0.0907,-0.0884,-0.0855,-0.0858,-0.1285,-0.2182,-0.3282,-0.4018,-0.4522,-0.4891,-0.5259,-0.5395,-0.5395,-0.5395,-0.5395,-0.5425,-0.5491,-0.5488,-0.5521,-0.5686,-0.5818,-0.6013,-0.6437,-0.6704,-0.7027,-0.7707,-0.7934,-0.8199,-0.8967,-0.948,-0.9932,-1.0351,-1.08,-1.1122,-1.1185,-1.1341,-1.1529,-1.1809,-1.1996,-1.2212,-1.2521,-1.2797,-1.3255,-1.3881,-1.4677,-1.5187,-1.5336,-1.5894,-1.5892,-1.5033,-1.5027,-1.4815,-1.4323,-1.4769,-1.4779,-1.4172,-1.4553,-1.4587,-1.425,-1.5764,-1.6427,-1.6343,-1.7378,-1.7553,0.0,0.0,0.0,0.0,0.0,0.0,0.0,0.9645,0.9913,1.0279,1.0523,1.073,1.1078,1.0632,1.0121,0.9812,0.8794,0.7878,0.7346,0.6605,0.6086,0.6041,0.5822,0.5688,0.5688,0.5688,0.5688,0.5688,0.5688,0.5688,0.5688,0.4765,0.4098,0.3858,0.2202,0.1195,0.0876,0.0082,-0.0325,-0.0404,-0.0476,-0.055,-0.0589,-0.0589,-0.0589,-0.0589,-0.0583,-0.0613,-0.0599,-0.0569,-0.0549,-0.0506,-0.0674,-0.1178,-0.1946,-0.3351,-0.4018,-0.432,-0.4957,-0.5292,-0.5395,-0.5395,-0.5395,-0.5395,-0.5395,-0.5395,-0.5428,-0.5521,-0.5583,-0.565,-0.5789,-0.5984,-0.6276,-0.6826,-0.706,-0.7391,-0.8096,-0.8903,-0.9544,-0.9709,-1.0415,-1.0996,-1.1028,-1.1115,-1.1272,-1.1498,-1.1809,-1.2034,-1.2089,-1.2521,-1.2972,-1.342,-1.4291,-1.5098,-1.5788,-1.5973,-1.5896,-1.5484,-1.5478,-1.5358,-1.4997,-1.5247,-1.5197,-1.4771,-1.4974,-1.4879,-1.4514,-1.5984,-1.6622,-1.6563,-1.7948,-1.8114,1.4561,1.3913,1.3163,1.2269,1.2005,1.1864,0.0,1.1224,1.1364,1.1617,1.1555,1.1498,1.1507,1.1319,1.0945,1.0313,1.0096,0.9744,0.9039,0.8133,0.7485,0.7312,0.6349,0.5688,0.5688,0.5688,0.5688,0.5688,0.5688,0.5688,0.5688,0.5455,0.4954,0.4074,0.3742,0.3122,0.2279,0.1463,0.0964,0.0708,0.0,-0.0432,-0.0589,-0.0589,-0.0589,-0.0588,-0.06,-0.0587,-0.0583,-0.0519,-0.0507,-0.0506,-0.0539,-0.0607,-0.0808,-0.1946,-0.3049,-0.4082,-0.432,-0.4858,-0.5395,-0.5395,-0.5395,-0.5395,-0.5395,-0.5395,-0.5395,-0.5428,-0.5521,-0.5617,-0.5617,-0.5785,-0.5954,-0.602,-0.6053,-0.6313,-0.7149,-0.7887,-0.8597,-0.9384,-1.0136,-1.0688,-1.0807,-1.0839,-1.0958,-1.1279,-1.1529,-1.1747,-1.2065,-1.2151,-1.2305,-1.2605,-1.3782,-1.504,-1.623,-1.6322,-1.6161,-1.5693,-1.5831,-1.5658,-1.5044,-1.5247,-1.5268,-1.4977,-1.5003,-1.4997,-1.4945,-1.6513,-1.706,-1.6632,-1.8203,-1.8714,1.4796,1.4277,1.3695,1.2482,1.2281,1.2291,1.1823,1.1838,1.2017,1.2125,1.2189,1.2241,1.2241,1.2159,1.1923,1.1359,1.0961,1.0308,0.9183,0.8313,0.7537,0.685,0.6278,0.5917,0.5727,0.5688,0.5688,0.5688,0.5688,0.5688,0.5688,0.564,0.5372,0.4852,0.4298,0.379,0.3256,0.2422,0.1937,0.1839,0.1019,0.0588,0.047,0.0,-0.0236,-0.0235,-0.0261,-0.0255,-0.0254,-0.0207,-0.0202,-0.0236,-0.0337,-0.0303,-0.0337,-0.141,-0.2144,-0.2678,-0.318,-0.3851,-0.4492,-0.4553,-0.4791,-0.5096,-0.5329,-0.5326,-0.5259,-0.5362,-0.5425,-0.5491,-0.5491,-0.5587,-0.5719,-0.5719,-0.5822,-0.5987,-0.6375,-0.7051,-0.7827,-0.8581,-0.939,-1.0104,-1.0586,-1.0744,-1.0839,-1.0989,-1.1247,-1.1466,-1.1622,-1.1903,-1.2336,-1.2903,-1.3601,-1.449,-1.5594,-1.5875,-1.6034,-1.6105,-1.6186,-1.6102,-1.5842,-1.5932,-1.5806,-1.5401,-1.5401,-1.5266,-1.4997,-1.6629,-1.7272,-1.7102,-1.8717,-1.9397,1.5116,1.4876,1.4587,1.3293,1.3072,1.3065,1.2576,1.2515,1.2504,1.2421,1.2572,1.2705,1.2705,1.2705,1.2577,1.2229,1.1789,1.109,1.0101,0.9056,0.8051,0.7249,0.6681,0.6231,0.5855,0.5857,0.5827,0.5819,0.5863,0.5863,0.5822,0.5833,0.5762,0.5585,0.4916,0.4482,0.4304,0.3439,0.301,0.2934,0.2113,0.1684,0.1605,0.0824,0.0392,0.0352,0.0149,0.0036,0.0,0.0,0.0,0.0,-0.0169,-0.0135,-0.0101,-0.0873,-0.1308,-0.1608,-0.2177,-0.3015,-0.3823,-0.3918,-0.4323,-0.4864,-0.5163,-0.5126,-0.5057,-0.5259,-0.5292,-0.5263,-0.5362,-0.5422,-0.5484,-0.5521,-0.5657,-0.5756,-0.5822,-0.6465,-0.7214,-0.7739,-0.8549,-0.9326,-0.9837,-1.0225,-1.0453,-1.0453,-1.0863,-1.1209,-1.1303,-1.1685,-1.2266,-1.3086,-1.3351,-1.3833,-1.4785,-1.5235,-1.5623,-1.5951,-1.6163,-1.6259,-1.6259,-1.6259,-1.6133,-1.5821,-1.5811,-1.5684,-1.538,-1.6669,-1.7383,-1.7579,-1.8875,-1.9566,1.5865,1.6045,1.6181,1.5561,1.525,1.4922,1.4108,1.3496,1.2997,1.2735,1.2699,1.2705,1.2705,1.2705,1.2705,1.2662,1.2662,1.2619,1.2577,1.1009,0.9749,0.9527,0.7878,0.6605,0.0,0.6202,0.617,0.6074,0.6254,0.6299,0.6083,0.6228,0.6181,0.5996,0.5906,0.5732,0.5559,0.4727,0.4258,0.4029,0.3169,0.266,0.2426,0.1841,0.145,0.1212,0.0559,0.0182,0.0,0.0,0.0,0.0,0.0,0.0,0.0,-0.0034,-0.0572,-0.134,-0.1542,-0.2581,-0.3792,-0.3792,-0.4259,-0.4797,-0.4831,-0.4831,-0.4861,-0.5057,-0.496,-0.4897,-0.5296,-0.5259,-0.5156,-0.5359,-0.5395,-0.5458,-0.5583,-0.6199,-0.6756,-0.6924,-0.7647,-0.8264,-0.8275,-0.8962,-0.955,-0.955,-1.0256,-1.0933,-1.1272,-1.1466,-1.1926,-1.2742,-1.2826,-1.3161,-1.3974,-1.459,-1.4943,-1.4943,-1.5565,-1.5914,-1.5914,-1.5914,-1.5961,-1.6093,-1.6093,-1.6179,-1.6361,-1.6793,-1.7313,-1.7902,-1.8486,-1.8977,1.651,1.6632,1.664,1.625,1.6125,1.5919,1.5431,1.4705,1.4126,1.4035,1.3316,1.2757,1.2936,1.2692,1.2499,1.2674,1.2705,1.2485,1.1843,1.1235,1.0527,0.9743,0.8576,0.7695,0.7488,0.0,0.0,0.6173,0.6219,0.6299,0.6296,0.6348,0.6263,0.5999,0.5988,0.586,0.5601,0.5321,0.5162,0.5087,0.4261,0.3515,0.289,0.2696,0.227,0.1682,0.1477,0.0998,0.04,0.0246,0.0205,0.0202,0.0202,0.0101,0.0,0.0135,-0.0067,-0.0437,-0.0505,-0.1176,-0.2014,-0.2112,-0.2882,-0.3787,-0.4059,-0.4395,-0.4694,-0.4861,-0.4861,-0.4831,-0.4964,-0.4964,-0.496,-0.5156,-0.519,-0.5256,-0.5425,-0.5749,-0.6137,-0.6658,-0.7088,-0.7479,-0.7989,-0.8318,-0.871,-0.9268,-1.0193,-1.0902,-1.1153,-1.131,-1.149,-1.1794,-1.2112,-1.2566,-1.3152,-1.3965,-1.456,-1.4875,-1.5536,-1.5885,-1.5885,-1.5885,-1.5914,-1.5961,-1.5961,-1.599,-1.6058,-1.6616,-1.6972,-1.7196,-1.8135,-1.8658,1.7027,1.7305,1.7488,1.7329,1.715,1.6982,1.666,1.5928,1.517,1.4648,1.3864,1.3196,1.2914,1.2618,1.2464,1.2776,1.2819,1.2596,1.2003,1.1671,1.1139,1.0349,0.9431,0.8675,0.8238,0.7392,0.671,0.6254,0.6427,0.6496,0.649,0.6536,0.6476,0.6248,0.6191,0.6059,0.5834,0.5831,0.5792,0.5712,0.5121,0.453,0.3984,0.3787,0.3359,0.2774,0.2556,0.1898,0.1018,0.0885,0.0655,0.0371,0.0371,0.0303,0.0202,0.0337,0.0303,0.0169,0.0034,-0.0471,-0.1109,-0.1208,-0.1944,-0.285,-0.3119,-0.362,-0.4123,-0.4292,-0.4461,-0.4664,-0.4764,-0.4764,-0.4761,-0.496,-0.499,-0.5027,-0.5163,-0.5322,-0.5547,-0.6034,-0.6297,-0.6597,-0.7051,-0.7605,-0.8285,-0.9172,-1.004,-1.0713,-1.0965,-1.1122,-1.1247,-1.1303,-1.1615,-1.1957,-1.2343,-1.3122,-1.3807,-1.4382,-1.503,-1.5498,-1.5701,-1.573,-1.5759,-1.5827,-1.5827,-1.5856,-1.5885,-1.6228,-1.6606,-1.7017,-1.7765,-1.8309,1.7577,1.8119,1.8715,1.8742,1.8381,1.8037,1.7827,1.7074,1.6075,1.4712,1.4384,1.3964,1.2802,1.2559,1.2654,1.294,1.2991,1.3051,1.3105,1.2363,1.1671,1.1456,1.0577,0.9627,0.8581,0.833,0.7732,0.6494,0.0,0.6933,0.6638,0.68,0.6858,0.6705,0.6552,0.6443,0.6303,0.63,0.618,0.5902,0.5712,0.5637,0.5598,0.504,0.4647,0.4404,0.3768,0.2861,0.1887,0.1837,0.1309,0.0573,0.0539,0.0506,0.0506,0.0506,0.0506,0.0438,0.0135,-0.0438,-0.1008,-0.1008,-0.1478,-0.2047,-0.2047,-0.2547,-0.3184,-0.3387,-0.3792,-0.4264,-0.4628,-0.4628,-0.4558,-0.4761,-0.4797,-0.4797,-0.4797,-0.496,-0.509,-0.509,-0.5352,-0.5583,-0.5583,-0.692,-0.8253,-0.9107,-0.9817,-1.0396,-1.0744,-1.0965,-1.1122,-1.1272,-1.1272,-1.1373,-1.156,-1.212,-1.2757,-1.342,-1.4112,-1.4765,-1.5352,-1.5391,-1.5478,-1.5643,-1.5643,-1.574,-1.5856,-1.574,-1.6228,-1.7268,-1.7296,-1.7886,1.8369,1.8664,1.8779,1.9072,1.9061,1.8975,1.8886,1.7982,1.704,1.6665,1.5599,1.4453,1.3743,1.3495,1.332,1.3057,1.3156,1.3315,1.3343,1.3137,1.2918,1.2875,1.2052,1.131,1.0941,1.0336,0.9377,0.0,0.7219,0.6849,0.6987,0.6943,0.6858,0.6705,0.6552,0.6443,0.6303,0.63,0.6261,0.618,0.6145,0.6106,0.6106,0.5948,0.5512,0.4838,0.4568,0.3902,0.3011,0.2191,0.1755,0.1478,0.0943,0.064,0.0506,0.0674,0.064,0.0472,0.0404,0.0236,0.0101,0.0101,-0.0471,-0.1141,-0.1141,-0.1712,-0.238,-0.2447,-0.2549,-0.2817,-0.3451,-0.3585,-0.3751,-0.4492,-0.4661,-0.4694,-0.4764,-0.4831,-0.4861,-0.4861,-0.5057,-0.5219,-0.5219,-0.6658,-0.7837,-0.8064,-0.9236,-1.0212,-1.0586,-1.0776,-1.0902,-1.0926,-1.1059,-1.1185,-1.1216,-1.1779,-1.2412,-1.31,-1.3765,-1.443,-1.5079,-1.5108,-1.5117,-1.5176,-1.5176,-1.5215,-1.5235,-1.5215,-1.5313,-1.5613,-1.6065,-1.668,1.8854,1.9065,1.9114,1.9286,1.9301,1.9256,1.9081,1.8473,1.7789,1.7097,1.6192,1.5253,1.4404,1.3999,1.3737,1.3574,1.3517,1.351,1.3548,1.3525,1.3483,1.3398,1.2918,1.2432,1.1941,1.1435,1.0657,0.9452,0.832,0.7493,0.7041,0.6948,0.6912,0.6823,0.6649,0.6456,0.63,0.63,0.63,0.63,0.63,0.63,0.6296,0.6228,0.5889,0.5416,0.0,0.4751,0.3852,0.2952,0.2338,0.1911,0.1211,0.0876,0.0775,0.0876,0.0876,0.0775,0.0775,0.0775,0.074,0.0573,0.0168,-0.0235,-0.0235,-0.0773,-0.141,-0.141,-0.1643,-0.2045,-0.2783,-0.2984,-0.3186,-0.4056,-0.4292,-0.4359,-0.4428,-0.4595,-0.4728,-0.4797,-0.4894,-0.4957,-0.4957,-0.6104,-0.7022,-0.712,-0.8188,-0.9198,-0.9805,-1.0295,-1.0649,-1.0776,-1.0902,-1.0996,-1.109,-1.1421,-1.1996,-1.2948,-1.3334,-1.3983,-1.497,-1.5,-1.5,-1.5,-1.5,-1.5,-1.5,-1.5,-1.5147,-1.54,-1.6007,-1.6624,1.9192,1.9395,1.9597,1.939,1.9341,1.9279,1.8797,1.8669,1.8261,1.6832,1.6494,1.6139,1.4987,1.4448,1.4222,1.4277,1.3954,1.3694,1.3733,1.3704,1.3649,1.3519,1.3483,1.3179,1.2357,1.2152,1.171,1.0855,0.9837,0.8698,0.7272,0.7111,0.7046,0.7003,0.6777,0.6563,0.6374,0.6374,0.6374,0.6374,0.6374,0.6367,0.6342,0.6167,0.6054,0.6027,0.5909,0.0,0.4642,0.3894,0.3116,0.2347,0.1578,0.1277,0.1277,0.1176,0.1143,0.1143,0.1143,0.1109,0.1042,0.0707,0.0573,0.0539,0.0539,0.0101,-0.037,-0.037,-0.0839,-0.1476,-0.2216,-0.2484,-0.2753,-0.3489,-0.3825,-0.3995,-0.3995,-0.4295,-0.4595,-0.4661,-0.4731,-0.4764,-0.4764,-0.5484,-0.6141,-0.6301,-0.7051,-0.7929,-0.8828,-0.9646,-1.0269,-1.0681,-1.0744,-1.0807,-1.1028,-1.1028,-1.1553,-1.2734,-1.2795,-1.3381,-1.4725,-1.4754,-1.4784,-1.4852,-1.4882,-1.4911,-1.4911,-1.4911,-1.5196,-1.5729,-1.6265,-1.6821,1.9975,1.9963,1.9784,1.9597,1.9666,1.9593,1.8883,1.8562,1.8221,1.7478,1.7052,1.6553,1.5736,1.5694,1.546,1.4471,1.4223,1.4156,1.4043,1.3785,1.3725,1.3971,1.3997,1.3913,1.3743,1.3698,1.3149,1.1773,1.1511,1.0569,0.8734,0.7822,0.7197,0.6919,0.6856,0.6826,0.6788,0.6788,0.6788,0.6788,0.6788,0.6721,0.6559,0.6529,0.6401,0.623,0.6109,0.0,0.5748,0.4898,0.4403,0.4023,0.2683,0.2182,0.2115,0.1479,0.1277,0.1277,0.1277,0.1176,0.1076,0.1008,0.0875,0.0742,0.0742,0.0539,0.0337,0.0337,0.0236,-0.0034,-0.0706,-0.1342,-0.1978,-0.2718,-0.3389,-0.3859,-0.3961,-0.4197,-0.4298,-0.4161,-0.4395,-0.4628,-0.4628,-0.5348,-0.5939,-0.5968,-0.6597,-0.7414,-0.8452,-0.8967,-0.9512,-1.0301,-1.0403,-1.0466,-1.0688,-1.0688,-1.0996,-1.1701,-1.167,-1.2189,-1.3541,-1.3442,-1.3593,-1.416,-1.4357,-1.4417,-1.4417,-1.4536,-1.4654,-1.4743,-1.4852,-1.5216,2.0188,2.0225,2.0069,1.9833,1.9673,1.94,1.8713,1.8313,1.7905,1.731,1.7037,1.6795,1.6438,1.6286,1.5995,1.5378,1.472,1.4352,1.444,1.3974,1.3713,1.4048,1.4088,1.4088,1.4088,1.4088,1.3745,1.2855,1.2377,1.1321,0.9455,0.8494,0.8105,0.8318,0.7889,0.7625,0.751,0.751,0.7279,0.6742,0.6742,0.6656,0.6456,0.6374,0.6292,0.6172,0.6048,0.0,0.5936,0.5146,0.4749,0.4586,0.3516,0.3082,0.2982,0.2283,0.2016,0.1982,0.158,0.1412,0.1344,0.1344,0.1177,0.0942,0.0942,0.0875,0.0808,0.0808,0.0808,0.0639,-0.0067,-0.0504,-0.0939,-0.1679,-0.2484,-0.322,-0.3792,-0.3961,-0.3995,-0.3925,-0.4059,-0.4192,-0.4192,-0.4688,-0.5054,-0.5054,-0.5484,-0.6141,-0.7018,-0.76,-0.8479,-0.9983,-1.0142,-1.0174,-1.0276,-1.0301,-1.0548,-1.1188,-1.1188,-1.1748,-1.3078,-1.3039,-1.3321,-1.398,-1.4079,-1.4139,-1.4139,-1.4198,-1.4228,-1.4258,-1.4567,-1.4991,2.0149,2.0275,2.0274,1.9906,1.964,1.9231,1.8498,1.8106,1.7759,1.7165,1.6978,1.6968,1.6968,1.6617,1.6334,1.6229,1.5258,1.4567,1.467,1.4069,1.3649,1.3896,1.3901,1.3901,1.3901,1.3901,1.3774,1.3474,1.2777,1.1612,0.9888,0.9202,0.9126,0.9642,0.9064,0.8628,0.8397,0.8245,0.7739,0.6902,0.6758,0.6594,0.6391,0.6263,0.6222,0.6147,0.6048,0.0,0.0,0.5385,0.5113,0.5014,0.4278,0.4013,0.3913,0.3218,0.2986,0.2885,0.215,0.1883,0.1816,0.1648,0.1412,0.121,0.121,0.121,0.121,0.121,0.121,0.1076,0.0437,0.0168,-0.0134,-0.0908,-0.178,-0.2584,-0.332,-0.3623,-0.3792,-0.3758,-0.3758,-0.3792,-0.3792,-0.4028,-0.4197,-0.4197,-0.4431,-0.4891,-0.5639,-0.6268,-0.7349,-0.93,-0.9722,-0.9856,-0.9881,-0.9919,-1.0168,-1.0717,-1.0703,-1.1267,-1.2581,-1.2642,-1.3009,-1.3769,-1.389,-1.395,-1.395,-1.398,-1.401,-1.401,-1.449,-1.4884,1.9923,2.0264,2.043,1.9774,1.9725,1.9558,1.8385,1.823,1.8158,1.7555,1.7289,1.7166,1.7166,1.6996,1.6687,1.6259,1.5683,1.5095,1.4442,1.3847,1.3461,1.3299,1.3293,1.3293,1.3293,1.3293,1.3199,1.3076,1.2767,1.1841,1.0238,0.9903,0.9803,0.9857,0.982,0.9644,0.9358,0.87,0.8193,0.7855,0.7258,0.6852,0.6648,0.6654,0.6557,0.6374,0.6358,0.0,0.0,0.6284,0.6181,0.6013,0.5253,0.4987,0.4885,0.4148,0.3882,0.3785,0.3121,0.2755,0.2485,0.1816,0.158,0.1547,0.1547,0.1547,0.1547,0.1547,0.1547,0.148,0.1244,0.0739,0.0034,-0.0874,-0.178,-0.2383,-0.2348,-0.3119,-0.3758,-0.3563,-0.3661,-0.3792,-0.3792,-0.3825,-0.3859,-0.3859,-0.3959,-0.4323,-0.5074,-0.551,-0.6268,-0.7772,-0.878,-0.9402,-0.9524,-0.9728,-0.9836,-0.9894,-0.9748,-1.0186,-1.1421,-1.1469,-1.1965,-1.3072,-1.3558,-1.383,-1.383,-1.395,-1.401,-1.401,-1.407,-1.4121,1.9775,2.0039,2.0089,1.9848,1.9652,1.9311,1.8478,1.8133,1.7902,1.7577,1.7426,1.7392,1.7392,1.7323,1.7206,0.0,0.0,1.5886,1.5741,1.4976,1.4352,1.4239,1.4004,1.3768,1.3574,1.3548,1.3457,1.3179,1.2919,1.2499,1.1859,1.1197,1.0916,1.1228,1.0791,1.0412,1.0119,0.969,0.9146,0.8476,0.7757,0.7343,0.7156,0.6722,0.6547,0.6581,0.6581,0.0,0.0,0.6613,0.6544,0.6445,0.605,0.5885,0.5785,0.5113,0.4845,0.4746,0.402,0.3785,0.3649,0.2815,0.2651,0.2618,0.1849,0.1614,0.1614,0.1614,0.1614,0.158,0.1513,0.1277,0.0874,0.0067,-0.0638,-0.1309,-0.1878,-0.2616,-0.3121,-0.3023,-0.3259,-0.3391,-0.3188,-0.3391,-0.3629,-0.3629,-0.3761,-0.399,-0.4284,-0.508,-0.5811,-0.6367,-0.767,-0.8716,-0.9172,-0.9274,-0.9312,-0.9312,-0.9242,-0.9741,-1.0944,-1.0993,-1.1531,-1.2674,-1.292,-1.3033,-1.3033,-1.3064,-1.3094,-1.3094,-1.3094,-1.3277,1.9338,1.9629,1.9697,1.957,1.9316,1.8948,1.8398,1.8016,1.7759,1.7666,1.7598,1.7564,1.7564,1.7529,1.7505,0.0,0.0,1.6504,1.6431,1.5634,1.4961,1.4644,1.435,1.405,1.3703,1.3641,1.3529,1.3273,1.3093,1.2931,1.2839,1.2171,1.189,1.219,1.1679,1.1221,1.0787,1.0474,0.9892,0.9141,0.8443,0.8024,0.7939,0.7419,0.7125,0.7092,0.7092,0.0,0.0,0.6811,0.6741,0.6741,0.6613,0.6552,0.6486,0.6013,0.5844,0.5745,0.5014,0.4845,0.4776,0.3949,0.3785,0.3718,0.2817,0.2183,0.1783,0.1783,0.1748,0.1681,0.1681,0.1648,0.148,0.0941,0.037,-0.0269,-0.104,-0.1643,-0.208,-0.2251,-0.2485,-0.2621,-0.2554,-0.2857,-0.3127,-0.3127,-0.336,-0.3558,-0.3489,-0.4289,-0.4984,-0.5246,-0.6392,-0.7535,-0.8463,-0.8598,-0.863,-0.863,-0.863,-0.9069,-1.0072,-1.0363,-1.0937,-1.188,-1.2197,-1.239,-1.2451,-1.2451,-1.2451,-1.2482,-1.2482,-1.2789,1.8617,1.8965,1.9189,1.8724,1.8617,1.85,1.8115,1.8018,1.8008,1.8008,1.7828,1.7706,1.7706,1.7588,1.7505,1.7505,0.0,0.0,1.5849,1.5459,1.4941,1.4007,1.3908,1.3779,1.3431,1.3294,1.3207,1.32,1.32,0.0,1.2706,1.2692,1.2614,1.2396,1.2396,1.2102,1.1488,1.0817,1.0334,0.999,0.9314,0.8994,0.8988,0.8988,0.8603,0.0,0.0,0.0,0.0,0.6913,0.6913,0.6913,0.6881,0.6881,0.6881,0.6881,0.6881,0.6778,0.6108,0.587,0.5771,0.5014,0.4782,0.4782,0.4782,0.3553,0.2188,0.2188,0.2052,0.1884,0.1884,0.1749,0.1614,0.158,0.1042,0.0504,0.047,-0.0067,-0.067,-0.121,-0.1311,-0.1513,-0.2087,-0.2221,-0.2221,-0.2221,-0.2656,-0.2922,-0.2753,-0.3023,-0.3556,-0.4411,-0.4872,-0.5767,-0.7391,-0.7629,-0.7699,-0.7699,-0.7699,-0.7949,-0.849,-0.9358,-1.0021,-1.0514,-1.1507,-1.2112,-1.2305,-1.2305,-1.2359,-1.2482,-1.2482,-1.2789,1.9266,1.9083,1.8773,1.8637,1.8598,1.849,1.8105,1.8008,1.8008,1.8008,1.774,1.7502,1.7502,1.7203,1.7073,1.7373,0.0,0.0,1.6902,1.6499,1.6071,1.5533,1.5257,1.4874,1.4285,1.4188,1.3941,1.3455,1.3179,1.3012,1.2911,1.2693,1.24,1.1983,1.1976,1.1777,1.1365,1.1072,1.0864,1.0737,1.0021,0.9697,0.9665,0.9212,0.8956,0.0,0.0,0.0,0.0,0.7363,0.7106,0.7106,0.6946,0.6913,0.6913,0.6913,0.6913,0.6881,0.6642,0.6675,0.6638,0.5807,0.5609,0.5576,0.4981,0.4417,0.3885,0.3518,0.3121,0.279,0.279,0.2757,0.2688,0.2688,0.2251,0.1644,0.114,0.0804,0.0402,-0.0269,-0.0403,-0.0604,-0.1143,-0.1446,-0.1715,-0.2154,-0.2356,-0.2421,-0.2354,-0.272,-0.3115,-0.3378,-0.4312,-0.5441,-0.6835,-0.733,-0.7559,-0.7559,-0.7559,-0.7782,-0.8264,-0.8554,-0.916,-1.0142,-1.0458,-1.0912,-1.1466,-1.1466,-1.1498,-1.1529,-1.1529,-1.1646,1.9739,1.9502,1.9172,1.9172,1.9172,1.91,1.8859,1.8563,1.8321,1.8185,1.7757,1.7367,1.7168,1.6882,1.6794,1.709,1.7275,1.7298,1.6966,1.6797,1.6567,1.6219,1.5992,1.5696,1.5244,1.493,1.4595,1.4151,1.3553,1.3138,1.301,1.2546,1.2123,1.1739,1.1815,1.1721,1.1404,1.1341,1.1279,1.1279,1.0825,1.0598,1.0598,1.0174,0.9888,0.0,0.0,0.0,0.0,0.8009,0.7684,0.7652,0.7269,0.7138,0.7138,0.7138,0.7138,0.7138,0.7138,0.7204,0.7232,0.6666,0.6568,0.6535,0.5972,0.5342,0.4716,0.4381,0.3918,0.3489,0.3489,0.3357,0.3192,0.3192,0.2956,0.2584,0.2114,0.1945,0.171,0.104,0.0905,0.0637,-0.0168,-0.047,-0.084,-0.1447,-0.1682,-0.1783,-0.1783,-0.2048,-0.228,-0.2382,-0.318,-0.4179,-0.5378,-0.6371,-0.6905,-0.6905,-0.6905,-0.7031,-0.7326,-0.7582,-0.8064,-0.8822,-0.934,-0.9888,-1.0408,-1.08,-1.0996,-1.0996,-1.1059,-1.109,0.0,2.0062,1.9998,1.9998,1.9998,1.9998,1.9998,1.9467,0.0,1.8477,1.7902,1.7298,1.686,1.6711,1.6701,1.6736,1.709,1.7083,1.6282,1.6496,1.6613,1.6223,1.6302,1.6318,1.6224,1.5595,1.5146,1.5053,1.413,1.3386,1.3052,1.2419,1.1924,1.163,1.1877,1.1892,1.1599,1.1591,1.1591,1.1591,1.1591,1.1591,1.1591,1.1591,1.124,0.0,0.0,0.0,0.0,0.8877,0.8581,0.8522,0.7842,0.7619,0.7619,0.7587,0.7559,0.7559,0.7554,0.7554,0.7559,0.7559,0.7559,0.7559,0.7559,0.6334,0.4948,0.4948,0.4547,0.4148,0.4148,0.372,0.3326,0.3326,0.3293,0.3259,0.3259,0.3259,0.3123,0.2551,0.2484,0.2114,0.084,0.0605,0.0336,-0.0337,-0.0774,-0.1042,-0.1042,-0.1042,-0.1177,-0.148,-0.1745,-0.2313,-0.3353,-0.4888,-0.5822,-0.5888,-0.5888,-0.5888,-0.5888,-0.6507,-0.6859,-0.6892,-0.828,-0.9116,-0.934,-1.0281,-1.0744,-1.0744,-1.0933,-1.1028,2.0447,0.0,1.8892,1.8892,1.8892,1.8892,0.0,1.8726,1.857,1.8494,1.8112,1.7701,1.7441,1.6859,1.6577,1.7125,1.716,1.7028,1.6821,1.6974,1.7035,1.6957,1.7553,1.7571,1.6537,1.6276,1.5748,1.4729,1.4272,1.3787,1.3276,1.2915,1.2522,1.1996,1.204,1.1923,1.1591,1.1591,1.1591,1.1591,1.1591,1.1591,1.1591,1.1591,1.156,0.0,0.0,0.0,1.0426,0.9767,0.9422,0.923,0.8818,0.8657,0.863,0.8344,0.8252,0.8214,0.7987,0.8052,0.8252,0.8252,0.8252,0.8252,0.8252,0.733,0.6243,0.6243,0.5881,0.5455,0.5455,0.5054,0.4655,0.4655,0.4328,0.3964,0.3725,0.3861,0.383,0.3159,0.3257,0.3153,0.2114,0.1478,0.0908,0.0336,-0.0236,-0.064,-0.064,-0.064,-0.0674,-0.0741,-0.131,-0.2012,-0.2818,-0.4082,-0.5077,-0.565,-0.5822,-0.5888,-0.5888,-0.605,-0.6375,-0.6892,-0.828,-0.9282,-0.9849,-1.0079,-1.0174,-1.0174,-1.0238,-1.0269,1.9865,1.9837,1.9837,1.9837,1.9837,1.9837,1.9837,1.9385,1.8899,1.8725,1.8265,1.7893,1.7916,1.7259,1.687,1.742,1.7273,1.7096,1.7096,1.7138,1.72,1.72,1.7803,1.7846,0.0,1.6619,1.6218,1.5477,1.4878,1.4389,1.4061,1.3657,1.3312,1.2986,1.2956,1.2597,1.184,1.184,1.184,1.184,1.184,1.184,1.184,1.184,1.1872,0.0,0.0,0.0,1.1351,1.0647,1.03,1.0142,0.9646,0.9454,0.9428,0.9268,0.9049,0.8829,0.8662,0.8538,0.8517,0.8517,0.8517,0.8517,0.8517,0.8052,0.7531,0.7531,0.7129,0.6736,0.6736,0.6338,0.5943,0.5943,0.5481,0.4987,0.4818,0.4625,0.4398,0.3928,0.4025,0.3856,0.2917,0.2515,0.2082,0.1477,0.084,0.0437,0.0336,0.0067,-0.0169,-0.027,-0.0639,-0.1176,-0.1914,-0.2611,-0.3678,-0.5156,-0.5326,-0.5392,-0.5392,-0.5392,-0.5885,-0.6892,-0.7637,-0.8544,-0.9536,-0.9632,-0.969,-0.969,-0.9754,-0.9786,1.9083,2.0205,2.1289,2.1175,2.1223,2.1284,2.1313,2.0458,1.9622,1.9285,1.8794,1.8442,1.8654,1.8061,1.7659,1.8011,1.7748,1.751,1.7542,1.7448,1.7365,1.7273,1.7688,0.0,1.7181,1.6789,1.6507,1.6407,1.5576,1.5031,1.4943,1.4471,1.4183,1.4094,1.4094,1.3554,1.2482,1.2428,1.2328,1.2243,1.2243,1.2182,1.2096,1.2096,1.212,1.212,0.0,0.0,1.2089,1.1469,1.1173,1.1118,1.0496,1.0243,1.0243,1.018,0.9901,0.9556,0.9466,0.9113,0.8705,0.8679,0.8641,0.8641,0.8641,0.8641,0.8641,0.8641,0.8242,0.7804,0.7804,0.7414,0.7022,0.7022,0.6433,0.5903,0.5903,0.5319,0.4764,0.4661,0.4625,0.4392,0.3585,0.3485,0.332,0.2718,0.2146,0.1708,0.1541,0.0907,0.0438,0.0269,0.0135,-0.0202,-0.0941,-0.1107,-0.2111,-0.4325,-0.4595,-0.4694,-0.4797,-0.4797,-0.5418,-0.6728,-0.6761,-0.7447,-0.885,-0.9011,-0.9145,-0.9274,-0.9364,-0.939,1.9567,2.0262,2.0754,2.0197,2.0382,2.0759,2.0863,2.0733,2.0619,2.0746,2.0677,2.0569,2.0445,1.9669,1.9316,2.0021,1.9379,1.8859,1.9047,1.8585,1.808,1.7678,1.8028,1.7934,1.6951,1.6808,1.6555,1.6045,1.5924,1.57,1.5167,1.5167,1.4932,1.444,1.441,1.4321,1.4142,1.3855,1.3433,1.2864,1.2864,1.2597,1.2096,1.2096,1.2151,1.2274,0.0,1.2274,1.2274,1.2143,1.2019,1.1895,1.1522,1.1334,1.1303,1.0982,1.0793,1.0667,1.0269,0.9913,0.9556,0.9414,0.9356,0.9356,0.9356,0.9356,0.9356,0.9356,0.8867,0.8382,0.8382,0.7977,0.7577,0.7577,0.6724,0.5903,0.5903,0.5319,0.4797,0.4764,0.4764,0.4728,0.4595,0.4125,0.3723,0.3589,0.2982,0.2511,0.2477,0.1843,0.1375,0.1342,0.0807,0.0135,-0.0538,-0.0605,-0.1309,-0.2919,-0.3625,-0.4192,-0.4764,-0.4797,-0.519,-0.6034,-0.6067,-0.6752,-0.8156,-0.8188,-0.849,-0.9049,-0.9081,-0.8914,1.9461,1.9976,2.0474,2.0454,2.0893,2.1336,2.1382,2.1162,2.0982,2.1067,2.1096,2.1084,2.1061,2.0667,2.0352,2.046,1.9918,1.9449,1.9405,1.9124,1.8617,1.7812,0.0,1.7637,1.6679,1.6586,1.6485,1.6194,1.622,0.0,1.5865,1.5894,1.5807,1.5546,1.5546,1.5546,1.5546,1.5381,1.4815,1.3795,1.3795,1.3472,1.285,1.285,1.2697,1.2467,0.0,1.2467,1.2467,1.2467,1.2436,1.2344,1.2189,1.2151,1.2089,1.1615,1.1428,1.1365,1.0863,1.0579,1.044,1.0326,1.0142,0.9926,0.9926,0.9926,0.9958,1.0161,0.9626,0.9034,0.9034,0.8861,0.8657,0.8657,0.7967,0.7312,0.7312,0.6433,0.5646,0.5517,0.5223,0.4927,0.4827,0.4628,0.4489,0.4489,0.3951,0.338,0.288,0.2211,0.1576,0.1076,0.0707,0.0371,0.0067,0.0034,-0.074,-0.2586,-0.3389,-0.3925,-0.4261,-0.4259,-0.4589,-0.5276,-0.5309,-0.5968,-0.7288,-0.7288,-0.7614,-0.8172,-0.8172,-0.8107,2.007,2.0307,2.0713,2.1084,2.1365,2.1625,2.2036,2.1605,2.1214,2.1502,2.158,2.1572,2.1549,2.1443,2.1206,2.0747,2.0487,2.0282,2.0079,1.9785,1.9231,1.8254,1.8044,1.7603,1.6693,1.6591,1.6534,1.6402,1.6413,0.0,1.6413,1.6413,1.6413,1.6413,1.6413,1.6413,1.6413,1.6413,1.5836,1.4706,1.4706,1.438,1.3713,1.3713,1.348,1.3042,1.3042,1.3042,1.3042,1.2889,1.2797,1.2797,1.2652,1.259,1.256,1.2151,1.1996,1.1903,1.1365,1.1178,1.117,1.1139,1.0888,1.0604,1.0667,1.0699,1.0762,1.0993,1.0591,1.004,0.9856,0.9702,0.9548,0.9516,0.9017,0.8549,0.8549,0.7605,0.6724,0.6564,0.6005,0.5481,0.5322,0.5289,0.5289,0.5289,0.4954,0.4417,0.368,0.3013,0.2246,0.138,0.1111,0.0943,0.0775,0.0606,-0.0269,-0.2014,-0.3019,-0.3625,-0.3792,-0.3792,-0.4056,-0.455,-0.455,-0.5113,-0.6243,-0.6375,-0.6736,-0.733,-0.7391,-0.7391,2.2313,2.2153,2.1833,2.1758,2.1036,2.0776,2.2452,2.1985,2.153,2.271,2.2952,2.2802,2.2318,2.2226,2.206,2.1519,2.1719,2.1913,2.1918,2.0931,2.003,1.9518,1.9021,1.8306,1.7256,1.7146,1.6944,1.6431,1.6413,0.0,1.6413,1.6413,1.6413,1.6413,1.6413,1.6413,1.6413,1.6413,1.6048,1.5323,1.5323,1.503,1.444,1.444,1.441,1.435,1.435,1.435,1.4321,1.3692,1.345,1.339,1.2828,1.259,1.259,1.2567,1.2529,1.2467,1.1934,1.174,1.1709,1.1524,1.1454,1.1485,1.1764,1.1888,1.1888,1.1919,1.1857,1.164,1.0899,1.0225,0.974,0.9548,0.9075,0.8672,0.8672,0.8248,0.7897,0.7864,0.7279,0.6761,0.6761,0.6243,0.5855,0.5855,0.5822,0.5756,0.569,0.505,0.4317,0.3623,0.2954,0.2251,0.158,0.0908,0.0235,-0.0437,-0.1913,-0.3088,-0.3758,-0.3792,-0.3825,-0.3859,-0.3859,-0.4223,-0.4948,-0.5448,-0.6046,-0.6773,-0.7068,-0.7068,2.178,2.1711,2.1691,2.1993,2.1833,2.1852,2.2754,2.3243,2.3632,2.4129,2.4208,2.3873,2.2957,2.2506,2.2246,2.2033,2.2417,2.2475,2.1699,2.12,2.0475,1.9241,1.892,1.8515,1.7838,1.7765,1.7683,1.7484,0.0,0.0,1.6888,1.6591,1.6413,1.6413,1.6413,1.6413,1.6413,1.6477,1.6363,1.6019,1.6019,1.5681,1.5059,1.5059,1.4854,1.4499,1.4499,1.4499,1.4469,1.4231,1.4112,1.4082,1.364,1.3224,1.2867,1.3072,1.3155,1.3125,1.2934,1.2873,1.2834,1.2765,1.2543,1.2328,1.2451,1.2512,1.2543,1.2765,1.2734,1.2451,1.1734,1.1055,1.0528,1.0433,0.9964,0.9524,0.9524,0.9032,0.8635,0.8635,0.8059,0.7572,0.7572,0.699,0.6535,0.6535,0.6181,0.5723,0.5286,0.4981,0.4517,0.3816,0.3119,0.2586,0.2318,0.1613,0.0908,0.0235,-0.1075,-0.2116,-0.279,-0.2788,-0.2788,-0.2788,-0.2788,-0.3088,-0.3613,-0.3813,-0.4478,-0.551,-0.5642,-0.5877,2.1979,2.1789,2.1957,2.2325,2.2686,2.3055,2.3488,2.4149,2.4803,2.513,2.4918,2.4412,2.3586,2.2843,2.229,2.2131,2.2569,2.2585,2.1633,2.1354,2.0819,1.9674,1.9353,1.9049,1.856,1.8513,1.8405,1.819,0.0,0.0,0.0,1.7022,1.6807,1.6994,1.6892,1.6807,1.6807,1.6909,1.6807,1.6516,1.6516,1.6278,1.5787,1.5816,1.5613,1.5235,1.5167,1.5206,1.5206,1.4962,1.4756,1.4608,1.438,1.3992,1.3631,1.3863,1.3944,1.3944,1.3944,1.3944,1.3944,1.3893,1.3653,1.3403,1.3359,1.3329,1.339,1.361,1.358,1.3381,1.2917,1.2104,1.1392,1.1329,1.0843,1.0421,1.0421,0.9932,0.9512,0.9512,0.893,0.8479,0.8479,0.7864,0.7414,0.7414,0.683,0.621,0.5708,0.5444,0.5047,0.4312,0.3618,0.322,0.322,0.2517,0.1813,0.1142,0.0101,-0.0908,-0.1884,-0.1918,-0.2018,-0.2188,-0.2188,-0.2353,-0.2683,-0.2813,-0.3347,-0.4212,-0.4314,-0.4652,2.3418,2.2888,2.2888,2.2888,2.3426,2.408,2.4694,2.4568,2.4655,2.5702,2.5092,2.43,2.4215,2.3218,2.2254,2.1801,2.216,2.2353,2.1959,2.1436,2.109,2.1078,2.0553,1.9991,1.9449,1.9397,1.9097,1.8367,0.0,0.0,0.0,1.7733,1.7749,1.8286,1.7929,1.7722,1.7722,1.7722,1.7401,1.6818,1.6807,1.6751,1.6609,1.6751,1.6818,1.6779,1.6666,1.6694,1.6751,1.594,1.5342,1.4914,1.4904,1.4914,1.4914,1.4914,1.4914,1.4914,1.4914,1.4914,1.4884,1.4756,1.4706,1.4686,1.4565,1.4515,1.4515,1.4515,1.4515,1.4515,1.4515,1.342,1.2266,1.2074,1.1655,1.1303,1.1303,1.0933,1.0624,1.0624,1.0009,0.9518,0.9518,0.8973,0.8522,0.8522,0.7944,0.7521,0.7489,0.6872,0.6148,0.5477,0.4749,0.432,0.432,0.3651,0.2984,0.2449,0.1713,0.0538,-0.121,-0.1277,-0.158,-0.2154,-0.2188,-0.2188,-0.2188,-0.2649,-0.288,-0.2913,-0.3284,-0.3487,2.1953,2.2302,2.3053,2.3053,2.4628,2.6373,2.7045,2.7019,2.7056,2.7922,2.7145,2.6208,2.5817,2.4389,2.3068,2.2563,2.2245,2.189,2.141,2.1193,2.0937,2.0514,2.031,2.0131,1.9991,1.9965,1.9875,1.9657,0.0,0.0,0.0,1.8498,1.8282,1.8432,1.8309,1.8255,1.8255,1.8352,1.8271,1.7995,1.7804,1.7374,1.6751,1.6779,1.6818,1.6818,1.6751,1.6751,1.6779,1.6542,1.6093,1.5633,1.5806,1.5633,1.5284,1.5517,1.5604,1.5604,1.5604,1.5604,1.5604,1.5546,1.5555,1.5468,1.5098,1.4981,1.4922,1.4595,1.4515,1.4515,1.4515,1.424,1.3825,1.3191,1.2581,1.2151,1.2151,1.1663,1.124,1.124,1.0793,1.0421,1.0421,0.9932,0.9506,0.9416,0.8807,0.8129,0.7587,0.7386,0.706,0.6371,0.5774,0.5411,0.5411,0.4414,0.3682,0.3549,0.2954,0.1847,0.0034,-0.0034,-0.0134,-0.0302,-0.0672,-0.0874,-0.0874,-0.1377,-0.1812,-0.2211,-0.2313,-0.2581,2.2432,2.2732,2.3304,2.3803,2.5212,2.6775,2.7994,2.8338,2.8512,2.8963,2.7911,2.6762,2.6399,2.4802,2.3383,2.2887,2.2497,2.1996,2.1327,2.1223,2.1015,2.0462,2.0385,2.0385,2.0385,2.0385,2.0398,0.0,0.0,0.0,0.0,1.9226,1.9042,1.9279,1.9109,1.903,1.903,1.9097,1.9004,1.8697,1.8536,1.8186,1.7661,1.7429,1.7318,1.729,1.7088,1.6959,1.6892,1.6987,1.6779,1.6485,1.6637,1.6467,1.6171,1.6371,1.6457,1.6457,1.6457,1.6457,1.6428,1.6257,1.6189,1.6075,1.5613,1.5497,1.541,1.5137,1.5128,1.5216,1.5216,1.5206,1.4971,1.4172,1.3524,1.3083,1.3083,1.2581,1.2097,1.2097,1.1663,1.1288,1.1288,1.0818,1.0408,1.032,0.9703,0.893,0.8194,0.8161,0.7962,0.7288,0.692,0.6625,0.6305,0.5342,0.4743,0.4743,0.3984,0.3017,0.1944,0.1476,0.1141,0.094,0.0336,0.0034,0.0,-0.0572,-0.1043,-0.1344,-0.1344,-0.1678,2.3835,2.3718,2.3703,2.492,2.5416,2.6041,2.7843,2.8598,2.8992,2.9138,2.7739,2.6459,2.6352,2.4812,2.3407,2.2962,2.2797,2.2453,2.1588,2.1458,2.1302,2.0823,2.0749,2.0749,2.0699,2.0699,2.0662,0.0,0.0,0.0,0.0,1.9901,1.9952,2.0486,2.0105,1.9888,1.9888,1.9888,1.963,1.9146,1.9093,1.9093,1.9119,1.8483,1.8174,1.8147,1.7673,1.734,1.7207,1.7368,1.7434,1.7445,1.7379,1.7379,1.7379,1.7334,1.7334,1.7379,1.7306,1.7334,1.7295,1.6807,1.6655,1.657,1.6104,1.5989,1.5989,1.596,1.6122,1.633,1.633,1.6169,1.5816,1.5089,1.449,1.4094,1.4094,1.3545,1.31,1.31,1.2565,1.2104,1.2104,1.1663,1.1279,1.1216,1.0566,0.9856,0.918,0.9116,0.886,0.8183,0.8124,0.7869,0.7204,0.647,0.6067,0.6067,0.4875,0.4181,0.4181,0.3084,0.2248,0.1743,0.1041,0.0672,0.0672,-0.0067,-0.0404,-0.0371,-0.0438,-0.0842,2.2102,2.3111,2.4439,2.5248,2.6673,2.7722,2.7146,2.7479,2.8215,2.9274,2.8345,2.7335,2.7287,2.5385,2.3786,2.3668,2.2876,2.2179,2.1969,2.1955,2.1779,2.1302,2.1253,2.1106,2.0724,2.0699,2.0687,0.0,0.0,0.0,2.0599,2.0524,2.0524,2.0662,2.0574,2.0524,2.0524,2.0524,2.0448,0.0,1.9862,1.9888,2.0296,1.9265,1.8827,1.8789,1.8667,1.8614,1.8575,1.8614,1.864,1.8587,1.8116,1.7941,1.787,1.7462,1.7562,1.787,1.7462,1.759,1.7831,1.7312,1.7155,1.7071,1.6599,1.6599,1.6691,1.6312,1.6415,1.6602,1.6602,1.668,1.6729,1.6549,1.5613,1.4784,1.4784,1.4252,1.3786,1.3786,1.3334,1.294,1.294,1.2978,1.2773,1.2151,1.1382,1.0604,0.9888,0.992,0.9755,0.9084,0.9122,0.9096,0.8941,0.7934,0.7316,0.7316,0.6174,0.5488,0.5488,0.3889,0.2989,0.2855,0.2283,0.198,0.198,0.084,0.037,0.0504,-0.0067,-0.0337,2.2657,2.3725,2.4873,2.6171,2.7086,2.7455,2.6752,2.6881,2.724,2.7604,2.6871,2.6153,2.6153,2.4847,2.3769,2.3769,2.3228,2.2748,2.2498,2.2489,2.2305,2.1789,2.1732,2.1541,2.1082,2.1033,2.0947,0.0,0.0,2.0699,2.0699,2.0699,2.0699,2.0699,2.0699,2.0699,2.0699,2.0699,2.0699,2.0699,2.0385,2.0385,2.0674,1.9798,1.937,1.937,1.9119,1.8987,1.8987,1.8987,1.8987,1.896,1.8655,1.8536,1.8494,1.8209,1.829,1.8494,1.8209,1.829,1.8467,1.8007,1.787,1.7843,1.7655,1.7699,1.7754,1.7523,1.7677,1.7852,1.7672,1.7573,1.7529,1.7529,1.6765,1.5979,1.5671,1.5362,1.5021,1.4717,1.4213,1.3825,1.3825,1.3653,1.3351,1.2948,1.2243,1.1624,1.1236,1.1031,1.0661,0.9958,0.9932,0.9843,0.9518,0.8935,0.842,0.8096,0.7414,0.6863,0.6548,0.551,0.4683,0.4123,0.3251,0.2783,0.2783,0.151,0.0941,0.1008,0.0371,-0.0034,2.3103,2.4171,2.5083,2.7106,2.7106,2.6557,2.6437,2.6333,2.6063,2.539,2.4903,2.4605,2.4605,2.4036,2.3595,2.3595,2.3595,2.3465,2.3068,2.3024,2.283,2.2291,2.2244,2.2049,2.1578,2.153,0.0,0.0,0.0,2.0934,2.0934,2.0934,2.0934,2.0934,2.0934,2.0934,2.0934,2.0934,2.0934,2.0934,2.0873,2.0774,2.0674,2.0169,1.9965,1.9939,1.9486,1.9303,1.9303,1.9303,1.9303,1.9277,1.9172,1.9146,1.9119,1.904,1.9066,1.9172,1.9066,1.9119,1.916,1.8765,1.8658,1.8685,1.878,1.8847,1.8874,1.8874,1.9109,1.9291,1.8948,1.867,1.8471,1.8471,1.8027,1.7385,1.6613,1.6454,1.6283,1.5661,1.5059,1.4706,1.4785,1.4163,1.3653,1.3653,1.31,1.2665,1.2665,1.2128,1.1522,1.0919,1.0737,1.0485,0.9901,0.9741,0.939,0.8716,0.8479,0.8027,0.7363,0.7158,0.6564,0.558,0.4314,0.3616,0.3485,0.2316,0.1747,0.1714,0.1009,0.0404,2.0149,2.2443,2.5083,2.7106,2.7106,2.6437,2.5869,2.5277,2.4679,2.4014,2.4261,2.4605,2.4605,2.4036,2.3595,2.3595,2.3595,2.3573,2.3508,2.3508,2.3334,2.2867,2.2799,2.2581,2.2058,2.2025,0.0,0.0,2.1917,2.1917,2.1917,2.1917,2.1917,2.1917,2.1917,2.1917,2.1917,2.1917,2.1917,2.1908,2.1506,2.1082,2.0699,2.0624,2.0574,2.0574,2.0498,2.0473,2.0473,2.0473,2.0473,2.0423,1.9914,1.9695,1.9656,1.9172,1.937,1.9786,1.9331,1.9553,1.9965,1.9449,1.9293,1.9293,1.9293,1.9475,1.9643,1.9643,1.985,2.0054,1.9991,1.9939,1.9914,1.9914,1.9592,1.8871,1.7396,1.709,1.6894,1.6312,1.569,1.5439,1.5968,1.5128,1.438,1.438,1.3803,1.3381,1.3381,1.2795,1.2328,1.2235,1.1763,1.1435,1.1334,1.0737,1.0066,0.9422,0.9075,0.8598,0.7922,0.7712,0.7512,0.7349,0.6166,0.5213,0.4595,0.3823,0.3456,0.3422,0.2079,0.1409,2.1325,2.364,2.5795,2.7245,2.7375,2.6986,2.6303,2.5644,2.4963,2.4291,2.4096,2.4036,2.4036,2.3804,2.3595,2.3595,2.3595,2.3595,2.3595,2.3595,2.3508,2.3312,2.329,2.3113,2.2603,2.2558,0.0,0.0,2.2105,2.2105,2.2105,2.1773,2.1605,2.1605,2.1218,2.1058,2.108,2.1462,2.1882,2.2314,2.2119,2.1874,2.1612,2.1612,2.1264,2.0699,2.0699,2.0699,2.0699,2.0699,2.0699,2.0687,2.0486,2.0423,2.0398,2.0207,2.0321,2.0523,2.0296,2.0397,2.0585,2.0207,2.0067,2.0093,2.0169,2.027,2.0359,2.0359,2.0459,2.0498,2.0258,2.0207,2.0207,2.0207,2.0042,1.9734,1.9044,1.8259,1.7534,1.6922,1.6585,1.65,1.6754,1.6348,1.5891,1.5565,1.4972,1.4442,1.4103,1.3472,1.31,1.3166,1.2931,1.2818,1.2948,1.2305,1.1609,1.0933,1.0616,1.0034,0.9037,0.9102,0.8844,0.8161,0.6658,0.5741,0.5415,0.4389,0.3925,0.3892,0.2948,0.2512,2.2074,2.3835,2.517,2.6983,2.7249,2.701,2.6892,2.6268,2.5536,2.4972,2.4384,2.3934,2.3882,2.3724,2.3595,2.3595,2.3595,2.3595,2.3595,2.3595,2.367,2.3834,2.3864,2.3732,2.3377,2.3332,0.0,0.0,2.2332,2.2246,2.2246,2.1654,2.134,2.134,2.0855,2.0626,2.0668,2.1384,2.2039,2.2694,2.2694,2.2566,2.2337,2.2337,2.1908,2.1166,2.1118,2.1106,2.1106,2.1142,2.1166,2.1166,2.1267,2.1304,2.1315,2.1361,2.1313,2.1253,2.1253,2.118,2.1082,2.1031,2.0908,2.0833,2.1066,2.1066,2.0957,2.0957,2.0957,2.0883,2.0573,2.0498,2.0498,2.0498,2.0435,2.0296,2.0105,1.9109,1.8135,1.7727,1.7424,1.7257,1.7451,1.7341,1.7118,1.6698,1.6252,1.5795,1.5352,1.4728,1.4305,1.4227,1.4079,1.3999,1.3995,1.3545,1.2954,1.2273,1.2135,1.1531,1.0262,1.0566,1.0155,0.8973,0.7497,0.6588,0.6264,0.5312,0.4788,0.4589,0.4015,0.3647,2.0416,2.1114,2.1953,2.6015,2.6268,2.5898,2.7323,2.6773,2.5909,2.5604,2.5229,2.4841,2.4585,2.4027,2.3595,2.3595,2.3595,2.3595,2.3595,2.3595,2.3849,2.447,2.4545,2.4545,2.45,2.45,0.0,0.0,2.2993,2.267,2.267,2.2038,2.168,2.168,2.1699,2.1709,2.1729,2.2511,2.2993,2.3172,2.3172,2.2928,2.2489,2.2489,2.2466,2.2397,2.2267,2.2235,2.2235,2.2337,2.242,2.242,2.242,2.242,2.242,2.242,2.2226,2.1949,2.1949,2.1712,2.1471,2.1973,2.1769,2.1434,2.1959,2.1769,2.1375,2.1375,2.1375,2.1361,2.1337,2.135,2.135,2.135,2.1044,2.0547,1.9811,1.9109,1.8727,1.8869,1.7984,1.7424,1.8131,1.7776,1.7435,1.7523,1.7523,1.7457,1.7429,1.6907,1.6334,1.5736,1.5119,1.4543,1.4055,1.3974,1.364,1.2888,1.3201,1.2785,1.148,1.1719,1.1368,1.0238,0.9436,0.8468,0.7321,0.7256,0.6892,0.6268,0.5526,0.4836,1.9813,2.1228,2.2759,2.4456,2.5664,2.6586,2.7241,2.7466,2.7507,2.7428,2.6936,2.6498,2.6411,2.5366,2.4495,2.4495,2.4495,2.4495,2.4495,2.4053,2.3973,2.4642,2.426,2.4313,2.5158,2.4455,0.0,0.0,0.0,2.2508,2.2089,2.1469,2.1113,2.1113,2.082,2.0864,2.1364,2.2148,2.2781,2.3273,2.3697,2.3803,2.3588,2.3588,2.3545,2.3465,2.3501,2.3113,2.2443,2.2489,2.2512,2.2512,2.2581,2.2626,2.2626,2.2717,2.2686,2.2572,2.2572,2.248,2.2388,2.2595,2.2526,2.2411,2.2595,2.2526,2.2365,2.2365,2.2147,2.1926,2.1926,2.1664,2.1399,2.1399,2.1554,2.1503,2.0795,2.0257,1.9927,2.0003,1.9812,1.9607,1.9529,1.9347,1.898,1.8298,1.819,1.8054,1.766,1.7418,1.7252,1.7169,1.6925,1.6588,1.6099,1.5698,1.5197,1.4562,1.4293,1.3777,1.2967,1.3036,1.2557,1.1406,1.1135,1.0053,0.8102,0.7647,0.7055,0.64,0.6129,0.5639,1.9193,2.0602,2.241,2.3889,2.4884,2.5918,2.755,2.8044,2.8179,2.8327,2.8096,2.7837,2.7737,2.6931,2.6088,2.5536,2.5437,2.536,2.5106,2.4501,2.4322,2.4996,2.4684,2.4672,2.5326,2.4807,0.0,0.0,0.0,0.0,2.1493,2.0873,2.0533,2.0555,2.0218,2.0398,2.1164,2.1698,2.2305,2.2963,2.364,2.3938,2.3928,2.4122,2.4172,2.4109,2.4193,2.3797,2.3054,2.3098,2.3098,2.312,2.3209,2.3246,2.3253,2.3334,2.3268,2.3135,2.3135,2.3024,2.2934,2.3091,2.3024,2.2934,2.3091,2.3024,2.2889,2.2889,2.2678,2.2426,2.2426,2.217,2.1898,2.1931,2.2212,2.2351,2.195,2.1321,2.0795,2.0734,2.087,2.0906,2.0584,2.0534,2.0295,1.9594,1.9464,1.9322,1.8931,1.8705,1.8638,1.8759,1.8599,1.8317,1.7813,1.7407,1.6907,1.633,1.592,1.5438,1.4876,1.4847,1.4221,1.2912,1.2852,1.1928,0.9983,0.9046,0.8183,0.7335,0.7335,0.6789,0.0,0.0,0.0,2.4291,2.3852,2.3669,2.8183,2.8347,2.7689,2.8207,2.8551,2.871,2.8489,2.8661,2.826,2.6619,2.635,2.609,2.5381,2.4902,2.4884,2.5576,2.5843,2.575,2.5134,2.5606,0.0,0.0,2.2393,2.169,2.1007,2.0354,2.0025,2.01,2.01,2.0492,2.1275,2.1288,2.1627,2.2289,2.2983,2.3322,2.3337,2.4015,2.4323,2.4323,2.4323,2.4297,2.425,2.4276,2.4302,2.4302,2.4302,2.4302,2.4302,2.4302,2.4015,2.3616,2.3616,2.3312,2.3024,2.3465,2.3312,2.3024,2.3486,2.3312,2.2934,2.2934,2.2934,2.2912,2.2912,2.2912,2.2957,2.298,2.3024,2.3047,2.3194,2.2193,2.1224,2.1115,2.1077,2.1115,2.1224,2.1237,2.1272,2.1369,2.1393,2.1393,2.1417,2.0944,2.0608,2.0543,2.0067,1.953,1.8982,1.8955,1.8729,1.8174,1.8147,1.7841,1.7197,1.717,1.6413,1.4732,1.4703,1.4125,1.2981,1.1671,1.0433,0.9265,0.9201,0.8307,1.9449,0.0,0.0,0.0,0.0,0.0,2.456,2.5598,2.665,2.8454,2.8414,2.8375,2.9448,2.9254,2.859,2.7548,2.7355,2.7235,2.7042,2.5949,2.5639,2.6833,2.6043,2.5806,2.6777,0.0,0.0,0.0,2.2666,2.1493,2.0339,2.0152,2.0133,2.0252,2.0252,2.0467,2.0927,2.1182,2.1507,2.1945,2.3174,2.3723,2.3755,2.4426,2.4883,2.5141,2.4863,2.4883,2.5098,2.4533,2.4302,2.4302,2.4302,2.4302,2.4302,2.4302,2.4219,2.4114,2.4114,2.4015,2.3931,2.4057,2.4015,2.3931,2.4073,2.4015,2.3909,2.3909,2.3659,2.3334,2.3039,2.3253,2.3486,2.3216,2.3413,2.3608,2.3515,2.3209,2.2928,2.2905,2.2801,2.2643,2.2337,2.2072,2.1803,2.1441,2.1393,2.1476,2.1734,2.1428,2.1259,2.1506,2.1159,2.0693,2.0117,2.0067,1.9826,1.9222,1.9196,1.9146,1.907,1.9057,1.8472,1.7295,1.7295,1.6507,1.5003,1.3033,1.1634,1.076,0.9553,0.88,0.0,0.0,0.0,0.0,0.0,0.0,2.4132,2.4651,2.5289,2.7571,2.7672,2.7705,2.8922,2.8535,2.7977,2.7824,2.7514,2.738,2.7693,2.6833,2.6586,2.7744,2.7187,2.6956,2.7618,2.6603,2.5408,2.4284,2.3202,2.1998,2.0624,2.058,2.0647,2.0712,2.0729,2.0811,2.1007,2.119,2.1396,2.1613,2.3035,2.369,2.3722,2.4694,2.5275,2.5484,2.5256,2.5275,2.5465,2.5001,2.4799,2.4799,2.4799,2.4799,2.4799,2.4799,2.4799,2.4799,2.4799,2.4799,2.4799,2.4799,2.4799,2.4799,2.4799,2.4679,2.4594,2.4759,2.4628,2.443,2.4205,2.4384,2.4592,2.4419,2.4455,2.4507,2.441,2.4389,2.4261,2.3846,2.3696,2.3551,2.329,2.3068,2.2844,2.2529,2.2483,2.2552,2.2741,2.2409,2.2317,2.2719,2.2386,2.2002,2.1655,2.1631,2.1319,2.0601,2.0576,2.0588,2.0662,2.0771,2.0388,1.9534,1.9598,1.8776,1.7043,1.4907,1.3339,1.2257,1.0746,1.0071,0.0,0.0,0.0,0.0,0.0,0.0,2.484,2.44,2.3776,2.5913,2.6201,2.6387,2.7367,2.6894,2.6573,2.73,2.6962,2.6894,2.7807,2.7555,2.7603,2.8472,2.8734,2.8588,2.8033,2.7692,2.6711,2.4764,2.3706,2.2604,2.1373,2.1308,2.1308,2.1308,2.1308,2.1356,2.1484,2.1356,2.1388,2.1614,2.2865,2.3515,2.3629,2.496,2.5596,2.5633,2.5596,2.5596,2.5633,2.5633,2.5577,2.5503,2.5503,2.5503,2.5503,2.5503,2.5503,2.5503,2.5503,2.5503,2.5503,2.5503,2.5503,2.5503,2.5521,2.5275,2.5059,2.5427,2.5612,2.574,2.5801,2.5819,2.5855,2.5979,2.5742,2.55,2.5559,2.5577,2.5294,2.4395,2.4177,2.4114,2.4114,2.4046,2.4003,2.4051,2.4051,2.4067,2.4067,2.3694,2.3578,2.4009,2.3629,2.3325,2.3281,2.3281,2.2973,2.2211,2.2165,2.2188,2.2197,2.2389,2.2186,2.1553,2.1601,2.0823,1.9225,1.7087,1.5303,1.3819,1.2682,1.1943,0.0,0.0,0.0,0.0,0.0,0.0,2.0421,2.1331,2.2651,2.3818,2.3103,2.3052,2.5575,2.4949,2.4289,2.5032,2.5524,2.6505,2.8484,2.8142,2.8206,2.9606,2.9297,2.8989,2.9072,2.7465,2.61,2.5362,2.3075,2.16,2.1308,2.1308,2.1308,2.1308,2.1308,2.1708,2.2579,2.1725,2.2034,2.3488,2.3753,2.4182,2.4811,2.5618,2.6157,2.6453,2.6123,2.6175,2.647,2.647,2.607,2.5503,2.5503,2.5503,2.5503,2.5503,2.5503,2.5503,2.5503,2.5503,2.5503,2.5503,2.5503,2.5521,2.5629,2.561,2.5572,2.5691,2.5764,2.5817,2.5924,2.5961,2.5979,2.6068,2.6033,2.5979,2.598,2.598,2.5926,2.5726,2.5202,2.4808,2.4808,2.4354,2.4094,2.4369,2.4394,2.4405,2.44,2.4576,2.4661,2.4421,2.4302,2.4127,2.3867,2.3846,2.3846,2.3837,2.3837,2.3927,2.4138,2.42,2.4019,2.361,2.2805,2.2198,2.1842,1.8983,1.707,1.6071,1.5273,1.4663,0.0,0.0,0.0,2.17,0.0,0.0,0.0,2.0893,2.0857,2.2473,2.1637,2.1295,2.353,2.3054,2.2663,2.378,2.456,2.5575,2.708,2.7587,2.8229,2.9414,2.923,2.9055,2.92,2.7841,2.6398,2.5094,2.3007,2.1812,2.1812,2.1812,2.1812,2.1812,2.216,2.26,2.315,2.2981,2.3348,2.4257,2.4609,2.4978,2.5363,2.6084,2.6505,2.6691,2.6487,2.6505,2.6691,2.6691,2.647,2.6104,2.6104,2.6104,2.6104,2.6104,2.6104,2.6104,2.6104,2.6104,2.6122,2.6191,2.6191,2.6209,2.6314,2.6349,2.6349,2.6386,2.6539,2.6756,2.6998,2.6951,2.6856,2.6888,2.674,2.659,2.659,2.659,2.659,2.6573,2.6284,2.5933,2.5617,2.5259,2.5105,2.5265,2.5303,2.53,2.5291,2.5468,2.5526,2.531,2.5297,2.5243,2.5105,2.5105,2.515,2.5277,2.5295,2.5354,2.5487,2.5597,2.5524,2.5239,2.4262,2.3753,2.3733,2.1826,2.0083,1.8541,1.8193,1.7522,0.0,0.0,0.0,0.0,0.0,2.1036,0.0,0.0,0.0,2.1403,2.0719,2.0276,2.1992,2.1566,2.1461,2.2953,0.0,0.0,0.0,2.6217,0.0,2.8434,2.8553,0.0,2.8773,2.7807,2.637,2.4423,2.2919,2.2158,2.2296,2.2296,2.2364,2.2513,2.3088,2.3528,2.3816,2.4271,2.4674,2.5024,2.5483,2.5805,2.6021,2.6618,2.689,2.689,2.689,2.689,2.689,2.689,2.689,2.6891,2.6825,2.6791,2.6808,2.6874,2.689,2.689,2.689,2.689,2.6907,2.7023,2.7071,2.7104,2.7168,2.7182,2.7213,2.7205,2.7452,2.7754,2.8034,2.794,2.7771,2.7771,2.7527,2.7293,2.7293,2.7293,2.7293,2.7226,2.7261,2.7092,2.6489,2.6317,2.63,2.6369,2.6386,2.6369,2.6282,2.6403,2.6437,2.63,2.6334,2.6386,2.6369,2.6352,2.6404,2.6521,2.6536,2.6568,2.6586,2.6732,2.675,2.6589,2.5876,2.5473,2.5468,2.489,2.3328,2.0904,2.0846,2.0205,0.0,0.0,0.0,0.0,2.3272,0.0,0.0,0.0,2.0508,2.0295,0.0,1.9631,2.189,0.0,0.0,0.0,0.0,0.0,2.3858,2.3928,2.4661,2.6708,2.6962,0.0,0.0,2.6082,2.4508,2.3579,2.2155,2.1613,2.2262,2.2296,2.2598,2.3241,2.3359,2.4036,2.5338,2.478,2.5307,2.6891,2.6322,2.6541,2.7457,2.7545,2.7597,2.7597,2.7597,2.7597,2.7597,2.7597,2.7597,2.755,2.726,2.7149,2.7181,2.7474,2.7597,2.7597,2.7597,2.7597,2.758,2.7612,2.7683,2.7783,2.7797,2.7865,2.7978,2.7974,2.8002,2.8047,2.8102,2.8075,2.8061,2.8061,2.8016,2.7988,2.7988,2.7988,2.7988,2.7988,2.7988,2.7872,2.7504,2.7132,2.7006,2.7382,2.7445,2.7304,2.6926,2.7469,2.7619,2.6974,2.7211,2.7289,2.6928,2.6911,2.7004,2.725,2.7393,2.7508,2.7624,2.7656,2.7642,2.7627,2.7638,2.7593,2.7458,2.7501,2.5849,2.2702,2.2468,2.2235,0.0,0.0,0.0,0.0,0.0,0.0,1.9936,0.0,1.9464,0.0,0.0,0.0,0.0,0.0,0.0,0.0,2.2044,0.0,0.0,0.0,2.3265,0.0,0.0,0.0,0.0,0.0,0.0,0.0,2.2278,2.1825,2.2708,2.2756,2.3132,2.3908,2.4344,2.5074,2.6165,2.6301,2.6742,2.7491,2.7175,2.725,2.7701,2.7701,2.7701,2.7701,2.7701,2.7701,2.7701,2.7701,2.7701,2.7698,2.7725,2.7622,2.7507,2.7657,2.7701,2.7701,2.7701,2.7701,2.7698,2.78,2.7911,2.802,2.802,2.8061,2.8143,2.8334,2.8386,2.843,2.8583,2.8507,2.8386,2.8386,2.8386,2.8425,2.8541,2.8471,2.8476,2.8736,2.8676,2.8573,2.8585,2.8159,2.7836,2.7883,2.8004,2.8004,2.7828,2.8072,2.8216,2.8065,2.8097,2.811,2.8088,2.8025,2.8178,2.8587,2.8665,2.8728,2.878,2.8642,2.8554,2.8554,2.8611,2.8643,2.861,2.8518,2.7755,2.6391,2.5598,2.4924,2.6824,0.0,0.0,0.0,0.0,0.0,0.0,0.0,0.0,0.0,0.0,0.0,0.0,0.0,0.0,0.0,0.0,2.2616,0.0,2.1873,0.0,0.0,0.0,0.0,0.0,0.0,0.0,0.0,0.0,2.2277,2.3653,2.3719,2.4206,2.5222,2.5776,2.6448,2.7221,2.7751,2.7971,2.7815,2.7815,2.7858,2.7947,2.7947,2.7947,2.7947,2.7947,2.7947,2.7947,2.7947,2.8085,2.8273,2.825,2.8249,2.8244,2.8032,2.7947,2.7961,2.7957,2.7986,2.8014,2.8124,2.8228,2.8316,2.8316,2.8316,2.8399,2.8639,2.8718,2.8755,2.894,2.8858,2.8713,2.8767,2.8791,2.885,2.9053,2.8975,2.8971,2.9324,2.9243,2.9161,2.9355,2.9019,2.8687,2.853,2.8646,2.8727,2.8727,2.8739,2.8823,2.9024,2.8924,2.8916,2.9103,2.905,2.9211,2.9688,2.968,2.968,2.9747,2.9506,2.9362,2.9362,2.9435,2.9458,2.9458,2.9314,2.9242,2.9205,2.8037,2.7207,0.0,0.0,0.0,2.4643,0.0,0.0,0.0,0.0,2.0846,0.0,0.0,0.0,0.0,0.0,0.0,0.0,0.0,0.0,0.0,0.0,0.0,0.0,0.0,0.0,0.0,0.0,0.0,0.0,0.0,0.0,2.5187,2.5328,2.6045,2.7645,2.7715,2.8074,2.882,2.8838,2.86,2.8088,2.8088,2.8273,2.8574,2.8574,2.8574,2.8574,2.8574,2.8574,2.8574,2.8574,2.9039,2.9668,2.8876,2.9039,2.9649,2.8864,2.8574,2.8587,2.8644,2.8724,2.8761,2.8773,2.8822,2.8863,2.8863,2.8917,2.8964,2.8975,2.8994,2.8994,2.8994,2.8994,2.9033,2.922,2.9283,2.9334,2.9523,2.9561,2.9561,2.9589,2.957,2.9589,2.9598,2.9561,2.9551,2.9551,2.9551,2.9561,2.9561,2.9626,2.9662,2.9672,2.968,2.9678,2.9668,2.9734,2.9905,3.0258,3.0155,3.0175,3.0356,3.018,3.0059,3.0059,3.0267,3.0253,3.0065,3.0253,3.025,3.0046,2.8961,2.8726,0.0,0.0,2.8914,2.6049,0.0,0.0,0.0,0.0,0.0,0.0,0.0,0.0,0.0,0.0,0.0,0.0,0.0,0.0,0.0,0.0,0.0,0.0,0.0,2.319,0.0,0.0,0.0,0.0,2.3407,0.0,0.0,2.6433,2.7223,2.8299,2.8851,2.9498,3.0273,2.9753,2.9399,2.9224,2.8688,2.8776,2.9391,2.9391,2.9681,3.0188,3.0188,3.0188,3.0188,3.0188,3.0025,2.9766,2.9513,2.9349,2.9216,2.8809,2.8675,2.8687,2.8749,2.881,2.8893,2.9019,2.9119,2.9177,2.9324,2.9375,2.9395,2.9395,2.9395,2.9395,2.9395,2.9395,2.9415,2.9484,2.9504,2.9561,2.977,2.9689,2.9644,2.9769,2.9805,2.9805,2.9805,2.9939,2.995,2.9662,2.9705,2.9799,2.9799,2.9859,2.9946,3.008,3.0063,3.0073,3.0227,3.0295,3.037,3.0482,3.0466,3.0466,3.0533,3.0471,3.0439,3.0439,3.0496,3.0514,3.0492,3.0566,3.0585,3.0543,3.0149,2.9887,2.9098,2.9236,0.0,2.6862,2.6199,0.0,2.2867,0.0,0.0,0.0,0.0,0.0,0.0,0.0,0.0,0.0,0.0,0.0,0.0,2.1061,0.0,0.0,0.0,2.2782,2.25,2.2521,2.2948,2.3957,2.3764,0.0,0.0,0.0,2.863,2.9432,3.0224,3.0908,3.1419,3.0908,3.0509,3.0219,2.9699,2.9735,3.0237,3.0237,3.0509,3.0998,3.1079,3.1119,3.1101,3.118,3.0916,3.046,3.0167,2.9841,2.9514,2.9007,2.8885,2.8982,2.9034,2.909,2.9166,2.9304,2.9375,2.9435,2.957,2.9608,2.9608,2.9608,2.9608,2.9608,2.9608,2.9608,2.9626,2.9689,2.9724,2.979,3.0004,2.9939,2.9888,3.0052,3.0063,3.0049,3.0073,3.0216,3.0235,2.9935,3.0013,3.0106,3.0113,3.0171,3.0251,3.0386,3.0369,3.0405,3.0552,3.0607,3.065,3.0662,3.0665,3.0672,3.0665,3.0664,3.0659,3.0649,3.0638,3.0625,3.0638,3.0638,3.0649,3.0682,3.0611,3.0372]}]]